<?xml version="1.0" encoding="UTF-8" standalone="no" ?>
<gpx xmlns="http://www.topografix.com/GPX/1/1" xmlns:xsi="http://www.w3.org/2001/XMLSchema-instance" xsi:schemaLocation="http://www.topografix.com/GPX/1/1 http://www.topografix.com/GPX/1/1/gpx.xsd" version="1.1" creator="VisuGPX - https://www.visugpx.com">
  <metadata>
    <name>PR Murles</name>
    <desc><![CDATA[PR au départ de Murles, en passant par le Dolmen du Mas Reynatd, et la Métayrie de Caravette, par Saugras.
]]></desc>
  </metadata>
  <trk>
    <name><![CDATA[Untitled]]></name>
    <trkseg>
      <trkpt lat="43.69004" lon="3.74601">
        <ele>185.80000305176</ele>
        <time>2012-02-04T13:45:19.000Z</time>
      </trkpt>
      <trkpt lat="43.69" lon="3.74596">
        <ele>186</ele>
        <time>2012-02-04T13:45:34.000Z</time>
      </trkpt>
      <trkpt lat="43.69001" lon="3.74583">
        <ele>187</ele>
        <time>2012-02-04T13:45:41.000Z</time>
      </trkpt>
      <trkpt lat="43.69002" lon="3.74575">
        <ele>188</ele>
        <time>2012-02-04T13:45:46.000Z</time>
      </trkpt>
      <trkpt lat="43.69003" lon="3.74571">
        <ele>188.39999389648</ele>
        <time>2012-02-04T13:45:49.000Z</time>
      </trkpt>
      <trkpt lat="43.69002" lon="3.7457">
        <ele>188.39999389648</ele>
        <time>2012-02-04T13:45:58.000Z</time>
      </trkpt>
      <trkpt lat="43.69001" lon="3.74571">
        <ele>188.19999694824</ele>
        <time>2012-02-04T13:46:15.000Z</time>
      </trkpt>
      <trkpt lat="43.69" lon="3.74571">
        <ele>188.19999694824</ele>
        <time>2012-02-04T13:46:25.000Z</time>
      </trkpt>
      <trkpt lat="43.68996" lon="3.74571">
        <ele>188.39999389648</ele>
        <time>2012-02-04T13:46:35.000Z</time>
      </trkpt>
      <trkpt lat="43.68988" lon="3.7457">
        <ele>188.60000610352</ele>
        <time>2012-02-04T13:46:42.000Z</time>
      </trkpt>
      <trkpt lat="43.68979" lon="3.74574">
        <ele>188.60000610352</ele>
        <time>2012-02-04T13:46:51.000Z</time>
      </trkpt>
      <trkpt lat="43.68969" lon="3.74577">
        <ele>188.60000610352</ele>
        <time>2012-02-04T13:46:58.000Z</time>
      </trkpt>
      <trkpt lat="43.6896" lon="3.74578">
        <ele>188.80000305176</ele>
        <time>2012-02-04T13:47:05.000Z</time>
      </trkpt>
      <trkpt lat="43.6895" lon="3.74572">
        <ele>189.60000610352</ele>
        <time>2012-02-04T13:47:13.000Z</time>
      </trkpt>
      <trkpt lat="43.68942" lon="3.74566">
        <ele>190.19999694824</ele>
        <time>2012-02-04T13:47:21.000Z</time>
      </trkpt>
      <trkpt lat="43.68935" lon="3.74555">
        <ele>191</ele>
        <time>2012-02-04T13:47:29.000Z</time>
      </trkpt>
      <trkpt lat="43.68933" lon="3.74546">
        <ele>191.60000610352</ele>
        <time>2012-02-04T13:47:36.000Z</time>
      </trkpt>
      <trkpt lat="43.6893" lon="3.74541">
        <ele>191.80000305176</ele>
        <time>2012-02-04T13:47:41.000Z</time>
      </trkpt>
      <trkpt lat="43.68926" lon="3.74537">
        <ele>192.19999694824</ele>
        <time>2012-02-04T13:47:44.000Z</time>
      </trkpt>
      <trkpt lat="43.68924" lon="3.74535">
        <ele>192.19999694824</ele>
        <time>2012-02-04T13:47:46.000Z</time>
      </trkpt>
      <trkpt lat="43.68923" lon="3.74527">
        <ele>192.80000305176</ele>
        <time>2012-02-04T13:47:53.000Z</time>
      </trkpt>
      <trkpt lat="43.68917" lon="3.7453">
        <ele>192.60000610352</ele>
        <time>2012-02-04T13:48:03.000Z</time>
      </trkpt>
      <trkpt lat="43.68921" lon="3.74536">
        <ele>192.19999694824</ele>
        <time>2012-02-04T13:48:09.000Z</time>
      </trkpt>
      <trkpt lat="43.68919" lon="3.74534">
        <ele>192.39999389648</ele>
        <time>2012-02-04T13:48:11.000Z</time>
      </trkpt>
      <trkpt lat="43.68913" lon="3.74529">
        <ele>192</ele>
        <time>2012-02-04T13:48:16.000Z</time>
      </trkpt>
      <trkpt lat="43.68909" lon="3.74534">
        <ele>191.19999694824</ele>
        <time>2012-02-04T13:48:22.000Z</time>
      </trkpt>
      <trkpt lat="43.68907" lon="3.74535">
        <ele>190.80000305176</ele>
        <time>2012-02-04T13:48:28.000Z</time>
      </trkpt>
      <trkpt lat="43.68911" lon="3.74548">
        <ele>190.80000305176</ele>
        <time>2012-02-04T13:48:33.000Z</time>
      </trkpt>
      <trkpt lat="43.68911" lon="3.74559">
        <ele>190.39999389648</ele>
        <time>2012-02-04T13:48:37.000Z</time>
      </trkpt>
      <trkpt lat="43.6891" lon="3.74564">
        <ele>190.19999694824</ele>
        <time>2012-02-04T13:48:38.000Z</time>
      </trkpt>
      <trkpt lat="43.68913" lon="3.74579">
        <ele>189.80000305176</ele>
        <time>2012-02-04T13:48:42.000Z</time>
      </trkpt>
      <trkpt lat="43.68913" lon="3.74595">
        <ele>188.60000610352</ele>
        <time>2012-02-04T13:48:49.000Z</time>
      </trkpt>
      <trkpt lat="43.68913" lon="3.746">
        <ele>188</ele>
        <time>2012-02-04T13:48:55.000Z</time>
      </trkpt>
      <trkpt lat="43.6891" lon="3.74607">
        <ele>187.19999694824</ele>
        <time>2012-02-04T13:49:03.000Z</time>
      </trkpt>
      <trkpt lat="43.68908" lon="3.74609">
        <ele>186.80000305176</ele>
        <time>2012-02-04T13:49:04.000Z</time>
      </trkpt>
      <trkpt lat="43.68893" lon="3.74603">
        <ele>186.19999694824</ele>
        <time>2012-02-04T13:49:10.000Z</time>
      </trkpt>
      <trkpt lat="43.68883" lon="3.7459">
        <ele>186</ele>
        <time>2012-02-04T13:49:15.000Z</time>
      </trkpt>
      <trkpt lat="43.68879" lon="3.74566">
        <ele>186</ele>
        <time>2012-02-04T13:49:21.000Z</time>
      </trkpt>
      <trkpt lat="43.68876" lon="3.7455">
        <ele>185.80000305176</ele>
        <time>2012-02-04T13:49:26.000Z</time>
      </trkpt>
      <trkpt lat="43.68872" lon="3.74532">
        <ele>185.39999389648</ele>
        <time>2012-02-04T13:49:31.000Z</time>
      </trkpt>
      <trkpt lat="43.68867" lon="3.74516">
        <ele>184.60000610352</ele>
        <time>2012-02-04T13:49:37.000Z</time>
      </trkpt>
      <trkpt lat="43.68867" lon="3.74513">
        <ele>184.39999389648</ele>
        <time>2012-02-04T13:49:38.000Z</time>
      </trkpt>
      <trkpt lat="43.68854" lon="3.74508">
        <ele>182</ele>
        <time>2012-02-04T13:49:44.000Z</time>
      </trkpt>
      <trkpt lat="43.68841" lon="3.74505">
        <ele>179.60000610352</ele>
        <time>2012-02-04T13:49:49.000Z</time>
      </trkpt>
      <trkpt lat="43.68826" lon="3.74494">
        <ele>176</ele>
        <time>2012-02-04T13:49:55.000Z</time>
      </trkpt>
      <trkpt lat="43.68818" lon="3.74489">
        <ele>174</ele>
        <time>2012-02-04T13:49:59.000Z</time>
      </trkpt>
      <trkpt lat="43.68813" lon="3.7448">
        <ele>172.39999389648</ele>
        <time>2012-02-04T13:50:03.000Z</time>
      </trkpt>
      <trkpt lat="43.68808" lon="3.74464">
        <ele>169.80000305176</ele>
        <time>2012-02-04T13:50:08.000Z</time>
      </trkpt>
      <trkpt lat="43.68803" lon="3.74455">
        <ele>167.80000305176</ele>
        <time>2012-02-04T13:50:11.000Z</time>
      </trkpt>
      <trkpt lat="43.68791" lon="3.74442">
        <ele>164.60000610352</ele>
        <time>2012-02-04T13:50:16.000Z</time>
      </trkpt>
      <trkpt lat="43.68777" lon="3.74426">
        <ele>160.80000305176</ele>
        <time>2012-02-04T13:50:23.000Z</time>
      </trkpt>
      <trkpt lat="43.68766" lon="3.74411">
        <ele>157.80000305176</ele>
        <time>2012-02-04T13:50:29.000Z</time>
      </trkpt>
      <trkpt lat="43.68754" lon="3.74402">
        <ele>155.19999694824</ele>
        <time>2012-02-04T13:50:34.000Z</time>
      </trkpt>
      <trkpt lat="43.68732" lon="3.74391">
        <ele>151.60000610352</ele>
        <time>2012-02-04T13:50:42.000Z</time>
      </trkpt>
      <trkpt lat="43.68717" lon="3.74384">
        <ele>149.39999389648</ele>
        <time>2012-02-04T13:50:48.000Z</time>
      </trkpt>
      <trkpt lat="43.68701" lon="3.74373">
        <ele>147.19999694824</ele>
        <time>2012-02-04T13:50:54.000Z</time>
      </trkpt>
      <trkpt lat="43.68686" lon="3.74361">
        <ele>145.39999389648</ele>
        <time>2012-02-04T13:51:00.000Z</time>
      </trkpt>
      <trkpt lat="43.68671" lon="3.74351">
        <ele>143.80000305176</ele>
        <time>2012-02-04T13:51:06.000Z</time>
      </trkpt>
      <trkpt lat="43.68653" lon="3.74338">
        <ele>142.19999694824</ele>
        <time>2012-02-04T13:51:13.000Z</time>
      </trkpt>
      <trkpt lat="43.68634" lon="3.74326">
        <ele>140.80000305176</ele>
        <time>2012-02-04T13:51:20.000Z</time>
      </trkpt>
      <trkpt lat="43.68624" lon="3.74318">
        <ele>140</ele>
        <time>2012-02-04T13:51:24.000Z</time>
      </trkpt>
      <trkpt lat="43.68607" lon="3.74302">
        <ele>139</ele>
        <time>2012-02-04T13:51:31.000Z</time>
      </trkpt>
      <trkpt lat="43.68594" lon="3.74289">
        <ele>138.39999389648</ele>
        <time>2012-02-04T13:51:37.000Z</time>
      </trkpt>
      <trkpt lat="43.68584" lon="3.74282">
        <ele>138</ele>
        <time>2012-02-04T13:51:41.000Z</time>
      </trkpt>
      <trkpt lat="43.68572" lon="3.74273">
        <ele>137.39999389648</ele>
        <time>2012-02-04T13:51:46.000Z</time>
      </trkpt>
      <trkpt lat="43.68557" lon="3.74263">
        <ele>136.60000610352</ele>
        <time>2012-02-04T13:51:52.000Z</time>
      </trkpt>
      <trkpt lat="43.6854" lon="3.74251">
        <ele>135.80000305176</ele>
        <time>2012-02-04T13:51:59.000Z</time>
      </trkpt>
      <trkpt lat="43.68526" lon="3.7424">
        <ele>135.19999694824</ele>
        <time>2012-02-04T13:52:05.000Z</time>
      </trkpt>
      <trkpt lat="43.68514" lon="3.74229">
        <ele>134.60000610352</ele>
        <time>2012-02-04T13:52:10.000Z</time>
      </trkpt>
      <trkpt lat="43.68499" lon="3.74214">
        <ele>134</ele>
        <time>2012-02-04T13:52:16.000Z</time>
      </trkpt>
      <trkpt lat="43.68488" lon="3.74201">
        <ele>133.39999389648</ele>
        <time>2012-02-04T13:52:21.000Z</time>
      </trkpt>
      <trkpt lat="43.68472" lon="3.74186">
        <ele>132.80000305176</ele>
        <time>2012-02-04T13:52:28.000Z</time>
      </trkpt>
      <trkpt lat="43.68459" lon="3.74185">
        <ele>132.19999694824</ele>
        <time>2012-02-04T13:52:33.000Z</time>
      </trkpt>
      <trkpt lat="43.68447" lon="3.74188">
        <ele>131.60000610352</ele>
        <time>2012-02-04T13:52:38.000Z</time>
      </trkpt>
      <trkpt lat="43.68434" lon="3.74195">
        <ele>131</ele>
        <time>2012-02-04T13:52:44.000Z</time>
      </trkpt>
      <trkpt lat="43.68419" lon="3.742">
        <ele>130.60000610352</ele>
        <time>2012-02-04T13:52:50.000Z</time>
      </trkpt>
      <trkpt lat="43.68407" lon="3.74201">
        <ele>130.39999389648</ele>
        <time>2012-02-04T13:52:55.000Z</time>
      </trkpt>
      <trkpt lat="43.68392" lon="3.742">
        <ele>130.60000610352</ele>
        <time>2012-02-04T13:53:01.000Z</time>
      </trkpt>
      <trkpt lat="43.68384" lon="3.74188">
        <ele>130.39999389648</ele>
        <time>2012-02-04T13:53:06.000Z</time>
      </trkpt>
      <trkpt lat="43.68376" lon="3.74162">
        <ele>130</ele>
        <time>2012-02-04T13:53:14.000Z</time>
      </trkpt>
      <trkpt lat="43.68373" lon="3.74142">
        <ele>129.80000305176</ele>
        <time>2012-02-04T13:53:20.000Z</time>
      </trkpt>
      <trkpt lat="43.68374" lon="3.74122">
        <ele>129.80000305176</ele>
        <time>2012-02-04T13:53:25.000Z</time>
      </trkpt>
      <trkpt lat="43.68372" lon="3.74101">
        <ele>129.60000610352</ele>
        <time>2012-02-04T13:53:30.000Z</time>
      </trkpt>
      <trkpt lat="43.68372" lon="3.74091">
        <ele>129.60000610352</ele>
        <time>2012-02-04T13:53:33.000Z</time>
      </trkpt>
      <trkpt lat="43.68378" lon="3.74077">
        <ele>129.60000610352</ele>
        <time>2012-02-04T13:53:38.000Z</time>
      </trkpt>
      <trkpt lat="43.68383" lon="3.74065">
        <ele>129.80000305176</ele>
        <time>2012-02-04T13:53:43.000Z</time>
      </trkpt>
      <trkpt lat="43.6839" lon="3.7406">
        <ele>130</ele>
        <time>2012-02-04T13:53:47.000Z</time>
      </trkpt>
      <trkpt lat="43.68393" lon="3.74057">
        <ele>130.19999694824</ele>
        <time>2012-02-04T13:53:49.000Z</time>
      </trkpt>
      <trkpt lat="43.68404" lon="3.74051">
        <ele>130.80000305176</ele>
        <time>2012-02-04T13:53:55.000Z</time>
      </trkpt>
      <trkpt lat="43.68414" lon="3.74044">
        <ele>131.39999389648</ele>
        <time>2012-02-04T13:54:01.000Z</time>
      </trkpt>
      <trkpt lat="43.68421" lon="3.74036">
        <ele>131.80000305176</ele>
        <time>2012-02-04T13:54:06.000Z</time>
      </trkpt>
      <trkpt lat="43.68429" lon="3.74024">
        <ele>132.60000610352</ele>
        <time>2012-02-04T13:54:13.000Z</time>
      </trkpt>
      <trkpt lat="43.6843" lon="3.74022">
        <ele>132.60000610352</ele>
        <time>2012-02-04T13:54:14.000Z</time>
      </trkpt>
      <trkpt lat="43.68437" lon="3.74016">
        <ele>133</ele>
        <time>2012-02-04T13:54:18.000Z</time>
      </trkpt>
      <trkpt lat="43.68448" lon="3.74005">
        <ele>133.60000610352</ele>
        <time>2012-02-04T13:54:25.000Z</time>
      </trkpt>
      <trkpt lat="43.68451" lon="3.74001">
        <ele>133.80000305176</ele>
        <time>2012-02-04T13:54:27.000Z</time>
      </trkpt>
      <trkpt lat="43.68459" lon="3.73991">
        <ele>134.39999389648</ele>
        <time>2012-02-04T13:54:32.000Z</time>
      </trkpt>
      <trkpt lat="43.68461" lon="3.73988">
        <ele>134.60000610352</ele>
        <time>2012-02-04T13:54:34.000Z</time>
      </trkpt>
      <trkpt lat="43.68469" lon="3.73983">
        <ele>135</ele>
        <time>2012-02-04T13:54:38.000Z</time>
      </trkpt>
      <trkpt lat="43.6848" lon="3.73974">
        <ele>135.80000305176</ele>
        <time>2012-02-04T13:54:44.000Z</time>
      </trkpt>
      <trkpt lat="43.68482" lon="3.73973">
        <ele>135.80000305176</ele>
        <time>2012-02-04T13:54:45.000Z</time>
      </trkpt>
      <trkpt lat="43.68498" lon="3.73961">
        <ele>136.80000305176</ele>
        <time>2012-02-04T13:54:53.000Z</time>
      </trkpt>
      <trkpt lat="43.68507" lon="3.73954">
        <ele>137.60000610352</ele>
        <time>2012-02-04T13:54:58.000Z</time>
      </trkpt>
      <trkpt lat="43.6851" lon="3.73951">
        <ele>138</ele>
        <time>2012-02-04T13:55:00.000Z</time>
      </trkpt>
      <trkpt lat="43.68515" lon="3.73945">
        <ele>138.39999389648</ele>
        <time>2012-02-04T13:55:04.000Z</time>
      </trkpt>
      <trkpt lat="43.68525" lon="3.73938">
        <ele>139.39999389648</ele>
        <time>2012-02-04T13:55:10.000Z</time>
      </trkpt>
      <trkpt lat="43.68531" lon="3.73931">
        <ele>140</ele>
        <time>2012-02-04T13:55:14.000Z</time>
      </trkpt>
      <trkpt lat="43.68538" lon="3.7392">
        <ele>140.60000610352</ele>
        <time>2012-02-04T13:55:19.000Z</time>
      </trkpt>
      <trkpt lat="43.68541" lon="3.73911">
        <ele>141.19999694824</ele>
        <time>2012-02-04T13:55:23.000Z</time>
      </trkpt>
      <trkpt lat="43.68542" lon="3.73908">
        <ele>141.19999694824</ele>
        <time>2012-02-04T13:55:24.000Z</time>
      </trkpt>
      <trkpt lat="43.68544" lon="3.73895">
        <ele>141.60000610352</ele>
        <time>2012-02-04T13:55:29.000Z</time>
      </trkpt>
      <trkpt lat="43.68545" lon="3.73877">
        <ele>142</ele>
        <time>2012-02-04T13:55:35.000Z</time>
      </trkpt>
      <trkpt lat="43.68544" lon="3.7386">
        <ele>142.39999389648</ele>
        <time>2012-02-04T13:55:40.000Z</time>
      </trkpt>
      <trkpt lat="43.68545" lon="3.73854">
        <ele>142.60000610352</ele>
        <time>2012-02-04T13:55:42.000Z</time>
      </trkpt>
      <trkpt lat="43.68546" lon="3.73842">
        <ele>143</ele>
        <time>2012-02-04T13:55:46.000Z</time>
      </trkpt>
      <trkpt lat="43.68552" lon="3.73823">
        <ele>143.39999389648</ele>
        <time>2012-02-04T13:55:53.000Z</time>
      </trkpt>
      <trkpt lat="43.68558" lon="3.73812">
        <ele>143.60000610352</ele>
        <time>2012-02-04T13:55:58.000Z</time>
      </trkpt>
      <trkpt lat="43.68563" lon="3.73803">
        <ele>144</ele>
        <time>2012-02-04T13:56:02.000Z</time>
      </trkpt>
      <trkpt lat="43.68564" lon="3.73801">
        <ele>144</ele>
        <time>2012-02-04T13:56:03.000Z</time>
      </trkpt>
      <trkpt lat="43.68568" lon="3.73797">
        <ele>144.19999694824</ele>
        <time>2012-02-04T13:56:05.000Z</time>
      </trkpt>
      <trkpt lat="43.68576" lon="3.73788">
        <ele>144.60000610352</ele>
        <time>2012-02-04T13:56:10.000Z</time>
      </trkpt>
      <trkpt lat="43.68583" lon="3.7378">
        <ele>145</ele>
        <time>2012-02-04T13:56:14.000Z</time>
      </trkpt>
      <trkpt lat="43.68591" lon="3.73769">
        <ele>145.39999389648</ele>
        <time>2012-02-04T13:56:20.000Z</time>
      </trkpt>
      <trkpt lat="43.68602" lon="3.7376">
        <ele>145.80000305176</ele>
        <time>2012-02-04T13:56:26.000Z</time>
      </trkpt>
      <trkpt lat="43.68614" lon="3.73754">
        <ele>146.39999389648</ele>
        <time>2012-02-04T13:56:32.000Z</time>
      </trkpt>
      <trkpt lat="43.68633" lon="3.73752">
        <ele>147.39999389648</ele>
        <time>2012-02-04T13:56:41.000Z</time>
      </trkpt>
      <trkpt lat="43.68645" lon="3.73754">
        <ele>148</ele>
        <time>2012-02-04T13:56:46.000Z</time>
      </trkpt>
      <trkpt lat="43.68655" lon="3.73754">
        <ele>148.39999389648</ele>
        <time>2012-02-04T13:56:51.000Z</time>
      </trkpt>
      <trkpt lat="43.68664" lon="3.73754">
        <ele>148.80000305176</ele>
        <time>2012-02-04T13:56:56.000Z</time>
      </trkpt>
      <trkpt lat="43.68675" lon="3.73752">
        <ele>149.39999389648</ele>
        <time>2012-02-04T13:57:01.000Z</time>
      </trkpt>
      <trkpt lat="43.68685" lon="3.73749">
        <ele>149.80000305176</ele>
        <time>2012-02-04T13:57:06.000Z</time>
      </trkpt>
      <trkpt lat="43.68698" lon="3.73744">
        <ele>150.60000610352</ele>
        <time>2012-02-04T13:57:12.000Z</time>
      </trkpt>
      <trkpt lat="43.68712" lon="3.7374">
        <ele>151.39999389648</ele>
        <time>2012-02-04T13:57:19.000Z</time>
      </trkpt>
      <trkpt lat="43.68725" lon="3.73737">
        <ele>152.19999694824</ele>
        <time>2012-02-04T13:57:25.000Z</time>
      </trkpt>
      <trkpt lat="43.68735" lon="3.73732">
        <ele>152.80000305176</ele>
        <time>2012-02-04T13:57:30.000Z</time>
      </trkpt>
      <trkpt lat="43.68744" lon="3.73725">
        <ele>153.60000610352</ele>
        <time>2012-02-04T13:57:35.000Z</time>
      </trkpt>
      <trkpt lat="43.68753" lon="3.73719">
        <ele>154.39999389648</ele>
        <time>2012-02-04T13:57:40.000Z</time>
      </trkpt>
      <trkpt lat="43.68767" lon="3.73711">
        <ele>156</ele>
        <time>2012-02-04T13:57:47.000Z</time>
      </trkpt>
      <trkpt lat="43.6878" lon="3.73705">
        <ele>157.60000610352</ele>
        <time>2012-02-04T13:57:53.000Z</time>
      </trkpt>
      <trkpt lat="43.6879" lon="3.73704">
        <ele>158.60000610352</ele>
        <time>2012-02-04T13:57:58.000Z</time>
      </trkpt>
      <trkpt lat="43.68795" lon="3.73707">
        <ele>158.80000305176</ele>
        <time>2012-02-04T13:58:01.000Z</time>
      </trkpt>
      <trkpt lat="43.68799" lon="3.73708">
        <ele>159.19999694824</ele>
        <time>2012-02-04T13:58:03.000Z</time>
      </trkpt>
      <trkpt lat="43.68803" lon="3.73698">
        <ele>160.39999389648</ele>
        <time>2012-02-04T13:58:09.000Z</time>
      </trkpt>
      <trkpt lat="43.68803" lon="3.73693">
        <ele>160.80000305176</ele>
        <time>2012-02-04T13:58:11.000Z</time>
      </trkpt>
      <trkpt lat="43.68802" lon="3.73676">
        <ele>162.19999694824</ele>
        <time>2012-02-04T13:58:17.000Z</time>
      </trkpt>
      <trkpt lat="43.68801" lon="3.73656">
        <ele>162.80000305176</ele>
        <time>2012-02-04T13:58:24.000Z</time>
      </trkpt>
      <trkpt lat="43.68801" lon="3.73641">
        <ele>163</ele>
        <time>2012-02-04T13:58:29.000Z</time>
      </trkpt>
      <trkpt lat="43.68804" lon="3.73627">
        <ele>163.60000610352</ele>
        <time>2012-02-04T13:58:34.000Z</time>
      </trkpt>
      <trkpt lat="43.68808" lon="3.73615">
        <ele>164.19999694824</ele>
        <time>2012-02-04T13:58:39.000Z</time>
      </trkpt>
      <trkpt lat="43.68812" lon="3.73606">
        <ele>165</ele>
        <time>2012-02-04T13:58:43.000Z</time>
      </trkpt>
      <trkpt lat="43.68819" lon="3.73593">
        <ele>166</ele>
        <time>2012-02-04T13:58:49.000Z</time>
      </trkpt>
      <trkpt lat="43.68826" lon="3.73578">
        <ele>167.19999694824</ele>
        <time>2012-02-04T13:58:56.000Z</time>
      </trkpt>
      <trkpt lat="43.68833" lon="3.73565">
        <ele>168.60000610352</ele>
        <time>2012-02-04T13:59:02.000Z</time>
      </trkpt>
      <trkpt lat="43.6884" lon="3.73555">
        <ele>169.80000305176</ele>
        <time>2012-02-04T13:59:07.000Z</time>
      </trkpt>
      <trkpt lat="43.68849" lon="3.73541">
        <ele>171.60000610352</ele>
        <time>2012-02-04T13:59:15.000Z</time>
      </trkpt>
      <trkpt lat="43.68858" lon="3.73528">
        <ele>173</ele>
        <time>2012-02-04T13:59:22.000Z</time>
      </trkpt>
      <trkpt lat="43.68867" lon="3.73514">
        <ele>174.39999389648</ele>
        <time>2012-02-04T13:59:29.000Z</time>
      </trkpt>
      <trkpt lat="43.68872" lon="3.73507">
        <ele>175</ele>
        <time>2012-02-04T13:59:33.000Z</time>
      </trkpt>
      <trkpt lat="43.68878" lon="3.73498">
        <ele>176</ele>
        <time>2012-02-04T13:59:38.000Z</time>
      </trkpt>
      <trkpt lat="43.68885" lon="3.73489">
        <ele>177</ele>
        <time>2012-02-04T13:59:43.000Z</time>
      </trkpt>
      <trkpt lat="43.68893" lon="3.73481">
        <ele>178.19999694824</ele>
        <time>2012-02-04T13:59:48.000Z</time>
      </trkpt>
      <trkpt lat="43.68897" lon="3.73476">
        <ele>178.60000610352</ele>
        <time>2012-02-04T13:59:51.000Z</time>
      </trkpt>
      <trkpt lat="43.68902" lon="3.73472">
        <ele>179.19999694824</ele>
        <time>2012-02-04T13:59:54.000Z</time>
      </trkpt>
      <trkpt lat="43.68902" lon="3.73458">
        <ele>179.80000305176</ele>
        <time>2012-02-04T14:00:00.000Z</time>
      </trkpt>
      <trkpt lat="43.68898" lon="3.73449">
        <ele>179.60000610352</ele>
        <time>2012-02-04T14:00:04.000Z</time>
      </trkpt>
      <trkpt lat="43.68889" lon="3.73442">
        <ele>179</ele>
        <time>2012-02-04T14:00:09.000Z</time>
      </trkpt>
      <trkpt lat="43.68887" lon="3.73441">
        <ele>179</ele>
        <time>2012-02-04T14:00:10.000Z</time>
      </trkpt>
      <trkpt lat="43.68879" lon="3.73434">
        <ele>178.60000610352</ele>
        <time>2012-02-04T14:00:14.000Z</time>
      </trkpt>
      <trkpt lat="43.68875" lon="3.73416">
        <ele>179.19999694824</ele>
        <time>2012-02-04T14:00:20.000Z</time>
      </trkpt>
      <trkpt lat="43.68875" lon="3.73413">
        <ele>179.39999389648</ele>
        <time>2012-02-04T14:00:21.000Z</time>
      </trkpt>
      <trkpt lat="43.68873" lon="3.73399">
        <ele>180.60000610352</ele>
        <time>2012-02-04T14:00:26.000Z</time>
      </trkpt>
      <trkpt lat="43.6887" lon="3.73386">
        <ele>181.80000305176</ele>
        <time>2012-02-04T14:00:31.000Z</time>
      </trkpt>
      <trkpt lat="43.68867" lon="3.73374">
        <ele>183</ele>
        <time>2012-02-04T14:00:36.000Z</time>
      </trkpt>
      <trkpt lat="43.68863" lon="3.7336">
        <ele>184.39999389648</ele>
        <time>2012-02-04T14:00:42.000Z</time>
      </trkpt>
      <trkpt lat="43.68858" lon="3.73347">
        <ele>185.80000305176</ele>
        <time>2012-02-04T14:00:48.000Z</time>
      </trkpt>
      <trkpt lat="43.68855" lon="3.73333">
        <ele>187.19999694824</ele>
        <time>2012-02-04T14:00:54.000Z</time>
      </trkpt>
      <trkpt lat="43.68853" lon="3.73321">
        <ele>188</ele>
        <time>2012-02-04T14:00:59.000Z</time>
      </trkpt>
      <trkpt lat="43.6885" lon="3.73312">
        <ele>188.60000610352</ele>
        <time>2012-02-04T14:01:03.000Z</time>
      </trkpt>
      <trkpt lat="43.68844" lon="3.73301">
        <ele>189.60000610352</ele>
        <time>2012-02-04T14:01:09.000Z</time>
      </trkpt>
      <trkpt lat="43.68836" lon="3.73296">
        <ele>190</ele>
        <time>2012-02-04T14:01:13.000Z</time>
      </trkpt>
      <trkpt lat="43.68828" lon="3.73294">
        <ele>189.60000610352</ele>
        <time>2012-02-04T14:01:16.000Z</time>
      </trkpt>
      <trkpt lat="43.68817" lon="3.73286">
        <ele>188.60000610352</ele>
        <time>2012-02-04T14:01:22.000Z</time>
      </trkpt>
      <trkpt lat="43.68806" lon="3.73282">
        <ele>187.39999389648</ele>
        <time>2012-02-04T14:01:27.000Z</time>
      </trkpt>
      <trkpt lat="43.68794" lon="3.73276">
        <ele>186.39999389648</ele>
        <time>2012-02-04T14:01:32.000Z</time>
      </trkpt>
      <trkpt lat="43.68783" lon="3.73269">
        <ele>185.39999389648</ele>
        <time>2012-02-04T14:01:37.000Z</time>
      </trkpt>
      <trkpt lat="43.68772" lon="3.73266">
        <ele>184.39999389648</ele>
        <time>2012-02-04T14:01:42.000Z</time>
      </trkpt>
      <trkpt lat="43.68761" lon="3.73262">
        <ele>183.19999694824</ele>
        <time>2012-02-04T14:01:47.000Z</time>
      </trkpt>
      <trkpt lat="43.68752" lon="3.73258">
        <ele>182.39999389648</ele>
        <time>2012-02-04T14:01:52.000Z</time>
      </trkpt>
      <trkpt lat="43.68741" lon="3.73256">
        <ele>182.39999389648</ele>
        <time>2012-02-04T14:01:57.000Z</time>
      </trkpt>
      <trkpt lat="43.68739" lon="3.73255">
        <ele>182.39999389648</ele>
        <time>2012-02-04T14:01:58.000Z</time>
      </trkpt>
      <trkpt lat="43.6872" lon="3.73256">
        <ele>182.39999389648</ele>
        <time>2012-02-04T14:02:06.000Z</time>
      </trkpt>
      <trkpt lat="43.68707" lon="3.73256">
        <ele>182.39999389648</ele>
        <time>2012-02-04T14:02:12.000Z</time>
      </trkpt>
      <trkpt lat="43.68692" lon="3.73257">
        <ele>182.19999694824</ele>
        <time>2012-02-04T14:02:19.000Z</time>
      </trkpt>
      <trkpt lat="43.68675" lon="3.73258">
        <ele>182</ele>
        <time>2012-02-04T14:02:26.000Z</time>
      </trkpt>
      <trkpt lat="43.68662" lon="3.73256">
        <ele>182.39999389648</ele>
        <time>2012-02-04T14:02:32.000Z</time>
      </trkpt>
      <trkpt lat="43.68652" lon="3.73254">
        <ele>183.39999389648</ele>
        <time>2012-02-04T14:02:37.000Z</time>
      </trkpt>
      <trkpt lat="43.68641" lon="3.73248">
        <ele>184.39999389648</ele>
        <time>2012-02-04T14:02:43.000Z</time>
      </trkpt>
      <trkpt lat="43.68632" lon="3.73248">
        <ele>184.80000305176</ele>
        <time>2012-02-04T14:02:47.000Z</time>
      </trkpt>
      <trkpt lat="43.68625" lon="3.73247">
        <ele>185</ele>
        <time>2012-02-04T14:02:50.000Z</time>
      </trkpt>
      <trkpt lat="43.68611" lon="3.73246">
        <ele>185.80000305176</ele>
        <time>2012-02-04T14:02:57.000Z</time>
      </trkpt>
      <trkpt lat="43.68601" lon="3.73245">
        <ele>186.19999694824</ele>
        <time>2012-02-04T14:03:01.000Z</time>
      </trkpt>
      <trkpt lat="43.6859" lon="3.73245">
        <ele>186.80000305176</ele>
        <time>2012-02-04T14:03:06.000Z</time>
      </trkpt>
      <trkpt lat="43.68574" lon="3.73241">
        <ele>186.60000610352</ele>
        <time>2012-02-04T14:03:13.000Z</time>
      </trkpt>
      <trkpt lat="43.68562" lon="3.73241">
        <ele>186.60000610352</ele>
        <time>2012-02-04T14:03:19.000Z</time>
      </trkpt>
      <trkpt lat="43.6855" lon="3.73243">
        <ele>187</ele>
        <time>2012-02-04T14:03:24.000Z</time>
      </trkpt>
      <trkpt lat="43.68539" lon="3.73245">
        <ele>187.19999694824</ele>
        <time>2012-02-04T14:03:29.000Z</time>
      </trkpt>
      <trkpt lat="43.68525" lon="3.7325">
        <ele>188</ele>
        <time>2012-02-04T14:03:35.000Z</time>
      </trkpt>
      <trkpt lat="43.68511" lon="3.73255">
        <ele>187.39999389648</ele>
        <time>2012-02-04T14:03:41.000Z</time>
      </trkpt>
      <trkpt lat="43.68499" lon="3.73256">
        <ele>187.19999694824</ele>
        <time>2012-02-04T14:03:46.000Z</time>
      </trkpt>
      <trkpt lat="43.68487" lon="3.73253">
        <ele>186.80000305176</ele>
        <time>2012-02-04T14:03:51.000Z</time>
      </trkpt>
      <trkpt lat="43.68475" lon="3.73249">
        <ele>186.39999389648</ele>
        <time>2012-02-04T14:03:56.000Z</time>
      </trkpt>
      <trkpt lat="43.68464" lon="3.73248">
        <ele>185.60000610352</ele>
        <time>2012-02-04T14:04:01.000Z</time>
      </trkpt>
      <trkpt lat="43.68451" lon="3.73254">
        <ele>184.60000610352</ele>
        <time>2012-02-04T14:04:07.000Z</time>
      </trkpt>
      <trkpt lat="43.68442" lon="3.73264">
        <ele>183.19999694824</ele>
        <time>2012-02-04T14:04:12.000Z</time>
      </trkpt>
      <trkpt lat="43.6843" lon="3.73267">
        <ele>182.39999389648</ele>
        <time>2012-02-04T14:04:18.000Z</time>
      </trkpt>
      <trkpt lat="43.68425" lon="3.73268">
        <ele>182.19999694824</ele>
        <time>2012-02-04T14:04:26.000Z</time>
      </trkpt>
      <trkpt lat="43.68418" lon="3.73269">
        <ele>181.60000610352</ele>
        <time>2012-02-04T14:04:29.000Z</time>
      </trkpt>
      <trkpt lat="43.68412" lon="3.73268">
        <ele>181.39999389648</ele>
        <time>2012-02-04T14:04:35.000Z</time>
      </trkpt>
      <trkpt lat="43.68409" lon="3.7327">
        <ele>181</ele>
        <time>2012-02-04T14:04:44.000Z</time>
      </trkpt>
      <trkpt lat="43.68398" lon="3.73273">
        <ele>180.19999694824</ele>
        <time>2012-02-04T14:04:48.000Z</time>
      </trkpt>
      <trkpt lat="43.68384" lon="3.73279">
        <ele>179.19999694824</ele>
        <time>2012-02-04T14:04:54.000Z</time>
      </trkpt>
      <trkpt lat="43.68369" lon="3.73286">
        <ele>178.60000610352</ele>
        <time>2012-02-04T14:05:01.000Z</time>
      </trkpt>
      <trkpt lat="43.68353" lon="3.7329">
        <ele>178.39999389648</ele>
        <time>2012-02-04T14:05:08.000Z</time>
      </trkpt>
      <trkpt lat="43.68343" lon="3.73293">
        <ele>178.39999389648</ele>
        <time>2012-02-04T14:05:13.000Z</time>
      </trkpt>
      <trkpt lat="43.68333" lon="3.73289">
        <ele>177.80000305176</ele>
        <time>2012-02-04T14:05:18.000Z</time>
      </trkpt>
      <trkpt lat="43.68327" lon="3.73295">
        <ele>178.19999694824</ele>
        <time>2012-02-04T14:05:22.000Z</time>
      </trkpt>
      <trkpt lat="43.68319" lon="3.73309">
        <ele>179.60000610352</ele>
        <time>2012-02-04T14:05:28.000Z</time>
      </trkpt>
      <trkpt lat="43.68307" lon="3.73315">
        <ele>180.39999389648</ele>
        <time>2012-02-04T14:05:34.000Z</time>
      </trkpt>
      <trkpt lat="43.68295" lon="3.73325">
        <ele>182</ele>
        <time>2012-02-04T14:05:40.000Z</time>
      </trkpt>
      <trkpt lat="43.68291" lon="3.73327">
        <ele>182.60000610352</ele>
        <time>2012-02-04T14:05:45.000Z</time>
      </trkpt>
      <trkpt lat="43.6829" lon="3.73328">
        <ele>182.60000610352</ele>
        <time>2012-02-04T14:05:54.000Z</time>
      </trkpt>
      <trkpt lat="43.68279" lon="3.73333">
        <ele>183.80000305176</ele>
        <time>2012-02-04T14:05:59.000Z</time>
      </trkpt>
      <trkpt lat="43.6827" lon="3.73336">
        <ele>183.80000305176</ele>
        <time>2012-02-04T14:06:03.000Z</time>
      </trkpt>
      <trkpt lat="43.68255" lon="3.73338">
        <ele>184.19999694824</ele>
        <time>2012-02-04T14:06:10.000Z</time>
      </trkpt>
      <trkpt lat="43.68241" lon="3.73338">
        <ele>185</ele>
        <time>2012-02-04T14:06:16.000Z</time>
      </trkpt>
      <trkpt lat="43.68226" lon="3.7334">
        <ele>185.80000305176</ele>
        <time>2012-02-04T14:06:22.000Z</time>
      </trkpt>
      <trkpt lat="43.68214" lon="3.73337">
        <ele>186.80000305176</ele>
        <time>2012-02-04T14:06:27.000Z</time>
      </trkpt>
      <trkpt lat="43.68203" lon="3.73336">
        <ele>187.60000610352</ele>
        <time>2012-02-04T14:06:32.000Z</time>
      </trkpt>
      <trkpt lat="43.68192" lon="3.73338">
        <ele>188</ele>
        <time>2012-02-04T14:06:37.000Z</time>
      </trkpt>
      <trkpt lat="43.68181" lon="3.73337">
        <ele>188.60000610352</ele>
        <time>2012-02-04T14:06:42.000Z</time>
      </trkpt>
      <trkpt lat="43.6817" lon="3.73337">
        <ele>189.39999389648</ele>
        <time>2012-02-04T14:06:47.000Z</time>
      </trkpt>
      <trkpt lat="43.68159" lon="3.73337">
        <ele>189.60000610352</ele>
        <time>2012-02-04T14:06:52.000Z</time>
      </trkpt>
      <trkpt lat="43.68147" lon="3.73337">
        <ele>189.60000610352</ele>
        <time>2012-02-04T14:06:57.000Z</time>
      </trkpt>
      <trkpt lat="43.68134" lon="3.73338">
        <ele>189.39999389648</ele>
        <time>2012-02-04T14:07:03.000Z</time>
      </trkpt>
      <trkpt lat="43.68121" lon="3.73334">
        <ele>190</ele>
        <time>2012-02-04T14:07:08.000Z</time>
      </trkpt>
      <trkpt lat="43.6811" lon="3.73332">
        <ele>189.80000305176</ele>
        <time>2012-02-04T14:07:13.000Z</time>
      </trkpt>
      <trkpt lat="43.68097" lon="3.73339">
        <ele>189.19999694824</ele>
        <time>2012-02-04T14:07:19.000Z</time>
      </trkpt>
      <trkpt lat="43.68086" lon="3.73349">
        <ele>187.80000305176</ele>
        <time>2012-02-04T14:07:24.000Z</time>
      </trkpt>
      <trkpt lat="43.68074" lon="3.73351">
        <ele>187.19999694824</ele>
        <time>2012-02-04T14:07:29.000Z</time>
      </trkpt>
      <trkpt lat="43.68059" lon="3.73347">
        <ele>187.39999389648</ele>
        <time>2012-02-04T14:07:35.000Z</time>
      </trkpt>
      <trkpt lat="43.6805" lon="3.73348">
        <ele>187</ele>
        <time>2012-02-04T14:07:39.000Z</time>
      </trkpt>
      <trkpt lat="43.68036" lon="3.73354">
        <ele>186</ele>
        <time>2012-02-04T14:07:45.000Z</time>
      </trkpt>
      <trkpt lat="43.68022" lon="3.73353">
        <ele>185.80000305176</ele>
        <time>2012-02-04T14:07:51.000Z</time>
      </trkpt>
      <trkpt lat="43.6801" lon="3.73354">
        <ele>185.39999389648</ele>
        <time>2012-02-04T14:07:56.000Z</time>
      </trkpt>
      <trkpt lat="43.68001" lon="3.73357">
        <ele>185.19999694824</ele>
        <time>2012-02-04T14:08:00.000Z</time>
      </trkpt>
      <trkpt lat="43.67987" lon="3.73357">
        <ele>185.39999389648</ele>
        <time>2012-02-04T14:08:06.000Z</time>
      </trkpt>
      <trkpt lat="43.67973" lon="3.73358">
        <ele>185.60000610352</ele>
        <time>2012-02-04T14:08:12.000Z</time>
      </trkpt>
      <trkpt lat="43.67959" lon="3.73361">
        <ele>185.60000610352</ele>
        <time>2012-02-04T14:08:18.000Z</time>
      </trkpt>
      <trkpt lat="43.67949" lon="3.73361">
        <ele>185.80000305176</ele>
        <time>2012-02-04T14:08:23.000Z</time>
      </trkpt>
      <trkpt lat="43.67947" lon="3.7336">
        <ele>185.80000305176</ele>
        <time>2012-02-04T14:08:30.000Z</time>
      </trkpt>
      <trkpt lat="43.67945" lon="3.73359">
        <ele>186</ele>
        <time>2012-02-04T14:08:40.000Z</time>
      </trkpt>
      <trkpt lat="43.67933" lon="3.73361">
        <ele>186</ele>
        <time>2012-02-04T14:08:46.000Z</time>
      </trkpt>
      <trkpt lat="43.6793" lon="3.73362">
        <ele>186</ele>
        <time>2012-02-04T14:08:47.000Z</time>
      </trkpt>
      <trkpt lat="43.67916" lon="3.73371">
        <ele>186.19999694824</ele>
        <time>2012-02-04T14:08:53.000Z</time>
      </trkpt>
      <trkpt lat="43.67902" lon="3.73377">
        <ele>186.19999694824</ele>
        <time>2012-02-04T14:08:58.000Z</time>
      </trkpt>
      <trkpt lat="43.67888" lon="3.73378">
        <ele>186.19999694824</ele>
        <time>2012-02-04T14:09:04.000Z</time>
      </trkpt>
      <trkpt lat="43.67876" lon="3.7338">
        <ele>186.19999694824</ele>
        <time>2012-02-04T14:09:10.000Z</time>
      </trkpt>
      <trkpt lat="43.67871" lon="3.73381">
        <ele>186.19999694824</ele>
        <time>2012-02-04T14:09:16.000Z</time>
      </trkpt>
      <trkpt lat="43.67865" lon="3.73382">
        <ele>186.19999694824</ele>
        <time>2012-02-04T14:09:23.000Z</time>
      </trkpt>
      <trkpt lat="43.67854" lon="3.73378">
        <ele>186.60000610352</ele>
        <time>2012-02-04T14:09:28.000Z</time>
      </trkpt>
      <trkpt lat="43.67852" lon="3.73376">
        <ele>186.60000610352</ele>
        <time>2012-02-04T14:09:29.000Z</time>
      </trkpt>
      <trkpt lat="43.67849" lon="3.73372">
        <ele>187</ele>
        <time>2012-02-04T14:09:33.000Z</time>
      </trkpt>
      <trkpt lat="43.67845" lon="3.73366">
        <ele>187.60000610352</ele>
        <time>2012-02-04T14:09:38.000Z</time>
      </trkpt>
      <trkpt lat="43.67841" lon="3.73362">
        <ele>188</ele>
        <time>2012-02-04T14:09:54.000Z</time>
      </trkpt>
      <trkpt lat="43.67833" lon="3.73356">
        <ele>188.80000305176</ele>
        <time>2012-02-04T14:09:59.000Z</time>
      </trkpt>
      <trkpt lat="43.67822" lon="3.73346">
        <ele>188.19999694824</ele>
        <time>2012-02-04T14:10:05.000Z</time>
      </trkpt>
      <trkpt lat="43.67806" lon="3.73338">
        <ele>186.60000610352</ele>
        <time>2012-02-04T14:10:12.000Z</time>
      </trkpt>
      <trkpt lat="43.67794" lon="3.73331">
        <ele>185</ele>
        <time>2012-02-04T14:10:17.000Z</time>
      </trkpt>
      <trkpt lat="43.67784" lon="3.73327">
        <ele>183</ele>
        <time>2012-02-04T14:10:21.000Z</time>
      </trkpt>
      <trkpt lat="43.67768" lon="3.73328">
        <ele>181</ele>
        <time>2012-02-04T14:10:27.000Z</time>
      </trkpt>
      <trkpt lat="43.67756" lon="3.7333">
        <ele>179.39999389648</ele>
        <time>2012-02-04T14:10:32.000Z</time>
      </trkpt>
      <trkpt lat="43.67746" lon="3.73324">
        <ele>177</ele>
        <time>2012-02-04T14:10:36.000Z</time>
      </trkpt>
      <trkpt lat="43.67734" lon="3.73316">
        <ele>173.60000610352</ele>
        <time>2012-02-04T14:10:41.000Z</time>
      </trkpt>
      <trkpt lat="43.67726" lon="3.73304">
        <ele>170.80000305176</ele>
        <time>2012-02-04T14:10:46.000Z</time>
      </trkpt>
      <trkpt lat="43.67717" lon="3.7329">
        <ele>168.19999694824</ele>
        <time>2012-02-04T14:10:52.000Z</time>
      </trkpt>
      <trkpt lat="43.67706" lon="3.73277">
        <ele>165.80000305176</ele>
        <time>2012-02-04T14:10:58.000Z</time>
      </trkpt>
      <trkpt lat="43.67695" lon="3.73267">
        <ele>163.80000305176</ele>
        <time>2012-02-04T14:11:03.000Z</time>
      </trkpt>
      <trkpt lat="43.67684" lon="3.73259">
        <ele>162.19999694824</ele>
        <time>2012-02-04T14:11:08.000Z</time>
      </trkpt>
      <trkpt lat="43.6767" lon="3.73253">
        <ele>160.39999389648</ele>
        <time>2012-02-04T14:11:14.000Z</time>
      </trkpt>
      <trkpt lat="43.67655" lon="3.73248">
        <ele>157.80000305176</ele>
        <time>2012-02-04T14:11:20.000Z</time>
      </trkpt>
      <trkpt lat="43.67641" lon="3.73239">
        <ele>155</ele>
        <time>2012-02-04T14:11:26.000Z</time>
      </trkpt>
      <trkpt lat="43.67629" lon="3.73229">
        <ele>152.80000305176</ele>
        <time>2012-02-04T14:11:31.000Z</time>
      </trkpt>
      <trkpt lat="43.67616" lon="3.73219">
        <ele>150.39999389648</ele>
        <time>2012-02-04T14:11:37.000Z</time>
      </trkpt>
      <trkpt lat="43.676" lon="3.73206">
        <ele>148</ele>
        <time>2012-02-04T14:11:44.000Z</time>
      </trkpt>
      <trkpt lat="43.6759" lon="3.73193">
        <ele>146.80000305176</ele>
        <time>2012-02-04T14:11:49.000Z</time>
      </trkpt>
      <trkpt lat="43.67579" lon="3.73186">
        <ele>145.39999389648</ele>
        <time>2012-02-04T14:11:54.000Z</time>
      </trkpt>
      <trkpt lat="43.67567" lon="3.73191">
        <ele>143.60000610352</ele>
        <time>2012-02-04T14:11:59.000Z</time>
      </trkpt>
      <trkpt lat="43.67553" lon="3.73199">
        <ele>141.39999389648</ele>
        <time>2012-02-04T14:12:05.000Z</time>
      </trkpt>
      <trkpt lat="43.67538" lon="3.73203">
        <ele>139.19999694824</ele>
        <time>2012-02-04T14:12:11.000Z</time>
      </trkpt>
      <trkpt lat="43.67523" lon="3.73209">
        <ele>137</ele>
        <time>2012-02-04T14:12:17.000Z</time>
      </trkpt>
      <trkpt lat="43.67515" lon="3.73221">
        <ele>135.60000610352</ele>
        <time>2012-02-04T14:12:22.000Z</time>
      </trkpt>
      <trkpt lat="43.67512" lon="3.73227">
        <ele>135</ele>
        <time>2012-02-04T14:12:24.000Z</time>
      </trkpt>
      <trkpt lat="43.67502" lon="3.73225">
        <ele>133.60000610352</ele>
        <time>2012-02-04T14:12:28.000Z</time>
      </trkpt>
      <trkpt lat="43.67488" lon="3.7321">
        <ele>130.60000610352</ele>
        <time>2012-02-04T14:12:35.000Z</time>
      </trkpt>
      <trkpt lat="43.67489" lon="3.7319">
        <ele>131</ele>
        <time>2012-02-04T14:12:41.000Z</time>
      </trkpt>
      <trkpt lat="43.67491" lon="3.73171">
        <ele>131.60000610352</ele>
        <time>2012-02-04T14:12:47.000Z</time>
      </trkpt>
      <trkpt lat="43.67493" lon="3.73152">
        <ele>131.60000610352</ele>
        <time>2012-02-04T14:12:52.000Z</time>
      </trkpt>
      <trkpt lat="43.67494" lon="3.73135">
        <ele>131.19999694824</ele>
        <time>2012-02-04T14:12:57.000Z</time>
      </trkpt>
      <trkpt lat="43.67498" lon="3.73119">
        <ele>131.19999694824</ele>
        <time>2012-02-04T14:13:02.000Z</time>
      </trkpt>
      <trkpt lat="43.67499" lon="3.73116">
        <ele>131.19999694824</ele>
        <time>2012-02-04T14:13:03.000Z</time>
      </trkpt>
      <trkpt lat="43.67499" lon="3.73095">
        <ele>130.39999389648</ele>
        <time>2012-02-04T14:13:09.000Z</time>
      </trkpt>
      <trkpt lat="43.675" lon="3.73092">
        <ele>130.39999389648</ele>
        <time>2012-02-04T14:13:10.000Z</time>
      </trkpt>
      <trkpt lat="43.67503" lon="3.73068">
        <ele>130.19999694824</ele>
        <time>2012-02-04T14:13:17.000Z</time>
      </trkpt>
      <trkpt lat="43.67503" lon="3.73051">
        <ele>130</ele>
        <time>2012-02-04T14:13:21.000Z</time>
      </trkpt>
      <trkpt lat="43.67494" lon="3.73035">
        <ele>128.39999389648</ele>
        <time>2012-02-04T14:13:27.000Z</time>
      </trkpt>
      <trkpt lat="43.67478" lon="3.73022">
        <ele>126.40000152588</ele>
        <time>2012-02-04T14:13:34.000Z</time>
      </trkpt>
      <trkpt lat="43.67464" lon="3.73012">
        <ele>125.19999694824</ele>
        <time>2012-02-04T14:13:40.000Z</time>
      </trkpt>
      <trkpt lat="43.6745" lon="3.73004">
        <ele>124</ele>
        <time>2012-02-04T14:13:46.000Z</time>
      </trkpt>
      <trkpt lat="43.67438" lon="3.73">
        <ele>123</ele>
        <time>2012-02-04T14:13:51.000Z</time>
      </trkpt>
      <trkpt lat="43.67423" lon="3.72995">
        <ele>121.40000152588</ele>
        <time>2012-02-04T14:13:57.000Z</time>
      </trkpt>
      <trkpt lat="43.67406" lon="3.72987">
        <ele>120</ele>
        <time>2012-02-04T14:14:04.000Z</time>
      </trkpt>
      <trkpt lat="43.67393" lon="3.72983">
        <ele>119.19999694824</ele>
        <time>2012-02-04T14:14:09.000Z</time>
      </trkpt>
      <trkpt lat="43.67378" lon="3.72975">
        <ele>118.19999694824</ele>
        <time>2012-02-04T14:14:15.000Z</time>
      </trkpt>
      <trkpt lat="43.67364" lon="3.72968">
        <ele>117.40000152588</ele>
        <time>2012-02-04T14:14:21.000Z</time>
      </trkpt>
      <trkpt lat="43.67352" lon="3.72961">
        <ele>116.80000305176</ele>
        <time>2012-02-04T14:14:26.000Z</time>
      </trkpt>
      <trkpt lat="43.67339" lon="3.72949">
        <ele>116.19999694824</ele>
        <time>2012-02-04T14:14:32.000Z</time>
      </trkpt>
      <trkpt lat="43.67329" lon="3.72938">
        <ele>115.40000152588</ele>
        <time>2012-02-04T14:14:37.000Z</time>
      </trkpt>
      <trkpt lat="43.67315" lon="3.72929">
        <ele>113.80000305176</ele>
        <time>2012-02-04T14:14:43.000Z</time>
      </trkpt>
      <trkpt lat="43.67304" lon="3.72923">
        <ele>112.19999694824</ele>
        <time>2012-02-04T14:14:48.000Z</time>
      </trkpt>
      <trkpt lat="43.67294" lon="3.72921">
        <ele>110.80000305176</ele>
        <time>2012-02-04T14:14:53.000Z</time>
      </trkpt>
      <trkpt lat="43.67293" lon="3.72922">
        <ele>110.80000305176</ele>
        <time>2012-02-04T14:14:58.000Z</time>
      </trkpt>
      <trkpt lat="43.67289" lon="3.72923">
        <ele>110.19999694824</ele>
        <time>2012-02-04T14:15:02.000Z</time>
      </trkpt>
      <trkpt lat="43.67272" lon="3.7292">
        <ele>108</ele>
        <time>2012-02-04T14:15:09.000Z</time>
      </trkpt>
      <trkpt lat="43.67258" lon="3.72921">
        <ele>106.19999694824</ele>
        <time>2012-02-04T14:15:15.000Z</time>
      </trkpt>
      <trkpt lat="43.67246" lon="3.72918">
        <ele>104.80000305176</ele>
        <time>2012-02-04T14:15:20.000Z</time>
      </trkpt>
      <trkpt lat="43.67244" lon="3.72917">
        <ele>104.80000305176</ele>
        <time>2012-02-04T14:15:21.000Z</time>
      </trkpt>
      <trkpt lat="43.67242" lon="3.72904">
        <ele>103.80000305176</ele>
        <time>2012-02-04T14:15:26.000Z</time>
      </trkpt>
      <trkpt lat="43.67243" lon="3.72902">
        <ele>103.59999847412</ele>
        <time>2012-02-04T14:15:27.000Z</time>
      </trkpt>
      <trkpt lat="43.67253" lon="3.72887">
        <ele>102.80000305176</ele>
        <time>2012-02-04T14:15:33.000Z</time>
      </trkpt>
      <trkpt lat="43.67262" lon="3.72875">
        <ele>102.59999847412</ele>
        <time>2012-02-04T14:15:38.000Z</time>
      </trkpt>
      <trkpt lat="43.67274" lon="3.72862">
        <ele>102.40000152588</ele>
        <time>2012-02-04T14:15:44.000Z</time>
      </trkpt>
      <trkpt lat="43.67285" lon="3.72852">
        <ele>102</ele>
        <time>2012-02-04T14:15:49.000Z</time>
      </trkpt>
      <trkpt lat="43.67297" lon="3.72844">
        <ele>101.59999847412</ele>
        <time>2012-02-04T14:15:54.000Z</time>
      </trkpt>
      <trkpt lat="43.67303" lon="3.72833">
        <ele>100.59999847412</ele>
        <time>2012-02-04T14:15:58.000Z</time>
      </trkpt>
      <trkpt lat="43.67305" lon="3.7283">
        <ele>100.59999847412</ele>
        <time>2012-02-04T14:15:59.000Z</time>
      </trkpt>
      <trkpt lat="43.67313" lon="3.72826">
        <ele>100.80000305176</ele>
        <time>2012-02-04T14:16:03.000Z</time>
      </trkpt>
      <trkpt lat="43.67325" lon="3.72824">
        <ele>101.19999694824</ele>
        <time>2012-02-04T14:16:08.000Z</time>
      </trkpt>
      <trkpt lat="43.67337" lon="3.72821">
        <ele>101.40000152588</ele>
        <time>2012-02-04T14:16:13.000Z</time>
      </trkpt>
      <trkpt lat="43.67351" lon="3.7282">
        <ele>101.80000305176</ele>
        <time>2012-02-04T14:16:19.000Z</time>
      </trkpt>
      <trkpt lat="43.67365" lon="3.72821">
        <ele>102.19999694824</ele>
        <time>2012-02-04T14:16:25.000Z</time>
      </trkpt>
      <trkpt lat="43.67377" lon="3.72822">
        <ele>102.40000152588</ele>
        <time>2012-02-04T14:16:30.000Z</time>
      </trkpt>
      <trkpt lat="43.67395" lon="3.72823">
        <ele>102.80000305176</ele>
        <time>2012-02-04T14:16:37.000Z</time>
      </trkpt>
      <trkpt lat="43.67413" lon="3.72821">
        <ele>103.19999694824</ele>
        <time>2012-02-04T14:16:44.000Z</time>
      </trkpt>
      <trkpt lat="43.67428" lon="3.72819">
        <ele>103</ele>
        <time>2012-02-04T14:16:50.000Z</time>
      </trkpt>
      <trkpt lat="43.67443" lon="3.72818">
        <ele>102.80000305176</ele>
        <time>2012-02-04T14:16:56.000Z</time>
      </trkpt>
      <trkpt lat="43.67457" lon="3.72819">
        <ele>102.59999847412</ele>
        <time>2012-02-04T14:17:02.000Z</time>
      </trkpt>
      <trkpt lat="43.67472" lon="3.72819">
        <ele>102.40000152588</ele>
        <time>2012-02-04T14:17:08.000Z</time>
      </trkpt>
      <trkpt lat="43.67484" lon="3.7282">
        <ele>102.40000152588</ele>
        <time>2012-02-04T14:17:13.000Z</time>
      </trkpt>
      <trkpt lat="43.67502" lon="3.7282">
        <ele>102.19999694824</ele>
        <time>2012-02-04T14:17:20.000Z</time>
      </trkpt>
      <trkpt lat="43.67518" lon="3.72821">
        <ele>102.40000152588</ele>
        <time>2012-02-04T14:17:27.000Z</time>
      </trkpt>
      <trkpt lat="43.6753" lon="3.72821">
        <ele>102.59999847412</ele>
        <time>2012-02-04T14:17:32.000Z</time>
      </trkpt>
      <trkpt lat="43.67545" lon="3.72822">
        <ele>102.59999847412</ele>
        <time>2012-02-04T14:17:38.000Z</time>
      </trkpt>
      <trkpt lat="43.67562" lon="3.72824">
        <ele>103</ele>
        <time>2012-02-04T14:17:45.000Z</time>
      </trkpt>
      <trkpt lat="43.67573" lon="3.72821">
        <ele>102.80000305176</ele>
        <time>2012-02-04T14:17:50.000Z</time>
      </trkpt>
      <trkpt lat="43.67589" lon="3.72818">
        <ele>102.59999847412</ele>
        <time>2012-02-04T14:17:57.000Z</time>
      </trkpt>
      <trkpt lat="43.67603" lon="3.72822">
        <ele>102.59999847412</ele>
        <time>2012-02-04T14:18:03.000Z</time>
      </trkpt>
      <trkpt lat="43.67616" lon="3.72826">
        <ele>102.80000305176</ele>
        <time>2012-02-04T14:18:09.000Z</time>
      </trkpt>
      <trkpt lat="43.6763" lon="3.72831">
        <ele>102.80000305176</ele>
        <time>2012-02-04T14:18:15.000Z</time>
      </trkpt>
      <trkpt lat="43.67646" lon="3.72837">
        <ele>103.19999694824</ele>
        <time>2012-02-04T14:18:22.000Z</time>
      </trkpt>
      <trkpt lat="43.67658" lon="3.72842">
        <ele>103.80000305176</ele>
        <time>2012-02-04T14:18:28.000Z</time>
      </trkpt>
      <trkpt lat="43.67669" lon="3.7285">
        <ele>104.80000305176</ele>
        <time>2012-02-04T14:18:34.000Z</time>
      </trkpt>
      <trkpt lat="43.67681" lon="3.72857">
        <ele>105.40000152588</ele>
        <time>2012-02-04T14:18:40.000Z</time>
      </trkpt>
      <trkpt lat="43.67693" lon="3.72865">
        <ele>105.80000305176</ele>
        <time>2012-02-04T14:18:46.000Z</time>
      </trkpt>
      <trkpt lat="43.67707" lon="3.72875">
        <ele>106.40000152588</ele>
        <time>2012-02-04T14:18:53.000Z</time>
      </trkpt>
      <trkpt lat="43.67718" lon="3.72884">
        <ele>106.59999847412</ele>
        <time>2012-02-04T14:18:59.000Z</time>
      </trkpt>
      <trkpt lat="43.67728" lon="3.7289">
        <ele>106.59999847412</ele>
        <time>2012-02-04T14:19:04.000Z</time>
      </trkpt>
      <trkpt lat="43.67742" lon="3.72895">
        <ele>105.80000305176</ele>
        <time>2012-02-04T14:19:10.000Z</time>
      </trkpt>
      <trkpt lat="43.67755" lon="3.72896">
        <ele>105.40000152588</ele>
        <time>2012-02-04T14:19:16.000Z</time>
      </trkpt>
      <trkpt lat="43.67769" lon="3.72898">
        <ele>106.19999694824</ele>
        <time>2012-02-04T14:19:22.000Z</time>
      </trkpt>
      <trkpt lat="43.67786" lon="3.72899">
        <ele>106.80000305176</ele>
        <time>2012-02-04T14:19:29.000Z</time>
      </trkpt>
      <trkpt lat="43.67802" lon="3.72901">
        <ele>107.59999847412</ele>
        <time>2012-02-04T14:19:36.000Z</time>
      </trkpt>
      <trkpt lat="43.67817" lon="3.72901">
        <ele>108.19999694824</ele>
        <time>2012-02-04T14:19:42.000Z</time>
      </trkpt>
      <trkpt lat="43.67834" lon="3.72902">
        <ele>109</ele>
        <time>2012-02-04T14:19:49.000Z</time>
      </trkpt>
      <trkpt lat="43.67851" lon="3.72904">
        <ele>108.59999847412</ele>
        <time>2012-02-04T14:19:56.000Z</time>
      </trkpt>
      <trkpt lat="43.67865" lon="3.72906">
        <ele>108.40000152588</ele>
        <time>2012-02-04T14:20:02.000Z</time>
      </trkpt>
      <trkpt lat="43.67881" lon="3.72904">
        <ele>108</ele>
        <time>2012-02-04T14:20:09.000Z</time>
      </trkpt>
      <trkpt lat="43.67895" lon="3.72905">
        <ele>107.59999847412</ele>
        <time>2012-02-04T14:20:15.000Z</time>
      </trkpt>
      <trkpt lat="43.67906" lon="3.72903">
        <ele>107.40000152588</ele>
        <time>2012-02-04T14:20:20.000Z</time>
      </trkpt>
      <trkpt lat="43.67915" lon="3.72903">
        <ele>107.19999694824</ele>
        <time>2012-02-04T14:20:25.000Z</time>
      </trkpt>
      <trkpt lat="43.67922" lon="3.72904">
        <ele>107.19999694824</ele>
        <time>2012-02-04T14:20:29.000Z</time>
      </trkpt>
      <trkpt lat="43.67927" lon="3.729">
        <ele>107.19999694824</ele>
        <time>2012-02-04T14:20:33.000Z</time>
      </trkpt>
      <trkpt lat="43.6793" lon="3.72885">
        <ele>107.59999847412</ele>
        <time>2012-02-04T14:20:39.000Z</time>
      </trkpt>
      <trkpt lat="43.67932" lon="3.72875">
        <ele>107.80000305176</ele>
        <time>2012-02-04T14:20:44.000Z</time>
      </trkpt>
      <trkpt lat="43.6793" lon="3.72864">
        <ele>108</ele>
        <time>2012-02-04T14:20:49.000Z</time>
      </trkpt>
      <trkpt lat="43.67928" lon="3.7285">
        <ele>108.19999694824</ele>
        <time>2012-02-04T14:20:55.000Z</time>
      </trkpt>
      <trkpt lat="43.67927" lon="3.72839">
        <ele>108.40000152588</ele>
        <time>2012-02-04T14:21:00.000Z</time>
      </trkpt>
      <trkpt lat="43.67925" lon="3.72826">
        <ele>108.80000305176</ele>
        <time>2012-02-04T14:21:05.000Z</time>
      </trkpt>
      <trkpt lat="43.67925" lon="3.72825">
        <ele>108.80000305176</ele>
        <time>2012-02-04T14:21:06.000Z</time>
      </trkpt>
      <trkpt lat="43.67923" lon="3.7282">
        <ele>109</ele>
        <time>2012-02-04T14:21:09.000Z</time>
      </trkpt>
      <trkpt lat="43.67924" lon="3.72803">
        <ele>109.80000305176</ele>
        <time>2012-02-04T14:21:15.000Z</time>
      </trkpt>
      <trkpt lat="43.67927" lon="3.72794">
        <ele>110.40000152588</ele>
        <time>2012-02-04T14:21:21.000Z</time>
      </trkpt>
      <trkpt lat="43.67928" lon="3.72793">
        <ele>110.59999847412</ele>
        <time>2012-02-04T14:21:22.000Z</time>
      </trkpt>
      <trkpt lat="43.67933" lon="3.72779">
        <ele>111.59999847412</ele>
        <time>2012-02-04T14:21:30.000Z</time>
      </trkpt>
      <trkpt lat="43.67941" lon="3.72767">
        <ele>112.59999847412</ele>
        <time>2012-02-04T14:21:38.000Z</time>
      </trkpt>
      <trkpt lat="43.67948" lon="3.72759">
        <ele>113.40000152588</ele>
        <time>2012-02-04T14:21:44.000Z</time>
      </trkpt>
      <trkpt lat="43.67954" lon="3.72752">
        <ele>114</ele>
        <time>2012-02-04T14:21:50.000Z</time>
      </trkpt>
      <trkpt lat="43.67955" lon="3.72749">
        <ele>114.40000152588</ele>
        <time>2012-02-04T14:21:52.000Z</time>
      </trkpt>
      <trkpt lat="43.67964" lon="3.72741">
        <ele>115.59999847412</ele>
        <time>2012-02-04T14:21:59.000Z</time>
      </trkpt>
      <trkpt lat="43.67969" lon="3.72734">
        <ele>116.40000152588</ele>
        <time>2012-02-04T14:22:05.000Z</time>
      </trkpt>
      <trkpt lat="43.67977" lon="3.72728">
        <ele>117.40000152588</ele>
        <time>2012-02-04T14:22:12.000Z</time>
      </trkpt>
      <trkpt lat="43.67979" lon="3.72726">
        <ele>117.59999847412</ele>
        <time>2012-02-04T14:22:14.000Z</time>
      </trkpt>
      <trkpt lat="43.67982" lon="3.7272">
        <ele>118.19999694824</ele>
        <time>2012-02-04T14:22:19.000Z</time>
      </trkpt>
      <trkpt lat="43.67984" lon="3.72711">
        <ele>119</ele>
        <time>2012-02-04T14:22:25.000Z</time>
      </trkpt>
      <trkpt lat="43.67985" lon="3.72704">
        <ele>119.59999847412</ele>
        <time>2012-02-04T14:22:31.000Z</time>
      </trkpt>
      <trkpt lat="43.67988" lon="3.72687">
        <ele>121</ele>
        <time>2012-02-04T14:22:41.000Z</time>
      </trkpt>
      <trkpt lat="43.67989" lon="3.72681">
        <ele>121.59999847412</ele>
        <time>2012-02-04T14:22:44.000Z</time>
      </trkpt>
      <trkpt lat="43.6799" lon="3.72674">
        <ele>122</ele>
        <time>2012-02-04T14:22:49.000Z</time>
      </trkpt>
      <trkpt lat="43.67991" lon="3.72668">
        <ele>122.59999847412</ele>
        <time>2012-02-04T14:22:53.000Z</time>
      </trkpt>
      <trkpt lat="43.6799" lon="3.72663">
        <ele>123.19999694824</ele>
        <time>2012-02-04T14:23:02.000Z</time>
      </trkpt>
      <trkpt lat="43.6799" lon="3.72661">
        <ele>123.40000152588</ele>
        <time>2012-02-04T14:23:06.000Z</time>
      </trkpt>
      <trkpt lat="43.67991" lon="3.72653">
        <ele>124.40000152588</ele>
        <time>2012-02-04T14:23:10.000Z</time>
      </trkpt>
      <trkpt lat="43.67995" lon="3.72645">
        <ele>125.59999847412</ele>
        <time>2012-02-04T14:23:14.000Z</time>
      </trkpt>
      <trkpt lat="43.68002" lon="3.7264">
        <ele>126.40000152588</ele>
        <time>2012-02-04T14:23:18.000Z</time>
      </trkpt>
      <trkpt lat="43.68015" lon="3.72639">
        <ele>126</ele>
        <time>2012-02-04T14:23:24.000Z</time>
      </trkpt>
      <trkpt lat="43.6803" lon="3.72634">
        <ele>126</ele>
        <time>2012-02-04T14:23:30.000Z</time>
      </trkpt>
      <trkpt lat="43.68043" lon="3.72631">
        <ele>125.80000305176</ele>
        <time>2012-02-04T14:23:36.000Z</time>
      </trkpt>
      <trkpt lat="43.68057" lon="3.72628">
        <ele>125.40000152588</ele>
        <time>2012-02-04T14:23:42.000Z</time>
      </trkpt>
      <trkpt lat="43.68073" lon="3.72627">
        <ele>124.80000305176</ele>
        <time>2012-02-04T14:23:48.000Z</time>
      </trkpt>
      <trkpt lat="43.68084" lon="3.72616">
        <ele>125.19999694824</ele>
        <time>2012-02-04T14:23:54.000Z</time>
      </trkpt>
      <trkpt lat="43.68091" lon="3.72603">
        <ele>126.19999694824</ele>
        <time>2012-02-04T14:24:00.000Z</time>
      </trkpt>
      <trkpt lat="43.68093" lon="3.72593">
        <ele>126.80000305176</ele>
        <time>2012-02-04T14:24:04.000Z</time>
      </trkpt>
      <trkpt lat="43.68101" lon="3.72585">
        <ele>127</ele>
        <time>2012-02-04T14:24:09.000Z</time>
      </trkpt>
      <trkpt lat="43.68103" lon="3.72583">
        <ele>127</ele>
        <time>2012-02-04T14:24:10.000Z</time>
      </trkpt>
      <trkpt lat="43.6811" lon="3.72571">
        <ele>128.19999694824</ele>
        <time>2012-02-04T14:24:18.000Z</time>
      </trkpt>
      <trkpt lat="43.68113" lon="3.72565">
        <ele>128.60000610352</ele>
        <time>2012-02-04T14:24:26.000Z</time>
      </trkpt>
      <trkpt lat="43.6812" lon="3.72558">
        <ele>129.19999694824</ele>
        <time>2012-02-04T14:24:31.000Z</time>
      </trkpt>
      <trkpt lat="43.6812" lon="3.72557">
        <ele>129.19999694824</ele>
        <time>2012-02-04T14:24:32.000Z</time>
      </trkpt>
      <trkpt lat="43.68128" lon="3.72545">
        <ele>130</ele>
        <time>2012-02-04T14:24:38.000Z</time>
      </trkpt>
      <trkpt lat="43.68135" lon="3.72531">
        <ele>130.80000305176</ele>
        <time>2012-02-04T14:24:44.000Z</time>
      </trkpt>
      <trkpt lat="43.6814" lon="3.72521">
        <ele>131.19999694824</ele>
        <time>2012-02-04T14:24:48.000Z</time>
      </trkpt>
      <trkpt lat="43.68145" lon="3.7251">
        <ele>131.60000610352</ele>
        <time>2012-02-04T14:24:52.000Z</time>
      </trkpt>
      <trkpt lat="43.68148" lon="3.72507">
        <ele>131.60000610352</ele>
        <time>2012-02-04T14:24:54.000Z</time>
      </trkpt>
      <trkpt lat="43.68157" lon="3.72495">
        <ele>132</ele>
        <time>2012-02-04T14:25:00.000Z</time>
      </trkpt>
      <trkpt lat="43.68163" lon="3.72484">
        <ele>132.80000305176</ele>
        <time>2012-02-04T14:25:05.000Z</time>
      </trkpt>
      <trkpt lat="43.68171" lon="3.7247">
        <ele>135</ele>
        <time>2012-02-04T14:25:11.000Z</time>
      </trkpt>
      <trkpt lat="43.68178" lon="3.72457">
        <ele>137.80000305176</ele>
        <time>2012-02-04T14:25:17.000Z</time>
      </trkpt>
      <trkpt lat="43.68179" lon="3.72454">
        <ele>138.19999694824</ele>
        <time>2012-02-04T14:25:18.000Z</time>
      </trkpt>
      <trkpt lat="43.68185" lon="3.72443">
        <ele>140.39999389648</ele>
        <time>2012-02-04T14:25:24.000Z</time>
      </trkpt>
      <trkpt lat="43.68187" lon="3.72436">
        <ele>141.19999694824</ele>
        <time>2012-02-04T14:25:27.000Z</time>
      </trkpt>
      <trkpt lat="43.68192" lon="3.72422">
        <ele>143.39999389648</ele>
        <time>2012-02-04T14:25:36.000Z</time>
      </trkpt>
      <trkpt lat="43.68195" lon="3.72416">
        <ele>144</ele>
        <time>2012-02-04T14:25:40.000Z</time>
      </trkpt>
      <trkpt lat="43.68197" lon="3.72406">
        <ele>144.80000305176</ele>
        <time>2012-02-04T14:25:44.000Z</time>
      </trkpt>
      <trkpt lat="43.68199" lon="3.72394">
        <ele>145.80000305176</ele>
        <time>2012-02-04T14:25:48.000Z</time>
      </trkpt>
      <trkpt lat="43.68204" lon="3.72384">
        <ele>146.39999389648</ele>
        <time>2012-02-04T14:25:53.000Z</time>
      </trkpt>
      <trkpt lat="43.68207" lon="3.72376">
        <ele>147</ele>
        <time>2012-02-04T14:25:57.000Z</time>
      </trkpt>
      <trkpt lat="43.68211" lon="3.72369">
        <ele>147.39999389648</ele>
        <time>2012-02-04T14:26:00.000Z</time>
      </trkpt>
      <trkpt lat="43.68213" lon="3.72365">
        <ele>147.39999389648</ele>
        <time>2012-02-04T14:26:02.000Z</time>
      </trkpt>
      <trkpt lat="43.6822" lon="3.72358">
        <ele>147.60000610352</ele>
        <time>2012-02-04T14:26:08.000Z</time>
      </trkpt>
      <trkpt lat="43.68226" lon="3.72351">
        <ele>147.80000305176</ele>
        <time>2012-02-04T14:26:12.000Z</time>
      </trkpt>
      <trkpt lat="43.68232" lon="3.72342">
        <ele>147.80000305176</ele>
        <time>2012-02-04T14:26:17.000Z</time>
      </trkpt>
      <trkpt lat="43.68234" lon="3.72337">
        <ele>147.80000305176</ele>
        <time>2012-02-04T14:26:20.000Z</time>
      </trkpt>
      <trkpt lat="43.68237" lon="3.72329">
        <ele>147.60000610352</ele>
        <time>2012-02-04T14:26:24.000Z</time>
      </trkpt>
      <trkpt lat="43.68238" lon="3.72325">
        <ele>147.39999389648</ele>
        <time>2012-02-04T14:26:26.000Z</time>
      </trkpt>
      <trkpt lat="43.68242" lon="3.72314">
        <ele>147.19999694824</ele>
        <time>2012-02-04T14:26:32.000Z</time>
      </trkpt>
      <trkpt lat="43.68244" lon="3.72308">
        <ele>147</ele>
        <time>2012-02-04T14:26:35.000Z</time>
      </trkpt>
      <trkpt lat="43.68251" lon="3.72297">
        <ele>146.80000305176</ele>
        <time>2012-02-04T14:26:41.000Z</time>
      </trkpt>
      <trkpt lat="43.68257" lon="3.72291">
        <ele>147.60000610352</ele>
        <time>2012-02-04T14:26:45.000Z</time>
      </trkpt>
      <trkpt lat="43.68267" lon="3.72283">
        <ele>149.19999694824</ele>
        <time>2012-02-04T14:26:52.000Z</time>
      </trkpt>
      <trkpt lat="43.68277" lon="3.72276">
        <ele>150.39999389648</ele>
        <time>2012-02-04T14:26:59.000Z</time>
      </trkpt>
      <trkpt lat="43.68287" lon="3.72269">
        <ele>151.60000610352</ele>
        <time>2012-02-04T14:27:05.000Z</time>
      </trkpt>
      <trkpt lat="43.6829" lon="3.72268">
        <ele>152</ele>
        <time>2012-02-04T14:27:07.000Z</time>
      </trkpt>
      <trkpt lat="43.68298" lon="3.72263">
        <ele>152.60000610352</ele>
        <time>2012-02-04T14:27:12.000Z</time>
      </trkpt>
      <trkpt lat="43.68309" lon="3.72257">
        <ele>153.60000610352</ele>
        <time>2012-02-04T14:27:19.000Z</time>
      </trkpt>
      <trkpt lat="43.68313" lon="3.72256">
        <ele>154</ele>
        <time>2012-02-04T14:27:22.000Z</time>
      </trkpt>
      <trkpt lat="43.6832" lon="3.7225">
        <ele>154.39999389648</ele>
        <time>2012-02-04T14:27:27.000Z</time>
      </trkpt>
      <trkpt lat="43.68323" lon="3.72248">
        <ele>155</ele>
        <time>2012-02-04T14:27:29.000Z</time>
      </trkpt>
      <trkpt lat="43.6833" lon="3.72245">
        <ele>156.19999694824</ele>
        <time>2012-02-04T14:27:33.000Z</time>
      </trkpt>
      <trkpt lat="43.68336" lon="3.72242">
        <ele>157.39999389648</ele>
        <time>2012-02-04T14:27:37.000Z</time>
      </trkpt>
      <trkpt lat="43.68344" lon="3.72235">
        <ele>159.39999389648</ele>
        <time>2012-02-04T14:27:43.000Z</time>
      </trkpt>
      <trkpt lat="43.68356" lon="3.7223">
        <ele>161.60000610352</ele>
        <time>2012-02-04T14:27:51.000Z</time>
      </trkpt>
      <trkpt lat="43.68359" lon="3.72228">
        <ele>162.39999389648</ele>
        <time>2012-02-04T14:27:55.000Z</time>
      </trkpt>
      <trkpt lat="43.68372" lon="3.72221">
        <ele>164.80000305176</ele>
        <time>2012-02-04T14:28:03.000Z</time>
      </trkpt>
      <trkpt lat="43.68374" lon="3.72221">
        <ele>165.19999694824</ele>
        <time>2012-02-04T14:28:09.000Z</time>
      </trkpt>
      <trkpt lat="43.68375" lon="3.7222">
        <ele>165.39999389648</ele>
        <time>2012-02-04T14:28:15.000Z</time>
      </trkpt>
      <trkpt lat="43.68382" lon="3.72217">
        <ele>166.60000610352</ele>
        <time>2012-02-04T14:28:20.000Z</time>
      </trkpt>
      <trkpt lat="43.68384" lon="3.72217">
        <ele>166.80000305176</ele>
        <time>2012-02-04T14:28:21.000Z</time>
      </trkpt>
      <trkpt lat="43.68394" lon="3.72212">
        <ele>168.60000610352</ele>
        <time>2012-02-04T14:28:27.000Z</time>
      </trkpt>
      <trkpt lat="43.68402" lon="3.72211">
        <ele>169.80000305176</ele>
        <time>2012-02-04T14:28:32.000Z</time>
      </trkpt>
      <trkpt lat="43.6841" lon="3.72208">
        <ele>171</ele>
        <time>2012-02-04T14:28:36.000Z</time>
      </trkpt>
      <trkpt lat="43.68416" lon="3.72204">
        <ele>172.19999694824</ele>
        <time>2012-02-04T14:28:40.000Z</time>
      </trkpt>
      <trkpt lat="43.68425" lon="3.72197">
        <ele>172.60000610352</ele>
        <time>2012-02-04T14:28:46.000Z</time>
      </trkpt>
      <trkpt lat="43.68431" lon="3.72193">
        <ele>173</ele>
        <time>2012-02-04T14:28:50.000Z</time>
      </trkpt>
      <trkpt lat="43.6844" lon="3.72196">
        <ele>173</ele>
        <time>2012-02-04T14:28:56.000Z</time>
      </trkpt>
      <trkpt lat="43.68442" lon="3.72197">
        <ele>173</ele>
        <time>2012-02-04T14:28:57.000Z</time>
      </trkpt>
      <trkpt lat="43.68444" lon="3.72199">
        <ele>172.80000305176</ele>
        <time>2012-02-04T14:28:59.000Z</time>
      </trkpt>
      <trkpt lat="43.68452" lon="3.72191">
        <ele>173.39999389648</ele>
        <time>2012-02-04T14:29:05.000Z</time>
      </trkpt>
      <trkpt lat="43.68454" lon="3.7219">
        <ele>173.39999389648</ele>
        <time>2012-02-04T14:29:06.000Z</time>
      </trkpt>
      <trkpt lat="43.68463" lon="3.72184">
        <ele>173.80000305176</ele>
        <time>2012-02-04T14:29:13.000Z</time>
      </trkpt>
      <trkpt lat="43.68464" lon="3.72183">
        <ele>173.80000305176</ele>
        <time>2012-02-04T14:29:14.000Z</time>
      </trkpt>
      <trkpt lat="43.68469" lon="3.72185">
        <ele>173.80000305176</ele>
        <time>2012-02-04T14:29:20.000Z</time>
      </trkpt>
      <trkpt lat="43.68471" lon="3.72188">
        <ele>173.80000305176</ele>
        <time>2012-02-04T14:29:28.000Z</time>
      </trkpt>
      <trkpt lat="43.68471" lon="3.72186">
        <ele>173.80000305176</ele>
        <time>2012-02-04T14:29:40.000Z</time>
      </trkpt>
      <trkpt lat="43.6847" lon="3.72185">
        <ele>173.80000305176</ele>
        <time>2012-02-04T14:29:45.000Z</time>
      </trkpt>
      <trkpt lat="43.68467" lon="3.72179">
        <ele>174</ele>
        <time>2012-02-04T14:29:48.000Z</time>
      </trkpt>
      <trkpt lat="43.68473" lon="3.7217">
        <ele>174.60000610352</ele>
        <time>2012-02-04T14:29:54.000Z</time>
      </trkpt>
      <trkpt lat="43.68482" lon="3.72167">
        <ele>174.80000305176</ele>
        <time>2012-02-04T14:29:58.000Z</time>
      </trkpt>
      <trkpt lat="43.68496" lon="3.72162">
        <ele>176.19999694824</ele>
        <time>2012-02-04T14:30:04.000Z</time>
      </trkpt>
      <trkpt lat="43.6851" lon="3.72156">
        <ele>177.39999389648</ele>
        <time>2012-02-04T14:30:10.000Z</time>
      </trkpt>
      <trkpt lat="43.68513" lon="3.72154">
        <ele>178</ele>
        <time>2012-02-04T14:30:12.000Z</time>
      </trkpt>
      <trkpt lat="43.68516" lon="3.7215">
        <ele>179</ele>
        <time>2012-02-04T14:30:15.000Z</time>
      </trkpt>
      <trkpt lat="43.6852" lon="3.72138">
        <ele>181.80000305176</ele>
        <time>2012-02-04T14:30:23.000Z</time>
      </trkpt>
      <trkpt lat="43.6852" lon="3.72132">
        <ele>183.39999389648</ele>
        <time>2012-02-04T14:30:31.000Z</time>
      </trkpt>
      <trkpt lat="43.68519" lon="3.72128">
        <ele>184.39999389648</ele>
        <time>2012-02-04T14:30:38.000Z</time>
      </trkpt>
      <trkpt lat="43.68518" lon="3.72122">
        <ele>185.80000305176</ele>
        <time>2012-02-04T14:30:46.000Z</time>
      </trkpt>
      <trkpt lat="43.68517" lon="3.72115">
        <ele>187.60000610352</ele>
        <time>2012-02-04T14:30:52.000Z</time>
      </trkpt>
      <trkpt lat="43.68517" lon="3.72109">
        <ele>189.19999694824</ele>
        <time>2012-02-04T14:30:58.000Z</time>
      </trkpt>
      <trkpt lat="43.68516" lon="3.72102">
        <ele>190.60000610352</ele>
        <time>2012-02-04T14:31:04.000Z</time>
      </trkpt>
      <trkpt lat="43.68517" lon="3.72093">
        <ele>193</ele>
        <time>2012-02-04T14:31:13.000Z</time>
      </trkpt>
      <trkpt lat="43.68516" lon="3.72087">
        <ele>194.60000610352</ele>
        <time>2012-02-04T14:31:19.000Z</time>
      </trkpt>
      <trkpt lat="43.68515" lon="3.72082">
        <ele>195.60000610352</ele>
        <time>2012-02-04T14:31:24.000Z</time>
      </trkpt>
      <trkpt lat="43.68515" lon="3.72075">
        <ele>197.39999389648</ele>
        <time>2012-02-04T14:31:31.000Z</time>
      </trkpt>
      <trkpt lat="43.68515" lon="3.72068">
        <ele>199.60000610352</ele>
        <time>2012-02-04T14:31:37.000Z</time>
      </trkpt>
      <trkpt lat="43.68514" lon="3.72054">
        <ele>203</ele>
        <time>2012-02-04T14:31:46.000Z</time>
      </trkpt>
      <trkpt lat="43.68516" lon="3.72044">
        <ele>206</ele>
        <time>2012-02-04T14:31:55.000Z</time>
      </trkpt>
      <trkpt lat="43.68516" lon="3.72037">
        <ele>208</ele>
        <time>2012-02-04T14:32:01.000Z</time>
      </trkpt>
      <trkpt lat="43.68515" lon="3.72031">
        <ele>209.39999389648</ele>
        <time>2012-02-04T14:32:07.000Z</time>
      </trkpt>
      <trkpt lat="43.68514" lon="3.72022">
        <ele>211.60000610352</ele>
        <time>2012-02-04T14:32:14.000Z</time>
      </trkpt>
      <trkpt lat="43.68514" lon="3.72016">
        <ele>213.19999694824</ele>
        <time>2012-02-04T14:32:19.000Z</time>
      </trkpt>
      <trkpt lat="43.68512" lon="3.72012">
        <ele>214.19999694824</ele>
        <time>2012-02-04T14:32:23.000Z</time>
      </trkpt>
      <trkpt lat="43.68507" lon="3.72006">
        <ele>215</ele>
        <time>2012-02-04T14:32:29.000Z</time>
      </trkpt>
      <trkpt lat="43.68502" lon="3.72007">
        <ele>214.39999389648</ele>
        <time>2012-02-04T14:32:35.000Z</time>
      </trkpt>
      <trkpt lat="43.68499" lon="3.72009">
        <ele>214</ele>
        <time>2012-02-04T14:32:41.000Z</time>
      </trkpt>
      <trkpt lat="43.68495" lon="3.72014">
        <ele>213.19999694824</ele>
        <time>2012-02-04T14:32:49.000Z</time>
      </trkpt>
      <trkpt lat="43.68493" lon="3.72013">
        <ele>213.60000610352</ele>
        <time>2012-02-04T14:32:54.000Z</time>
      </trkpt>
      <trkpt lat="43.68491" lon="3.72008">
        <ele>215</ele>
        <time>2012-02-04T14:33:01.000Z</time>
      </trkpt>
      <trkpt lat="43.68487" lon="3.72003">
        <ele>216.80000305176</ele>
        <time>2012-02-04T14:33:08.000Z</time>
      </trkpt>
      <trkpt lat="43.68485" lon="3.72">
        <ele>217.80000305176</ele>
        <time>2012-02-04T14:33:14.000Z</time>
      </trkpt>
      <trkpt lat="43.68479" lon="3.71999">
        <ele>218.60000610352</ele>
        <time>2012-02-04T14:33:21.000Z</time>
      </trkpt>
      <trkpt lat="43.68475" lon="3.72">
        <ele>219.19999694824</ele>
        <time>2012-02-04T14:33:28.000Z</time>
      </trkpt>
      <trkpt lat="43.68473" lon="3.71995">
        <ele>220.80000305176</ele>
        <time>2012-02-04T14:33:33.000Z</time>
      </trkpt>
      <trkpt lat="43.68474" lon="3.71988">
        <ele>222.60000610352</ele>
        <time>2012-02-04T14:33:38.000Z</time>
      </trkpt>
      <trkpt lat="43.68476" lon="3.71981">
        <ele>224.60000610352</ele>
        <time>2012-02-04T14:33:44.000Z</time>
      </trkpt>
      <trkpt lat="43.68471" lon="3.71982">
        <ele>224.80000305176</ele>
        <time>2012-02-04T14:33:52.000Z</time>
      </trkpt>
      <trkpt lat="43.6847" lon="3.71979">
        <ele>225.80000305176</ele>
        <time>2012-02-04T14:33:56.000Z</time>
      </trkpt>
      <trkpt lat="43.68469" lon="3.71975">
        <ele>227.19999694824</ele>
        <time>2012-02-04T14:34:03.000Z</time>
      </trkpt>
      <trkpt lat="43.68465" lon="3.71974">
        <ele>228</ele>
        <time>2012-02-04T14:34:10.000Z</time>
      </trkpt>
      <trkpt lat="43.68465" lon="3.71971">
        <ele>228.80000305176</ele>
        <time>2012-02-04T14:34:15.000Z</time>
      </trkpt>
      <trkpt lat="43.68459" lon="3.71971">
        <ele>229.39999389648</ele>
        <time>2012-02-04T14:34:21.000Z</time>
      </trkpt>
      <trkpt lat="43.68452" lon="3.71971">
        <ele>230.19999694824</ele>
        <time>2012-02-04T14:34:28.000Z</time>
      </trkpt>
      <trkpt lat="43.68449" lon="3.71971">
        <ele>230.60000610352</ele>
        <time>2012-02-04T14:34:31.000Z</time>
      </trkpt>
      <trkpt lat="43.6844" lon="3.71968">
        <ele>232.39999389648</ele>
        <time>2012-02-04T14:34:41.000Z</time>
      </trkpt>
      <trkpt lat="43.6844" lon="3.71969">
        <ele>232.19999694824</ele>
        <time>2012-02-04T14:34:45.000Z</time>
      </trkpt>
      <trkpt lat="43.6844" lon="3.7197">
        <ele>231.80000305176</ele>
        <time>2012-02-04T14:34:55.000Z</time>
      </trkpt>
      <trkpt lat="43.68438" lon="3.7197">
        <ele>232.19999694824</ele>
        <time>2012-02-04T14:35:17.000Z</time>
      </trkpt>
      <trkpt lat="43.68436" lon="3.7197">
        <ele>232.19999694824</ele>
        <time>2012-02-04T14:35:25.000Z</time>
      </trkpt>
      <trkpt lat="43.68431" lon="3.71971">
        <ele>232.80000305176</ele>
        <time>2012-02-04T14:35:31.000Z</time>
      </trkpt>
      <trkpt lat="43.68426" lon="3.71969">
        <ele>233.60000610352</ele>
        <time>2012-02-04T14:35:35.000Z</time>
      </trkpt>
      <trkpt lat="43.68422" lon="3.71968">
        <ele>234.60000610352</ele>
        <time>2012-02-04T14:35:38.000Z</time>
      </trkpt>
      <trkpt lat="43.68412" lon="3.71966">
        <ele>236.19999694824</ele>
        <time>2012-02-04T14:35:43.000Z</time>
      </trkpt>
      <trkpt lat="43.68411" lon="3.71965">
        <ele>236.39999389648</ele>
        <time>2012-02-04T14:35:44.000Z</time>
      </trkpt>
      <trkpt lat="43.68401" lon="3.71961">
        <ele>238.19999694824</ele>
        <time>2012-02-04T14:35:50.000Z</time>
      </trkpt>
      <trkpt lat="43.68392" lon="3.71958">
        <ele>239.60000610352</ele>
        <time>2012-02-04T14:35:55.000Z</time>
      </trkpt>
      <trkpt lat="43.68382" lon="3.71953">
        <ele>241.39999389648</ele>
        <time>2012-02-04T14:36:01.000Z</time>
      </trkpt>
      <trkpt lat="43.6838" lon="3.71952">
        <ele>241.80000305176</ele>
        <time>2012-02-04T14:36:02.000Z</time>
      </trkpt>
      <trkpt lat="43.68371" lon="3.71953">
        <ele>242</ele>
        <time>2012-02-04T14:36:06.000Z</time>
      </trkpt>
      <trkpt lat="43.68367" lon="3.71954">
        <ele>242</ele>
        <time>2012-02-04T14:36:08.000Z</time>
      </trkpt>
      <trkpt lat="43.68356" lon="3.71954">
        <ele>242.39999389648</ele>
        <time>2012-02-04T14:36:14.000Z</time>
      </trkpt>
      <trkpt lat="43.68351" lon="3.71951">
        <ele>243.80000305176</ele>
        <time>2012-02-04T14:36:18.000Z</time>
      </trkpt>
      <trkpt lat="43.68354" lon="3.71945">
        <ele>245.39999389648</ele>
        <time>2012-02-04T14:36:23.000Z</time>
      </trkpt>
      <trkpt lat="43.68358" lon="3.71937">
        <ele>247.39999389648</ele>
        <time>2012-02-04T14:36:30.000Z</time>
      </trkpt>
      <trkpt lat="43.68364" lon="3.7193">
        <ele>249.19999694824</ele>
        <time>2012-02-04T14:36:37.000Z</time>
      </trkpt>
      <trkpt lat="43.68368" lon="3.71928">
        <ele>249.39999389648</ele>
        <time>2012-02-04T14:36:41.000Z</time>
      </trkpt>
      <trkpt lat="43.68371" lon="3.71926">
        <ele>250</ele>
        <time>2012-02-04T14:36:43.000Z</time>
      </trkpt>
      <trkpt lat="43.68377" lon="3.71922">
        <ele>250.80000305176</ele>
        <time>2012-02-04T14:36:49.000Z</time>
      </trkpt>
      <trkpt lat="43.68379" lon="3.71918">
        <ele>252</ele>
        <time>2012-02-04T14:36:53.000Z</time>
      </trkpt>
      <trkpt lat="43.68384" lon="3.71913">
        <ele>253</ele>
        <time>2012-02-04T14:37:01.000Z</time>
      </trkpt>
      <trkpt lat="43.68388" lon="3.71907">
        <ele>254</ele>
        <time>2012-02-04T14:37:07.000Z</time>
      </trkpt>
      <trkpt lat="43.68392" lon="3.719">
        <ele>255.60000610352</ele>
        <time>2012-02-04T14:37:14.000Z</time>
      </trkpt>
      <trkpt lat="43.68396" lon="3.71894">
        <ele>257</ele>
        <time>2012-02-04T14:37:20.000Z</time>
      </trkpt>
      <trkpt lat="43.684" lon="3.71889">
        <ele>257.79998779297</ele>
        <time>2012-02-04T14:37:25.000Z</time>
      </trkpt>
      <trkpt lat="43.684" lon="3.71882">
        <ele>259.60000610352</ele>
        <time>2012-02-04T14:37:33.000Z</time>
      </trkpt>
      <trkpt lat="43.68393" lon="3.71877">
        <ele>261.39999389648</ele>
        <time>2012-02-04T14:37:41.000Z</time>
      </trkpt>
      <trkpt lat="43.6839" lon="3.71874">
        <ele>262</ele>
        <time>2012-02-04T14:37:44.000Z</time>
      </trkpt>
      <trkpt lat="43.68385" lon="3.71869">
        <ele>263.79998779297</ele>
        <time>2012-02-04T14:37:52.000Z</time>
      </trkpt>
      <trkpt lat="43.68383" lon="3.71868">
        <ele>264</ele>
        <time>2012-02-04T14:37:58.000Z</time>
      </trkpt>
      <trkpt lat="43.68379" lon="3.71866">
        <ele>264.79998779297</ele>
        <time>2012-02-04T14:38:05.000Z</time>
      </trkpt>
      <trkpt lat="43.68374" lon="3.71862">
        <ele>266</ele>
        <time>2012-02-04T14:38:13.000Z</time>
      </trkpt>
      <trkpt lat="43.68374" lon="3.71861">
        <ele>266.20001220703</ele>
        <time>2012-02-04T14:38:20.000Z</time>
      </trkpt>
      <trkpt lat="43.68374" lon="3.71857">
        <ele>267.20001220703</ele>
        <time>2012-02-04T14:38:54.000Z</time>
      </trkpt>
      <trkpt lat="43.68376" lon="3.71854">
        <ele>267.79998779297</ele>
        <time>2012-02-04T14:39:15.000Z</time>
      </trkpt>
      <trkpt lat="43.68377" lon="3.71854">
        <ele>267.79998779297</ele>
        <time>2012-02-04T14:39:22.000Z</time>
      </trkpt>
      <trkpt lat="43.68381" lon="3.7185">
        <ele>268.60000610352</ele>
        <time>2012-02-04T14:39:29.000Z</time>
      </trkpt>
      <trkpt lat="43.6838" lon="3.71845">
        <ele>269.79998779297</ele>
        <time>2012-02-04T14:39:35.000Z</time>
      </trkpt>
      <trkpt lat="43.68373" lon="3.71844">
        <ele>270.39999389648</ele>
        <time>2012-02-04T14:39:42.000Z</time>
      </trkpt>
      <trkpt lat="43.68368" lon="3.71842">
        <ele>271.39999389648</ele>
        <time>2012-02-04T14:39:48.000Z</time>
      </trkpt>
      <trkpt lat="43.68365" lon="3.71837">
        <ele>272.60000610352</ele>
        <time>2012-02-04T14:39:55.000Z</time>
      </trkpt>
      <trkpt lat="43.68359" lon="3.71834">
        <ele>273.60000610352</ele>
        <time>2012-02-04T14:40:02.000Z</time>
      </trkpt>
      <trkpt lat="43.68355" lon="3.7183">
        <ele>274.39999389648</ele>
        <time>2012-02-04T14:40:08.000Z</time>
      </trkpt>
      <trkpt lat="43.68351" lon="3.71822">
        <ele>275.79998779297</ele>
        <time>2012-02-04T14:40:15.000Z</time>
      </trkpt>
      <trkpt lat="43.68358" lon="3.71817">
        <ele>276.20001220703</ele>
        <time>2012-02-04T14:40:22.000Z</time>
      </trkpt>
      <trkpt lat="43.68365" lon="3.71815">
        <ele>276.20001220703</ele>
        <time>2012-02-04T14:40:29.000Z</time>
      </trkpt>
      <trkpt lat="43.68368" lon="3.71815">
        <ele>276</ele>
        <time>2012-02-04T14:40:35.000Z</time>
      </trkpt>
      <trkpt lat="43.68365" lon="3.71814">
        <ele>276.20001220703</ele>
        <time>2012-02-04T14:41:02.000Z</time>
      </trkpt>
      <trkpt lat="43.68366" lon="3.71811">
        <ele>276.79998779297</ele>
        <time>2012-02-04T14:41:09.000Z</time>
      </trkpt>
      <trkpt lat="43.68368" lon="3.71806">
        <ele>277.39999389648</ele>
        <time>2012-02-04T14:41:14.000Z</time>
      </trkpt>
      <trkpt lat="43.68368" lon="3.71805">
        <ele>277.39999389648</ele>
        <time>2012-02-04T14:41:20.000Z</time>
      </trkpt>
      <trkpt lat="43.68366" lon="3.71801">
        <ele>278.20001220703</ele>
        <time>2012-02-04T14:41:25.000Z</time>
      </trkpt>
      <trkpt lat="43.68365" lon="3.71792">
        <ele>279.39999389648</ele>
        <time>2012-02-04T14:41:31.000Z</time>
      </trkpt>
      <trkpt lat="43.6837" lon="3.71784">
        <ele>280.60000610352</ele>
        <time>2012-02-04T14:41:36.000Z</time>
      </trkpt>
      <trkpt lat="43.68371" lon="3.71782">
        <ele>280.79998779297</ele>
        <time>2012-02-04T14:41:37.000Z</time>
      </trkpt>
      <trkpt lat="43.68374" lon="3.71767">
        <ele>283</ele>
        <time>2012-02-04T14:41:44.000Z</time>
      </trkpt>
      <trkpt lat="43.68371" lon="3.71761">
        <ele>284</ele>
        <time>2012-02-04T14:41:48.000Z</time>
      </trkpt>
      <trkpt lat="43.68365" lon="3.71753">
        <ele>285.20001220703</ele>
        <time>2012-02-04T14:41:53.000Z</time>
      </trkpt>
      <trkpt lat="43.68366" lon="3.71745">
        <ele>285.79998779297</ele>
        <time>2012-02-04T14:41:56.000Z</time>
      </trkpt>
      <trkpt lat="43.68366" lon="3.71726">
        <ele>286.39999389648</ele>
        <time>2012-02-04T14:42:03.000Z</time>
      </trkpt>
      <trkpt lat="43.68368" lon="3.71713">
        <ele>287</ele>
        <time>2012-02-04T14:42:08.000Z</time>
      </trkpt>
      <trkpt lat="43.68366" lon="3.71699">
        <ele>287.39999389648</ele>
        <time>2012-02-04T14:42:13.000Z</time>
      </trkpt>
      <trkpt lat="43.68366" lon="3.71696">
        <ele>287.60000610352</ele>
        <time>2012-02-04T14:42:14.000Z</time>
      </trkpt>
      <trkpt lat="43.68365" lon="3.71685">
        <ele>288</ele>
        <time>2012-02-04T14:42:18.000Z</time>
      </trkpt>
      <trkpt lat="43.68368" lon="3.71671">
        <ele>288.39999389648</ele>
        <time>2012-02-04T14:42:23.000Z</time>
      </trkpt>
      <trkpt lat="43.68368" lon="3.71663">
        <ele>288.39999389648</ele>
        <time>2012-02-04T14:42:26.000Z</time>
      </trkpt>
      <trkpt lat="43.68379" lon="3.71645">
        <ele>287.39999389648</ele>
        <time>2012-02-04T14:42:33.000Z</time>
      </trkpt>
      <trkpt lat="43.68382" lon="3.71635">
        <ele>286.79998779297</ele>
        <time>2012-02-04T14:42:37.000Z</time>
      </trkpt>
      <trkpt lat="43.68383" lon="3.71618">
        <ele>286</ele>
        <time>2012-02-04T14:42:42.000Z</time>
      </trkpt>
      <trkpt lat="43.68384" lon="3.71602">
        <ele>285.20001220703</ele>
        <time>2012-02-04T14:42:47.000Z</time>
      </trkpt>
      <trkpt lat="43.68384" lon="3.71599">
        <ele>285</ele>
        <time>2012-02-04T14:42:48.000Z</time>
      </trkpt>
      <trkpt lat="43.6838" lon="3.71579">
        <ele>283.79998779297</ele>
        <time>2012-02-04T14:42:55.000Z</time>
      </trkpt>
      <trkpt lat="43.68377" lon="3.71566">
        <ele>282.60000610352</ele>
        <time>2012-02-04T14:42:59.000Z</time>
      </trkpt>
      <trkpt lat="43.68373" lon="3.71551">
        <ele>281.20001220703</ele>
        <time>2012-02-04T14:43:04.000Z</time>
      </trkpt>
      <trkpt lat="43.68371" lon="3.71537">
        <ele>279.79998779297</ele>
        <time>2012-02-04T14:43:09.000Z</time>
      </trkpt>
      <trkpt lat="43.68367" lon="3.71523">
        <ele>278.39999389648</ele>
        <time>2012-02-04T14:43:14.000Z</time>
      </trkpt>
      <trkpt lat="43.68367" lon="3.7152">
        <ele>278</ele>
        <time>2012-02-04T14:43:15.000Z</time>
      </trkpt>
      <trkpt lat="43.68374" lon="3.71506">
        <ele>277.39999389648</ele>
        <time>2012-02-04T14:43:20.000Z</time>
      </trkpt>
      <trkpt lat="43.68375" lon="3.71493">
        <ele>276.79998779297</ele>
        <time>2012-02-04T14:43:24.000Z</time>
      </trkpt>
      <trkpt lat="43.68373" lon="3.71473">
        <ele>276.20001220703</ele>
        <time>2012-02-04T14:43:29.000Z</time>
      </trkpt>
      <trkpt lat="43.68372" lon="3.71458">
        <ele>276</ele>
        <time>2012-02-04T14:43:33.000Z</time>
      </trkpt>
      <trkpt lat="43.68371" lon="3.7145">
        <ele>275.60000610352</ele>
        <time>2012-02-04T14:43:35.000Z</time>
      </trkpt>
      <trkpt lat="43.6837" lon="3.7143">
        <ele>275.20001220703</ele>
        <time>2012-02-04T14:43:41.000Z</time>
      </trkpt>
      <trkpt lat="43.6837" lon="3.71426">
        <ele>275.20001220703</ele>
        <time>2012-02-04T14:43:42.000Z</time>
      </trkpt>
      <trkpt lat="43.68367" lon="3.7141">
        <ele>274.79998779297</ele>
        <time>2012-02-04T14:43:47.000Z</time>
      </trkpt>
      <trkpt lat="43.68359" lon="3.71395">
        <ele>274.39999389648</ele>
        <time>2012-02-04T14:43:52.000Z</time>
      </trkpt>
      <trkpt lat="43.68354" lon="3.71384">
        <ele>274.20001220703</ele>
        <time>2012-02-04T14:43:56.000Z</time>
      </trkpt>
      <trkpt lat="43.68352" lon="3.7137">
        <ele>274.39999389648</ele>
        <time>2012-02-04T14:44:00.000Z</time>
      </trkpt>
      <trkpt lat="43.6835" lon="3.71356">
        <ele>274.79998779297</ele>
        <time>2012-02-04T14:44:04.000Z</time>
      </trkpt>
      <trkpt lat="43.6835" lon="3.71353">
        <ele>274.79998779297</ele>
        <time>2012-02-04T14:44:05.000Z</time>
      </trkpt>
      <trkpt lat="43.68346" lon="3.71333">
        <ele>275</ele>
        <time>2012-02-04T14:44:11.000Z</time>
      </trkpt>
      <trkpt lat="43.6834" lon="3.71316">
        <ele>275.20001220703</ele>
        <time>2012-02-04T14:44:17.000Z</time>
      </trkpt>
      <trkpt lat="43.6833" lon="3.71312">
        <ele>274.39999389648</ele>
        <time>2012-02-04T14:44:22.000Z</time>
      </trkpt>
      <trkpt lat="43.68328" lon="3.71311">
        <ele>274.20001220703</ele>
        <time>2012-02-04T14:44:23.000Z</time>
      </trkpt>
      <trkpt lat="43.6832" lon="3.71304">
        <ele>273.79998779297</ele>
        <time>2012-02-04T14:44:27.000Z</time>
      </trkpt>
      <trkpt lat="43.68317" lon="3.71298">
        <ele>273.60000610352</ele>
        <time>2012-02-04T14:44:29.000Z</time>
      </trkpt>
      <trkpt lat="43.68314" lon="3.71284">
        <ele>274</ele>
        <time>2012-02-04T14:44:34.000Z</time>
      </trkpt>
      <trkpt lat="43.6831" lon="3.71269">
        <ele>274.39999389648</ele>
        <time>2012-02-04T14:44:39.000Z</time>
      </trkpt>
      <trkpt lat="43.68307" lon="3.71254">
        <ele>274.79998779297</ele>
        <time>2012-02-04T14:44:44.000Z</time>
      </trkpt>
      <trkpt lat="43.68304" lon="3.71239">
        <ele>275.39999389648</ele>
        <time>2012-02-04T14:44:49.000Z</time>
      </trkpt>
      <trkpt lat="43.683" lon="3.71222">
        <ele>275.60000610352</ele>
        <time>2012-02-04T14:44:54.000Z</time>
      </trkpt>
      <trkpt lat="43.68296" lon="3.71207">
        <ele>276</ele>
        <time>2012-02-04T14:44:59.000Z</time>
      </trkpt>
      <trkpt lat="43.68291" lon="3.71192">
        <ele>276.39999389648</ele>
        <time>2012-02-04T14:45:04.000Z</time>
      </trkpt>
      <trkpt lat="43.68285" lon="3.71176">
        <ele>276.79998779297</ele>
        <time>2012-02-04T14:45:09.000Z</time>
      </trkpt>
      <trkpt lat="43.68279" lon="3.7116">
        <ele>277.20001220703</ele>
        <time>2012-02-04T14:45:14.000Z</time>
      </trkpt>
      <trkpt lat="43.68278" lon="3.71157">
        <ele>277.20001220703</ele>
        <time>2012-02-04T14:45:15.000Z</time>
      </trkpt>
      <trkpt lat="43.68285" lon="3.71143">
        <ele>277.79998779297</ele>
        <time>2012-02-04T14:45:21.000Z</time>
      </trkpt>
      <trkpt lat="43.68289" lon="3.71129">
        <ele>278.20001220703</ele>
        <time>2012-02-04T14:45:26.000Z</time>
      </trkpt>
      <trkpt lat="43.68293" lon="3.71114">
        <ele>278.39999389648</ele>
        <time>2012-02-04T14:45:31.000Z</time>
      </trkpt>
      <trkpt lat="43.68298" lon="3.71101">
        <ele>278.79998779297</ele>
        <time>2012-02-04T14:45:36.000Z</time>
      </trkpt>
      <trkpt lat="43.68302" lon="3.7109">
        <ele>279.20001220703</ele>
        <time>2012-02-04T14:45:40.000Z</time>
      </trkpt>
      <trkpt lat="43.68308" lon="3.71078">
        <ele>279.39999389648</ele>
        <time>2012-02-04T14:45:45.000Z</time>
      </trkpt>
      <trkpt lat="43.68313" lon="3.71064">
        <ele>279.60000610352</ele>
        <time>2012-02-04T14:45:50.000Z</time>
      </trkpt>
      <trkpt lat="43.68319" lon="3.71051">
        <ele>279.60000610352</ele>
        <time>2012-02-04T14:45:55.000Z</time>
      </trkpt>
      <trkpt lat="43.68325" lon="3.71038">
        <ele>279.39999389648</ele>
        <time>2012-02-04T14:46:00.000Z</time>
      </trkpt>
      <trkpt lat="43.6833" lon="3.71029">
        <ele>279.39999389648</ele>
        <time>2012-02-04T14:46:04.000Z</time>
      </trkpt>
      <trkpt lat="43.68342" lon="3.71019">
        <ele>279.20001220703</ele>
        <time>2012-02-04T14:46:10.000Z</time>
      </trkpt>
      <trkpt lat="43.68352" lon="3.71012">
        <ele>279</ele>
        <time>2012-02-04T14:46:15.000Z</time>
      </trkpt>
      <trkpt lat="43.68367" lon="3.70995">
        <ele>278.60000610352</ele>
        <time>2012-02-04T14:46:23.000Z</time>
      </trkpt>
      <trkpt lat="43.68372" lon="3.70992">
        <ele>278.39999389648</ele>
        <time>2012-02-04T14:46:25.000Z</time>
      </trkpt>
      <trkpt lat="43.68384" lon="3.70989">
        <ele>278.20001220703</ele>
        <time>2012-02-04T14:46:30.000Z</time>
      </trkpt>
      <trkpt lat="43.6839" lon="3.70986">
        <ele>278</ele>
        <time>2012-02-04T14:46:33.000Z</time>
      </trkpt>
      <trkpt lat="43.68399" lon="3.70984">
        <ele>277.79998779297</ele>
        <time>2012-02-04T14:46:37.000Z</time>
      </trkpt>
      <trkpt lat="43.6841" lon="3.70982">
        <ele>277.60000610352</ele>
        <time>2012-02-04T14:46:42.000Z</time>
      </trkpt>
      <trkpt lat="43.6842" lon="3.70978">
        <ele>277.20001220703</ele>
        <time>2012-02-04T14:46:46.000Z</time>
      </trkpt>
      <trkpt lat="43.68431" lon="3.70976">
        <ele>277.20001220703</ele>
        <time>2012-02-04T14:46:51.000Z</time>
      </trkpt>
      <trkpt lat="43.68443" lon="3.70977">
        <ele>277.39999389648</ele>
        <time>2012-02-04T14:46:56.000Z</time>
      </trkpt>
      <trkpt lat="43.68445" lon="3.70977">
        <ele>277.39999389648</ele>
        <time>2012-02-04T14:46:57.000Z</time>
      </trkpt>
      <trkpt lat="43.68456" lon="3.70977">
        <ele>277.39999389648</ele>
        <time>2012-02-04T14:47:03.000Z</time>
      </trkpt>
      <trkpt lat="43.6846" lon="3.70977">
        <ele>277.39999389648</ele>
        <time>2012-02-04T14:47:05.000Z</time>
      </trkpt>
      <trkpt lat="43.68475" lon="3.70976">
        <ele>277.39999389648</ele>
        <time>2012-02-04T14:47:11.000Z</time>
      </trkpt>
      <trkpt lat="43.68486" lon="3.70979">
        <ele>277.60000610352</ele>
        <time>2012-02-04T14:47:16.000Z</time>
      </trkpt>
      <trkpt lat="43.68496" lon="3.70982">
        <ele>277.79998779297</ele>
        <time>2012-02-04T14:47:21.000Z</time>
      </trkpt>
      <trkpt lat="43.68507" lon="3.70989">
        <ele>278.20001220703</ele>
        <time>2012-02-04T14:47:27.000Z</time>
      </trkpt>
      <trkpt lat="43.68509" lon="3.7099">
        <ele>278.20001220703</ele>
        <time>2012-02-04T14:47:28.000Z</time>
      </trkpt>
      <trkpt lat="43.68513" lon="3.70993">
        <ele>278.20001220703</ele>
        <time>2012-02-04T14:47:30.000Z</time>
      </trkpt>
      <trkpt lat="43.68524" lon="3.70999">
        <ele>278.39999389648</ele>
        <time>2012-02-04T14:47:35.000Z</time>
      </trkpt>
      <trkpt lat="43.6854" lon="3.71007">
        <ele>278.39999389648</ele>
        <time>2012-02-04T14:47:43.000Z</time>
      </trkpt>
      <trkpt lat="43.68552" lon="3.71012">
        <ele>278.20001220703</ele>
        <time>2012-02-04T14:47:48.000Z</time>
      </trkpt>
      <trkpt lat="43.68562" lon="3.7102">
        <ele>278.39999389648</ele>
        <time>2012-02-04T14:47:53.000Z</time>
      </trkpt>
      <trkpt lat="43.68565" lon="3.71024">
        <ele>278.60000610352</ele>
        <time>2012-02-04T14:47:55.000Z</time>
      </trkpt>
      <trkpt lat="43.68571" lon="3.71033">
        <ele>278.79998779297</ele>
        <time>2012-02-04T14:48:00.000Z</time>
      </trkpt>
      <trkpt lat="43.68575" lon="3.71037">
        <ele>279</ele>
        <time>2012-02-04T14:48:02.000Z</time>
      </trkpt>
      <trkpt lat="43.68587" lon="3.7105">
        <ele>279.39999389648</ele>
        <time>2012-02-04T14:48:09.000Z</time>
      </trkpt>
      <trkpt lat="43.68598" lon="3.71059">
        <ele>280</ele>
        <time>2012-02-04T14:48:15.000Z</time>
      </trkpt>
      <trkpt lat="43.68612" lon="3.7106">
        <ele>280</ele>
        <time>2012-02-04T14:48:21.000Z</time>
      </trkpt>
      <trkpt lat="43.68618" lon="3.71065">
        <ele>280.20001220703</ele>
        <time>2012-02-04T14:48:27.000Z</time>
      </trkpt>
      <trkpt lat="43.6862" lon="3.71064">
        <ele>280.20001220703</ele>
        <time>2012-02-04T14:48:38.000Z</time>
      </trkpt>
      <trkpt lat="43.68622" lon="3.71066">
        <ele>280.39999389648</ele>
        <time>2012-02-04T14:48:49.000Z</time>
      </trkpt>
      <trkpt lat="43.68622" lon="3.71063">
        <ele>280.20001220703</ele>
        <time>2012-02-04T14:48:56.000Z</time>
      </trkpt>
      <trkpt lat="43.68622" lon="3.71058">
        <ele>280</ele>
        <time>2012-02-04T14:49:01.000Z</time>
      </trkpt>
      <trkpt lat="43.68626" lon="3.71055">
        <ele>280</ele>
        <time>2012-02-04T14:49:35.000Z</time>
      </trkpt>
      <trkpt lat="43.68634" lon="3.71057">
        <ele>280.20001220703</ele>
        <time>2012-02-04T14:49:44.000Z</time>
      </trkpt>
      <trkpt lat="43.68638" lon="3.71058">
        <ele>280.20001220703</ele>
        <time>2012-02-04T14:49:53.000Z</time>
      </trkpt>
      <trkpt lat="43.68641" lon="3.71059">
        <ele>280.20001220703</ele>
        <time>2012-02-04T14:49:58.000Z</time>
      </trkpt>
      <trkpt lat="43.68655" lon="3.71066">
        <ele>280.60000610352</ele>
        <time>2012-02-04T14:50:05.000Z</time>
      </trkpt>
      <trkpt lat="43.68669" lon="3.71071">
        <ele>280.60000610352</ele>
        <time>2012-02-04T14:50:11.000Z</time>
      </trkpt>
      <trkpt lat="43.6868" lon="3.71077">
        <ele>280.79998779297</ele>
        <time>2012-02-04T14:50:16.000Z</time>
      </trkpt>
      <trkpt lat="43.68682" lon="3.71078">
        <ele>280.79998779297</ele>
        <time>2012-02-04T14:50:17.000Z</time>
      </trkpt>
      <trkpt lat="43.68695" lon="3.71087">
        <ele>281.20001220703</ele>
        <time>2012-02-04T14:50:23.000Z</time>
      </trkpt>
      <trkpt lat="43.68706" lon="3.71097">
        <ele>281.60000610352</ele>
        <time>2012-02-04T14:50:29.000Z</time>
      </trkpt>
      <trkpt lat="43.68718" lon="3.71103">
        <ele>281.79998779297</ele>
        <time>2012-02-04T14:50:35.000Z</time>
      </trkpt>
      <trkpt lat="43.68729" lon="3.71107">
        <ele>282</ele>
        <time>2012-02-04T14:50:40.000Z</time>
      </trkpt>
      <trkpt lat="43.68739" lon="3.71116">
        <ele>282.60000610352</ele>
        <time>2012-02-04T14:50:45.000Z</time>
      </trkpt>
      <trkpt lat="43.68749" lon="3.71124">
        <ele>283</ele>
        <time>2012-02-04T14:50:50.000Z</time>
      </trkpt>
      <trkpt lat="43.68759" lon="3.71139">
        <ele>283.39999389648</ele>
        <time>2012-02-04T14:50:56.000Z</time>
      </trkpt>
      <trkpt lat="43.68767" lon="3.71155">
        <ele>284</ele>
        <time>2012-02-04T14:51:02.000Z</time>
      </trkpt>
      <trkpt lat="43.68768" lon="3.71164">
        <ele>284.60000610352</ele>
        <time>2012-02-04T14:51:05.000Z</time>
      </trkpt>
      <trkpt lat="43.6877" lon="3.71174">
        <ele>284.79998779297</ele>
        <time>2012-02-04T14:51:09.000Z</time>
      </trkpt>
      <trkpt lat="43.68777" lon="3.71178">
        <ele>284.79998779297</ele>
        <time>2012-02-04T14:51:14.000Z</time>
      </trkpt>
      <trkpt lat="43.68782" lon="3.7118">
        <ele>284.79998779297</ele>
        <time>2012-02-04T14:51:16.000Z</time>
      </trkpt>
      <trkpt lat="43.68793" lon="3.71192">
        <ele>285.20001220703</ele>
        <time>2012-02-04T14:51:23.000Z</time>
      </trkpt>
      <trkpt lat="43.68803" lon="3.712">
        <ele>285.39999389648</ele>
        <time>2012-02-04T14:51:29.000Z</time>
      </trkpt>
      <trkpt lat="43.68811" lon="3.71205">
        <ele>285.60000610352</ele>
        <time>2012-02-04T14:51:35.000Z</time>
      </trkpt>
      <trkpt lat="43.68816" lon="3.71206">
        <ele>285.79998779297</ele>
        <time>2012-02-04T14:51:43.000Z</time>
      </trkpt>
      <trkpt lat="43.68827" lon="3.71214">
        <ele>286.20001220703</ele>
        <time>2012-02-04T14:51:50.000Z</time>
      </trkpt>
      <trkpt lat="43.68835" lon="3.71219">
        <ele>286.60000610352</ele>
        <time>2012-02-04T14:51:55.000Z</time>
      </trkpt>
      <trkpt lat="43.68837" lon="3.7122">
        <ele>286.60000610352</ele>
        <time>2012-02-04T14:51:56.000Z</time>
      </trkpt>
      <trkpt lat="43.68841" lon="3.71224">
        <ele>287</ele>
        <time>2012-02-04T14:51:59.000Z</time>
      </trkpt>
      <trkpt lat="43.6885" lon="3.71229">
        <ele>287.39999389648</ele>
        <time>2012-02-04T14:52:05.000Z</time>
      </trkpt>
      <trkpt lat="43.68857" lon="3.71227">
        <ele>287.39999389648</ele>
        <time>2012-02-04T14:52:09.000Z</time>
      </trkpt>
      <trkpt lat="43.6887" lon="3.71221">
        <ele>287.39999389648</ele>
        <time>2012-02-04T14:52:15.000Z</time>
      </trkpt>
      <trkpt lat="43.68872" lon="3.7122">
        <ele>287.39999389648</ele>
        <time>2012-02-04T14:52:16.000Z</time>
      </trkpt>
      <trkpt lat="43.68881" lon="3.7122">
        <ele>287.60000610352</ele>
        <time>2012-02-04T14:52:21.000Z</time>
      </trkpt>
      <trkpt lat="43.68883" lon="3.71219">
        <ele>287.60000610352</ele>
        <time>2012-02-04T14:52:22.000Z</time>
      </trkpt>
      <trkpt lat="43.68896" lon="3.71213">
        <ele>287.39999389648</ele>
        <time>2012-02-04T14:52:29.000Z</time>
      </trkpt>
      <trkpt lat="43.68908" lon="3.71214">
        <ele>287.79998779297</ele>
        <time>2012-02-04T14:52:34.000Z</time>
      </trkpt>
      <trkpt lat="43.68924" lon="3.7121">
        <ele>287.60000610352</ele>
        <time>2012-02-04T14:52:42.000Z</time>
      </trkpt>
      <trkpt lat="43.68936" lon="3.71212">
        <ele>287.60000610352</ele>
        <time>2012-02-04T14:52:47.000Z</time>
      </trkpt>
      <trkpt lat="43.68942" lon="3.71214">
        <ele>287.79998779297</ele>
        <time>2012-02-04T14:52:50.000Z</time>
      </trkpt>
      <trkpt lat="43.68955" lon="3.71215">
        <ele>288</ele>
        <time>2012-02-04T14:52:56.000Z</time>
      </trkpt>
      <trkpt lat="43.68958" lon="3.71215">
        <ele>288</ele>
        <time>2012-02-04T14:52:57.000Z</time>
      </trkpt>
      <trkpt lat="43.68971" lon="3.71221">
        <ele>288.39999389648</ele>
        <time>2012-02-04T14:53:03.000Z</time>
      </trkpt>
      <trkpt lat="43.68984" lon="3.71212">
        <ele>287.39999389648</ele>
        <time>2012-02-04T14:53:09.000Z</time>
      </trkpt>
      <trkpt lat="43.68992" lon="3.71206">
        <ele>286.79998779297</ele>
        <time>2012-02-04T14:53:13.000Z</time>
      </trkpt>
      <trkpt lat="43.69002" lon="3.71198">
        <ele>285.60000610352</ele>
        <time>2012-02-04T14:53:19.000Z</time>
      </trkpt>
      <trkpt lat="43.69005" lon="3.71194">
        <ele>285.20001220703</ele>
        <time>2012-02-04T14:53:21.000Z</time>
      </trkpt>
      <trkpt lat="43.69016" lon="3.71188">
        <ele>284.20001220703</ele>
        <time>2012-02-04T14:53:27.000Z</time>
      </trkpt>
      <trkpt lat="43.69022" lon="3.71186">
        <ele>284</ele>
        <time>2012-02-04T14:53:32.000Z</time>
      </trkpt>
      <trkpt lat="43.69024" lon="3.71186">
        <ele>284</ele>
        <time>2012-02-04T14:53:33.000Z</time>
      </trkpt>
      <trkpt lat="43.69032" lon="3.71182">
        <ele>283.39999389648</ele>
        <time>2012-02-04T14:53:48.000Z</time>
      </trkpt>
      <trkpt lat="43.69033" lon="3.7118">
        <ele>283</ele>
        <time>2012-02-04T14:53:56.000Z</time>
      </trkpt>
      <trkpt lat="43.69034" lon="3.71174">
        <ele>282.39999389648</ele>
        <time>2012-02-04T14:54:08.000Z</time>
      </trkpt>
      <trkpt lat="43.69039" lon="3.71164">
        <ele>281.20001220703</ele>
        <time>2012-02-04T14:54:15.000Z</time>
      </trkpt>
      <trkpt lat="43.69048" lon="3.71161">
        <ele>280.79998779297</ele>
        <time>2012-02-04T14:54:20.000Z</time>
      </trkpt>
      <trkpt lat="43.69054" lon="3.71158">
        <ele>280.20001220703</ele>
        <time>2012-02-04T14:54:24.000Z</time>
      </trkpt>
      <trkpt lat="43.69067" lon="3.71147">
        <ele>278.60000610352</ele>
        <time>2012-02-04T14:54:31.000Z</time>
      </trkpt>
      <trkpt lat="43.6908" lon="3.71142">
        <ele>277.79998779297</ele>
        <time>2012-02-04T14:54:37.000Z</time>
      </trkpt>
      <trkpt lat="43.69087" lon="3.71134">
        <ele>276.60000610352</ele>
        <time>2012-02-04T14:54:41.000Z</time>
      </trkpt>
      <trkpt lat="43.69096" lon="3.71126">
        <ele>275.20001220703</ele>
        <time>2012-02-04T14:54:46.000Z</time>
      </trkpt>
      <trkpt lat="43.69106" lon="3.71121">
        <ele>274</ele>
        <time>2012-02-04T14:54:51.000Z</time>
      </trkpt>
      <trkpt lat="43.69111" lon="3.71113">
        <ele>272.79998779297</ele>
        <time>2012-02-04T14:54:54.000Z</time>
      </trkpt>
      <trkpt lat="43.69118" lon="3.71097">
        <ele>270.60000610352</ele>
        <time>2012-02-04T14:55:00.000Z</time>
      </trkpt>
      <trkpt lat="43.6912" lon="3.71096">
        <ele>270.39999389648</ele>
        <time>2012-02-04T14:55:01.000Z</time>
      </trkpt>
      <trkpt lat="43.6913" lon="3.71087">
        <ele>268.79998779297</ele>
        <time>2012-02-04T14:55:07.000Z</time>
      </trkpt>
      <trkpt lat="43.6914" lon="3.71076">
        <ele>267.20001220703</ele>
        <time>2012-02-04T14:55:13.000Z</time>
      </trkpt>
      <trkpt lat="43.69143" lon="3.71072">
        <ele>266.60000610352</ele>
        <time>2012-02-04T14:55:15.000Z</time>
      </trkpt>
      <trkpt lat="43.6915" lon="3.71066">
        <ele>265.79998779297</ele>
        <time>2012-02-04T14:55:19.000Z</time>
      </trkpt>
      <trkpt lat="43.69154" lon="3.71063">
        <ele>265.39999389648</ele>
        <time>2012-02-04T14:55:21.000Z</time>
      </trkpt>
      <trkpt lat="43.69162" lon="3.71055">
        <ele>264.39999389648</ele>
        <time>2012-02-04T14:55:25.000Z</time>
      </trkpt>
      <trkpt lat="43.69174" lon="3.71047">
        <ele>263.60000610352</ele>
        <time>2012-02-04T14:55:31.000Z</time>
      </trkpt>
      <trkpt lat="43.69185" lon="3.71043">
        <ele>263.60000610352</ele>
        <time>2012-02-04T14:55:36.000Z</time>
      </trkpt>
      <trkpt lat="43.69194" lon="3.71035">
        <ele>263.20001220703</ele>
        <time>2012-02-04T14:55:41.000Z</time>
      </trkpt>
      <trkpt lat="43.69205" lon="3.71024">
        <ele>262.60000610352</ele>
        <time>2012-02-04T14:55:46.000Z</time>
      </trkpt>
      <trkpt lat="43.69215" lon="3.71016">
        <ele>262.39999389648</ele>
        <time>2012-02-04T14:55:51.000Z</time>
      </trkpt>
      <trkpt lat="43.69224" lon="3.71005">
        <ele>262</ele>
        <time>2012-02-04T14:55:56.000Z</time>
      </trkpt>
      <trkpt lat="43.69227" lon="3.71002">
        <ele>262</ele>
        <time>2012-02-04T14:55:58.000Z</time>
      </trkpt>
      <trkpt lat="43.69236" lon="3.70993">
        <ele>262.20001220703</ele>
        <time>2012-02-04T14:56:03.000Z</time>
      </trkpt>
      <trkpt lat="43.69244" lon="3.70992">
        <ele>262.60000610352</ele>
        <time>2012-02-04T14:56:07.000Z</time>
      </trkpt>
      <trkpt lat="43.69246" lon="3.70992">
        <ele>262.60000610352</ele>
        <time>2012-02-04T14:56:08.000Z</time>
      </trkpt>
      <trkpt lat="43.69258" lon="3.70991">
        <ele>263</ele>
        <time>2012-02-04T14:56:14.000Z</time>
      </trkpt>
      <trkpt lat="43.69262" lon="3.7099">
        <ele>263.20001220703</ele>
        <time>2012-02-04T14:56:19.000Z</time>
      </trkpt>
      <trkpt lat="43.69263" lon="3.7099">
        <ele>263.20001220703</ele>
        <time>2012-02-04T14:56:20.000Z</time>
      </trkpt>
      <trkpt lat="43.69272" lon="3.7099">
        <ele>263.20001220703</ele>
        <time>2012-02-04T14:56:25.000Z</time>
      </trkpt>
      <trkpt lat="43.69278" lon="3.70994">
        <ele>263.39999389648</ele>
        <time>2012-02-04T14:56:29.000Z</time>
      </trkpt>
      <trkpt lat="43.69284" lon="3.70996">
        <ele>263.39999389648</ele>
        <time>2012-02-04T14:56:32.000Z</time>
      </trkpt>
      <trkpt lat="43.69297" lon="3.71">
        <ele>263.60000610352</ele>
        <time>2012-02-04T14:56:38.000Z</time>
      </trkpt>
      <trkpt lat="43.69299" lon="3.71001">
        <ele>263.60000610352</ele>
        <time>2012-02-04T14:56:39.000Z</time>
      </trkpt>
      <trkpt lat="43.69312" lon="3.71012">
        <ele>264</ele>
        <time>2012-02-04T14:56:45.000Z</time>
      </trkpt>
      <trkpt lat="43.69319" lon="3.71017">
        <ele>264.20001220703</ele>
        <time>2012-02-04T14:56:49.000Z</time>
      </trkpt>
      <trkpt lat="43.69326" lon="3.71023">
        <ele>264.20001220703</ele>
        <time>2012-02-04T14:56:53.000Z</time>
      </trkpt>
      <trkpt lat="43.6933" lon="3.71025">
        <ele>264.20001220703</ele>
        <time>2012-02-04T14:56:55.000Z</time>
      </trkpt>
      <trkpt lat="43.6934" lon="3.71032">
        <ele>263.79998779297</ele>
        <time>2012-02-04T14:57:01.000Z</time>
      </trkpt>
      <trkpt lat="43.69343" lon="3.71036">
        <ele>263.60000610352</ele>
        <time>2012-02-04T14:57:05.000Z</time>
      </trkpt>
      <trkpt lat="43.69353" lon="3.71039">
        <ele>262.79998779297</ele>
        <time>2012-02-04T14:57:11.000Z</time>
      </trkpt>
      <trkpt lat="43.69359" lon="3.71041">
        <ele>262.20001220703</ele>
        <time>2012-02-04T14:57:15.000Z</time>
      </trkpt>
      <trkpt lat="43.69363" lon="3.71042">
        <ele>261.79998779297</ele>
        <time>2012-02-04T14:57:17.000Z</time>
      </trkpt>
      <trkpt lat="43.69368" lon="3.71046">
        <ele>261.20001220703</ele>
        <time>2012-02-04T14:57:20.000Z</time>
      </trkpt>
      <trkpt lat="43.69373" lon="3.71049">
        <ele>260.79998779297</ele>
        <time>2012-02-04T14:57:24.000Z</time>
      </trkpt>
      <trkpt lat="43.6938" lon="3.71055">
        <ele>259.79998779297</ele>
        <time>2012-02-04T14:57:30.000Z</time>
      </trkpt>
      <trkpt lat="43.69389" lon="3.7106">
        <ele>258.60000610352</ele>
        <time>2012-02-04T14:57:36.000Z</time>
      </trkpt>
      <trkpt lat="43.69392" lon="3.7106">
        <ele>258.39999389648</ele>
        <time>2012-02-04T14:57:38.000Z</time>
      </trkpt>
      <trkpt lat="43.69403" lon="3.71062">
        <ele>257</ele>
        <time>2012-02-04T14:57:44.000Z</time>
      </trkpt>
      <trkpt lat="43.69409" lon="3.71067">
        <ele>256</ele>
        <time>2012-02-04T14:57:48.000Z</time>
      </trkpt>
      <trkpt lat="43.69415" lon="3.71068">
        <ele>255.19999694824</ele>
        <time>2012-02-04T14:57:51.000Z</time>
      </trkpt>
      <trkpt lat="43.69424" lon="3.71072">
        <ele>254</ele>
        <time>2012-02-04T14:57:57.000Z</time>
      </trkpt>
      <trkpt lat="43.69428" lon="3.71074">
        <ele>253.39999389648</ele>
        <time>2012-02-04T14:58:00.000Z</time>
      </trkpt>
      <trkpt lat="43.69436" lon="3.7108">
        <ele>251.80000305176</ele>
        <time>2012-02-04T14:58:06.000Z</time>
      </trkpt>
      <trkpt lat="43.69447" lon="3.71084">
        <ele>250</ele>
        <time>2012-02-04T14:58:13.000Z</time>
      </trkpt>
      <trkpt lat="43.69455" lon="3.71088">
        <ele>249</ele>
        <time>2012-02-04T14:58:18.000Z</time>
      </trkpt>
      <trkpt lat="43.69461" lon="3.71095">
        <ele>248.19999694824</ele>
        <time>2012-02-04T14:58:23.000Z</time>
      </trkpt>
      <trkpt lat="43.69466" lon="3.711">
        <ele>247.39999389648</ele>
        <time>2012-02-04T14:58:26.000Z</time>
      </trkpt>
      <trkpt lat="43.69477" lon="3.71104">
        <ele>245.60000610352</ele>
        <time>2012-02-04T14:58:33.000Z</time>
      </trkpt>
      <trkpt lat="43.69479" lon="3.71105">
        <ele>245.19999694824</ele>
        <time>2012-02-04T14:58:34.000Z</time>
      </trkpt>
      <trkpt lat="43.69488" lon="3.71112">
        <ele>243.60000610352</ele>
        <time>2012-02-04T14:58:40.000Z</time>
      </trkpt>
      <trkpt lat="43.69495" lon="3.7112">
        <ele>242.19999694824</ele>
        <time>2012-02-04T14:58:46.000Z</time>
      </trkpt>
      <trkpt lat="43.69498" lon="3.71123">
        <ele>241.39999389648</ele>
        <time>2012-02-04T14:58:49.000Z</time>
      </trkpt>
      <trkpt lat="43.69503" lon="3.71127">
        <ele>240.80000305176</ele>
        <time>2012-02-04T14:58:53.000Z</time>
      </trkpt>
      <trkpt lat="43.6951" lon="3.71136">
        <ele>240</ele>
        <time>2012-02-04T14:59:00.000Z</time>
      </trkpt>
      <trkpt lat="43.69513" lon="3.71138">
        <ele>239.80000305176</ele>
        <time>2012-02-04T14:59:02.000Z</time>
      </trkpt>
      <trkpt lat="43.69517" lon="3.71142">
        <ele>239.19999694824</ele>
        <time>2012-02-04T14:59:05.000Z</time>
      </trkpt>
      <trkpt lat="43.69523" lon="3.71149">
        <ele>238.19999694824</ele>
        <time>2012-02-04T14:59:11.000Z</time>
      </trkpt>
      <trkpt lat="43.69528" lon="3.71155">
        <ele>237.19999694824</ele>
        <time>2012-02-04T14:59:15.000Z</time>
      </trkpt>
      <trkpt lat="43.69534" lon="3.71162">
        <ele>235.80000305176</ele>
        <time>2012-02-04T14:59:20.000Z</time>
      </trkpt>
      <trkpt lat="43.69539" lon="3.7117">
        <ele>234.80000305176</ele>
        <time>2012-02-04T14:59:25.000Z</time>
      </trkpt>
      <trkpt lat="43.69545" lon="3.71181">
        <ele>233.80000305176</ele>
        <time>2012-02-04T14:59:32.000Z</time>
      </trkpt>
      <trkpt lat="43.69546" lon="3.71182">
        <ele>233.60000610352</ele>
        <time>2012-02-04T14:59:33.000Z</time>
      </trkpt>
      <trkpt lat="43.69553" lon="3.71191">
        <ele>232.19999694824</ele>
        <time>2012-02-04T14:59:39.000Z</time>
      </trkpt>
      <trkpt lat="43.69556" lon="3.71199">
        <ele>231.19999694824</ele>
        <time>2012-02-04T14:59:42.000Z</time>
      </trkpt>
      <trkpt lat="43.69559" lon="3.71202">
        <ele>230.60000610352</ele>
        <time>2012-02-04T14:59:45.000Z</time>
      </trkpt>
      <trkpt lat="43.69564" lon="3.71211">
        <ele>229</ele>
        <time>2012-02-04T14:59:50.000Z</time>
      </trkpt>
      <trkpt lat="43.69566" lon="3.71215">
        <ele>228.19999694824</ele>
        <time>2012-02-04T14:59:52.000Z</time>
      </trkpt>
      <trkpt lat="43.69573" lon="3.71226">
        <ele>226</ele>
        <time>2012-02-04T14:59:58.000Z</time>
      </trkpt>
      <trkpt lat="43.69581" lon="3.71235">
        <ele>223.19999694824</ele>
        <time>2012-02-04T15:00:04.000Z</time>
      </trkpt>
      <trkpt lat="43.69583" lon="3.71235">
        <ele>222.80000305176</ele>
        <time>2012-02-04T15:00:05.000Z</time>
      </trkpt>
      <trkpt lat="43.69586" lon="3.71236">
        <ele>222.60000610352</ele>
        <time>2012-02-04T15:00:07.000Z</time>
      </trkpt>
      <trkpt lat="43.69595" lon="3.71241">
        <ele>222.19999694824</ele>
        <time>2012-02-04T15:00:13.000Z</time>
      </trkpt>
      <trkpt lat="43.69597" lon="3.7124">
        <ele>222.39999389648</ele>
        <time>2012-02-04T15:00:24.000Z</time>
      </trkpt>
      <trkpt lat="43.69597" lon="3.71238">
        <ele>222.80000305176</ele>
        <time>2012-02-04T15:00:30.000Z</time>
      </trkpt>
      <trkpt lat="43.69598" lon="3.71241">
        <ele>222.39999389648</ele>
        <time>2012-02-04T15:00:35.000Z</time>
      </trkpt>
      <trkpt lat="43.69599" lon="3.71239">
        <ele>222.60000610352</ele>
        <time>2012-02-04T15:00:48.000Z</time>
      </trkpt>
      <trkpt lat="43.69601" lon="3.71239">
        <ele>222.60000610352</ele>
        <time>2012-02-04T15:01:10.000Z</time>
      </trkpt>
      <trkpt lat="43.69604" lon="3.71246">
        <ele>221.80000305176</ele>
        <time>2012-02-04T15:01:15.000Z</time>
      </trkpt>
      <trkpt lat="43.69604" lon="3.71255">
        <ele>221.19999694824</ele>
        <time>2012-02-04T15:01:19.000Z</time>
      </trkpt>
      <trkpt lat="43.6961" lon="3.71268">
        <ele>221</ele>
        <time>2012-02-04T15:01:26.000Z</time>
      </trkpt>
      <trkpt lat="43.69614" lon="3.71275">
        <ele>220.60000610352</ele>
        <time>2012-02-04T15:01:30.000Z</time>
      </trkpt>
      <trkpt lat="43.6962" lon="3.71284">
        <ele>220.19999694824</ele>
        <time>2012-02-04T15:01:35.000Z</time>
      </trkpt>
      <trkpt lat="43.69622" lon="3.71291">
        <ele>219.80000305176</ele>
        <time>2012-02-04T15:01:38.000Z</time>
      </trkpt>
      <trkpt lat="43.6963" lon="3.71301">
        <ele>218.60000610352</ele>
        <time>2012-02-04T15:01:44.000Z</time>
      </trkpt>
      <trkpt lat="43.69638" lon="3.71319">
        <ele>216.80000305176</ele>
        <time>2012-02-04T15:01:52.000Z</time>
      </trkpt>
      <trkpt lat="43.6964" lon="3.71323">
        <ele>216.19999694824</ele>
        <time>2012-02-04T15:01:54.000Z</time>
      </trkpt>
      <trkpt lat="43.69644" lon="3.71336">
        <ele>215</ele>
        <time>2012-02-04T15:02:00.000Z</time>
      </trkpt>
      <trkpt lat="43.69646" lon="3.71342">
        <ele>214.60000610352</ele>
        <time>2012-02-04T15:02:03.000Z</time>
      </trkpt>
      <trkpt lat="43.69649" lon="3.71351">
        <ele>213.80000305176</ele>
        <time>2012-02-04T15:02:07.000Z</time>
      </trkpt>
      <trkpt lat="43.69651" lon="3.71359">
        <ele>213.19999694824</ele>
        <time>2012-02-04T15:02:11.000Z</time>
      </trkpt>
      <trkpt lat="43.69653" lon="3.71364">
        <ele>212.60000610352</ele>
        <time>2012-02-04T15:02:13.000Z</time>
      </trkpt>
      <trkpt lat="43.69657" lon="3.71379">
        <ele>211.39999389648</ele>
        <time>2012-02-04T15:02:19.000Z</time>
      </trkpt>
      <trkpt lat="43.69661" lon="3.71396">
        <ele>210.19999694824</ele>
        <time>2012-02-04T15:02:26.000Z</time>
      </trkpt>
      <trkpt lat="43.69662" lon="3.71401">
        <ele>209.60000610352</ele>
        <time>2012-02-04T15:02:29.000Z</time>
      </trkpt>
      <trkpt lat="43.69665" lon="3.71418">
        <ele>208</ele>
        <time>2012-02-04T15:02:35.000Z</time>
      </trkpt>
      <trkpt lat="43.69666" lon="3.71431">
        <ele>205.39999389648</ele>
        <time>2012-02-04T15:02:40.000Z</time>
      </trkpt>
      <trkpt lat="43.69667" lon="3.71442">
        <ele>203.39999389648</ele>
        <time>2012-02-04T15:02:44.000Z</time>
      </trkpt>
      <trkpt lat="43.69667" lon="3.71453">
        <ele>201</ele>
        <time>2012-02-04T15:02:50.000Z</time>
      </trkpt>
      <trkpt lat="43.69668" lon="3.71463">
        <ele>199.39999389648</ele>
        <time>2012-02-04T15:02:54.000Z</time>
      </trkpt>
      <trkpt lat="43.69669" lon="3.71469">
        <ele>198.39999389648</ele>
        <time>2012-02-04T15:02:57.000Z</time>
      </trkpt>
      <trkpt lat="43.6967" lon="3.71476">
        <ele>197</ele>
        <time>2012-02-04T15:03:01.000Z</time>
      </trkpt>
      <trkpt lat="43.69671" lon="3.71481">
        <ele>196.19999694824</ele>
        <time>2012-02-04T15:03:04.000Z</time>
      </trkpt>
      <trkpt lat="43.6967" lon="3.71488">
        <ele>194.80000305176</ele>
        <time>2012-02-04T15:03:08.000Z</time>
      </trkpt>
      <trkpt lat="43.6967" lon="3.71493">
        <ele>193.80000305176</ele>
        <time>2012-02-04T15:03:11.000Z</time>
      </trkpt>
      <trkpt lat="43.69675" lon="3.71502">
        <ele>192.60000610352</ele>
        <time>2012-02-04T15:03:16.000Z</time>
      </trkpt>
      <trkpt lat="43.69678" lon="3.71508">
        <ele>191.60000610352</ele>
        <time>2012-02-04T15:03:22.000Z</time>
      </trkpt>
      <trkpt lat="43.6968" lon="3.71513">
        <ele>190.39999389648</ele>
        <time>2012-02-04T15:03:27.000Z</time>
      </trkpt>
      <trkpt lat="43.6968" lon="3.7152">
        <ele>188.80000305176</ele>
        <time>2012-02-04T15:03:31.000Z</time>
      </trkpt>
      <trkpt lat="43.6968" lon="3.71522">
        <ele>188.19999694824</ele>
        <time>2012-02-04T15:03:32.000Z</time>
      </trkpt>
      <trkpt lat="43.69682" lon="3.71529">
        <ele>186.60000610352</ele>
        <time>2012-02-04T15:03:36.000Z</time>
      </trkpt>
      <trkpt lat="43.69681" lon="3.71537">
        <ele>184.60000610352</ele>
        <time>2012-02-04T15:03:41.000Z</time>
      </trkpt>
      <trkpt lat="43.6968" lon="3.71546">
        <ele>182.19999694824</ele>
        <time>2012-02-04T15:03:46.000Z</time>
      </trkpt>
      <trkpt lat="43.6968" lon="3.71556">
        <ele>179.80000305176</ele>
        <time>2012-02-04T15:03:52.000Z</time>
      </trkpt>
      <trkpt lat="43.69678" lon="3.71563">
        <ele>177.80000305176</ele>
        <time>2012-02-04T15:03:56.000Z</time>
      </trkpt>
      <trkpt lat="43.69675" lon="3.71579">
        <ele>174</ele>
        <time>2012-02-04T15:04:04.000Z</time>
      </trkpt>
      <trkpt lat="43.69674" lon="3.71583">
        <ele>173</ele>
        <time>2012-02-04T15:04:06.000Z</time>
      </trkpt>
      <trkpt lat="43.69675" lon="3.71585">
        <ele>172.39999389648</ele>
        <time>2012-02-04T15:04:08.000Z</time>
      </trkpt>
      <trkpt lat="43.69676" lon="3.71594">
        <ele>170.60000610352</ele>
        <time>2012-02-04T15:04:12.000Z</time>
      </trkpt>
      <trkpt lat="43.69674" lon="3.71606">
        <ele>167.60000610352</ele>
        <time>2012-02-04T15:04:18.000Z</time>
      </trkpt>
      <trkpt lat="43.69671" lon="3.71616">
        <ele>165.39999389648</ele>
        <time>2012-02-04T15:04:23.000Z</time>
      </trkpt>
      <trkpt lat="43.6967" lon="3.71619">
        <ele>165</ele>
        <time>2012-02-04T15:04:25.000Z</time>
      </trkpt>
      <trkpt lat="43.6967" lon="3.71621">
        <ele>164.39999389648</ele>
        <time>2012-02-04T15:04:35.000Z</time>
      </trkpt>
      <trkpt lat="43.6967" lon="3.71624">
        <ele>163.80000305176</ele>
        <time>2012-02-04T15:04:43.000Z</time>
      </trkpt>
      <trkpt lat="43.69669" lon="3.71631">
        <ele>162.19999694824</ele>
        <time>2012-02-04T15:04:48.000Z</time>
      </trkpt>
      <trkpt lat="43.69669" lon="3.71634">
        <ele>161.60000610352</ele>
        <time>2012-02-04T15:04:50.000Z</time>
      </trkpt>
      <trkpt lat="43.69668" lon="3.71637">
        <ele>160.80000305176</ele>
        <time>2012-02-04T15:04:52.000Z</time>
      </trkpt>
      <trkpt lat="43.69669" lon="3.71651">
        <ele>157.60000610352</ele>
        <time>2012-02-04T15:04:58.000Z</time>
      </trkpt>
      <trkpt lat="43.69669" lon="3.71656">
        <ele>156.39999389648</ele>
        <time>2012-02-04T15:05:00.000Z</time>
      </trkpt>
      <trkpt lat="43.69673" lon="3.71673">
        <ele>153.19999694824</ele>
        <time>2012-02-04T15:05:07.000Z</time>
      </trkpt>
      <trkpt lat="43.69675" lon="3.71678">
        <ele>152.39999389648</ele>
        <time>2012-02-04T15:05:10.000Z</time>
      </trkpt>
      <trkpt lat="43.69676" lon="3.71681">
        <ele>152</ele>
        <time>2012-02-04T15:05:17.000Z</time>
      </trkpt>
      <trkpt lat="43.69675" lon="3.71681">
        <ele>152</ele>
        <time>2012-02-04T15:05:36.000Z</time>
      </trkpt>
      <trkpt lat="43.69679" lon="3.7169">
        <ele>150.80000305176</ele>
        <time>2012-02-04T15:05:42.000Z</time>
      </trkpt>
      <trkpt lat="43.69682" lon="3.71703">
        <ele>149</ele>
        <time>2012-02-04T15:05:48.000Z</time>
      </trkpt>
      <trkpt lat="43.69681" lon="3.71714">
        <ele>147.39999389648</ele>
        <time>2012-02-04T15:05:53.000Z</time>
      </trkpt>
      <trkpt lat="43.69681" lon="3.7172">
        <ele>146.60000610352</ele>
        <time>2012-02-04T15:05:56.000Z</time>
      </trkpt>
      <trkpt lat="43.69688" lon="3.71725">
        <ele>145.80000305176</ele>
        <time>2012-02-04T15:06:01.000Z</time>
      </trkpt>
      <trkpt lat="43.69701" lon="3.7173">
        <ele>145</ele>
        <time>2012-02-04T15:06:07.000Z</time>
      </trkpt>
      <trkpt lat="43.69712" lon="3.7174">
        <ele>143.19999694824</ele>
        <time>2012-02-04T15:06:12.000Z</time>
      </trkpt>
      <trkpt lat="43.69726" lon="3.71749">
        <ele>141.80000305176</ele>
        <time>2012-02-04T15:06:19.000Z</time>
      </trkpt>
      <trkpt lat="43.69737" lon="3.71759">
        <ele>140.60000610352</ele>
        <time>2012-02-04T15:06:25.000Z</time>
      </trkpt>
      <trkpt lat="43.69746" lon="3.71768">
        <ele>139.60000610352</ele>
        <time>2012-02-04T15:06:30.000Z</time>
      </trkpt>
      <trkpt lat="43.69752" lon="3.71776">
        <ele>138.80000305176</ele>
        <time>2012-02-04T15:06:33.000Z</time>
      </trkpt>
      <trkpt lat="43.69762" lon="3.71795">
        <ele>137</ele>
        <time>2012-02-04T15:06:40.000Z</time>
      </trkpt>
      <trkpt lat="43.69772" lon="3.7181">
        <ele>135.60000610352</ele>
        <time>2012-02-04T15:06:46.000Z</time>
      </trkpt>
      <trkpt lat="43.69783" lon="3.71824">
        <ele>134.39999389648</ele>
        <time>2012-02-04T15:06:52.000Z</time>
      </trkpt>
      <trkpt lat="43.69792" lon="3.71832">
        <ele>133.60000610352</ele>
        <time>2012-02-04T15:06:57.000Z</time>
      </trkpt>
      <trkpt lat="43.69797" lon="3.71835">
        <ele>133.39999389648</ele>
        <time>2012-02-04T15:07:02.000Z</time>
      </trkpt>
      <trkpt lat="43.69802" lon="3.71835">
        <ele>133.39999389648</ele>
        <time>2012-02-04T15:07:13.000Z</time>
      </trkpt>
      <trkpt lat="43.6981" lon="3.71837">
        <ele>133.19999694824</ele>
        <time>2012-02-04T15:07:22.000Z</time>
      </trkpt>
      <trkpt lat="43.6981" lon="3.71837">
        <ele>133.19999694824</ele>
        <time>2012-02-04T15:07:34.000Z</time>
      </trkpt>
      <trkpt lat="43.69815" lon="3.71836">
        <ele>133.19999694824</ele>
        <time>2012-02-04T15:07:48.000Z</time>
      </trkpt>
      <trkpt lat="43.69818" lon="3.71835">
        <ele>133.19999694824</ele>
        <time>2012-02-04T15:07:51.000Z</time>
      </trkpt>
      <trkpt lat="43.69833" lon="3.71826">
        <ele>133.60000610352</ele>
        <time>2012-02-04T15:07:58.000Z</time>
      </trkpt>
      <trkpt lat="43.6985" lon="3.71818">
        <ele>133.19999694824</ele>
        <time>2012-02-04T15:08:05.000Z</time>
      </trkpt>
      <trkpt lat="43.69864" lon="3.71815">
        <ele>132.60000610352</ele>
        <time>2012-02-04T15:08:10.000Z</time>
      </trkpt>
      <trkpt lat="43.69874" lon="3.71816">
        <ele>132.19999694824</ele>
        <time>2012-02-04T15:08:14.000Z</time>
      </trkpt>
      <trkpt lat="43.69887" lon="3.71824">
        <ele>131</ele>
        <time>2012-02-04T15:08:20.000Z</time>
      </trkpt>
      <trkpt lat="43.69899" lon="3.71837">
        <ele>130</ele>
        <time>2012-02-04T15:08:26.000Z</time>
      </trkpt>
      <trkpt lat="43.69911" lon="3.7185">
        <ele>129.60000610352</ele>
        <time>2012-02-04T15:08:32.000Z</time>
      </trkpt>
      <trkpt lat="43.69923" lon="3.71856">
        <ele>129.80000305176</ele>
        <time>2012-02-04T15:08:37.000Z</time>
      </trkpt>
      <trkpt lat="43.69933" lon="3.71859">
        <ele>130</ele>
        <time>2012-02-04T15:08:41.000Z</time>
      </trkpt>
      <trkpt lat="43.69942" lon="3.71861">
        <ele>130.19999694824</ele>
        <time>2012-02-04T15:08:45.000Z</time>
      </trkpt>
      <trkpt lat="43.69954" lon="3.71869">
        <ele>130.60000610352</ele>
        <time>2012-02-04T15:08:51.000Z</time>
      </trkpt>
      <trkpt lat="43.69966" lon="3.71882">
        <ele>131</ele>
        <time>2012-02-04T15:08:58.000Z</time>
      </trkpt>
      <trkpt lat="43.69974" lon="3.7189">
        <ele>131</ele>
        <time>2012-02-04T15:09:03.000Z</time>
      </trkpt>
      <trkpt lat="43.69983" lon="3.71899">
        <ele>131</ele>
        <time>2012-02-04T15:09:11.000Z</time>
      </trkpt>
      <trkpt lat="43.69989" lon="3.71901">
        <ele>131.19999694824</ele>
        <time>2012-02-04T15:09:18.000Z</time>
      </trkpt>
      <trkpt lat="43.6999" lon="3.71899">
        <ele>131.19999694824</ele>
        <time>2012-02-04T15:09:39.000Z</time>
      </trkpt>
      <trkpt lat="43.69988" lon="3.71901">
        <ele>131.19999694824</ele>
        <time>2012-02-04T15:09:58.000Z</time>
      </trkpt>
      <trkpt lat="43.69987" lon="3.71904">
        <ele>131</ele>
        <time>2012-02-04T15:10:03.000Z</time>
      </trkpt>
      <trkpt lat="43.69987" lon="3.719">
        <ele>131.19999694824</ele>
        <time>2012-02-04T15:10:27.000Z</time>
      </trkpt>
      <trkpt lat="43.69983" lon="3.71894">
        <ele>131.19999694824</ele>
        <time>2012-02-04T15:10:32.000Z</time>
      </trkpt>
      <trkpt lat="43.69977" lon="3.71887">
        <ele>131</ele>
        <time>2012-02-04T15:10:37.000Z</time>
      </trkpt>
      <trkpt lat="43.69975" lon="3.71871">
        <ele>131</ele>
        <time>2012-02-04T15:10:42.000Z</time>
      </trkpt>
      <trkpt lat="43.6998" lon="3.71861">
        <ele>131.19999694824</ele>
        <time>2012-02-04T15:10:46.000Z</time>
      </trkpt>
      <trkpt lat="43.69999" lon="3.71858">
        <ele>131.60000610352</ele>
        <time>2012-02-04T15:10:54.000Z</time>
      </trkpt>
      <trkpt lat="43.70005" lon="3.71859">
        <ele>131.80000305176</ele>
        <time>2012-02-04T15:10:57.000Z</time>
      </trkpt>
      <trkpt lat="43.70014" lon="3.71868">
        <ele>131.80000305176</ele>
        <time>2012-02-04T15:11:02.000Z</time>
      </trkpt>
      <trkpt lat="43.70025" lon="3.71876">
        <ele>132</ele>
        <time>2012-02-04T15:11:08.000Z</time>
      </trkpt>
      <trkpt lat="43.70037" lon="3.71886">
        <ele>132.19999694824</ele>
        <time>2012-02-04T15:11:14.000Z</time>
      </trkpt>
      <trkpt lat="43.70049" lon="3.71892">
        <ele>132.60000610352</ele>
        <time>2012-02-04T15:11:20.000Z</time>
      </trkpt>
      <trkpt lat="43.70062" lon="3.71891">
        <ele>132.80000305176</ele>
        <time>2012-02-04T15:11:26.000Z</time>
      </trkpt>
      <trkpt lat="43.70074" lon="3.71891">
        <ele>133.19999694824</ele>
        <time>2012-02-04T15:11:31.000Z</time>
      </trkpt>
      <trkpt lat="43.70084" lon="3.71898">
        <ele>133.60000610352</ele>
        <time>2012-02-04T15:11:37.000Z</time>
      </trkpt>
      <trkpt lat="43.70095" lon="3.71908">
        <ele>134.80000305176</ele>
        <time>2012-02-04T15:11:43.000Z</time>
      </trkpt>
      <trkpt lat="43.70106" lon="3.71917">
        <ele>135.80000305176</ele>
        <time>2012-02-04T15:11:49.000Z</time>
      </trkpt>
      <trkpt lat="43.70116" lon="3.71925">
        <ele>137</ele>
        <time>2012-02-04T15:11:55.000Z</time>
      </trkpt>
      <trkpt lat="43.70127" lon="3.71934">
        <ele>138.19999694824</ele>
        <time>2012-02-04T15:12:01.000Z</time>
      </trkpt>
      <trkpt lat="43.70129" lon="3.71936">
        <ele>138.39999389648</ele>
        <time>2012-02-04T15:12:03.000Z</time>
      </trkpt>
      <trkpt lat="43.70127" lon="3.71944">
        <ele>138.60000610352</ele>
        <time>2012-02-04T15:12:07.000Z</time>
      </trkpt>
      <trkpt lat="43.70121" lon="3.71951">
        <ele>138.19999694824</ele>
        <time>2012-02-04T15:12:11.000Z</time>
      </trkpt>
      <trkpt lat="43.70111" lon="3.71962">
        <ele>137.39999389648</ele>
        <time>2012-02-04T15:12:17.000Z</time>
      </trkpt>
      <trkpt lat="43.70104" lon="3.71978">
        <ele>137</ele>
        <time>2012-02-04T15:12:23.000Z</time>
      </trkpt>
      <trkpt lat="43.70102" lon="3.71995">
        <ele>137</ele>
        <time>2012-02-04T15:12:28.000Z</time>
      </trkpt>
      <trkpt lat="43.70098" lon="3.72007">
        <ele>137.39999389648</ele>
        <time>2012-02-04T15:12:32.000Z</time>
      </trkpt>
      <trkpt lat="43.70092" lon="3.72017">
        <ele>137.60000610352</ele>
        <time>2012-02-04T15:12:37.000Z</time>
      </trkpt>
      <trkpt lat="43.70092" lon="3.72022">
        <ele>138</ele>
        <time>2012-02-04T15:12:42.000Z</time>
      </trkpt>
      <trkpt lat="43.70093" lon="3.72023">
        <ele>138.19999694824</ele>
        <time>2012-02-04T15:12:46.000Z</time>
      </trkpt>
      <trkpt lat="43.70089" lon="3.7203">
        <ele>138.39999389648</ele>
        <time>2012-02-04T15:12:51.000Z</time>
      </trkpt>
      <trkpt lat="43.70083" lon="3.72048">
        <ele>139.60000610352</ele>
        <time>2012-02-04T15:12:58.000Z</time>
      </trkpt>
      <trkpt lat="43.70076" lon="3.72064">
        <ele>140.80000305176</ele>
        <time>2012-02-04T15:13:05.000Z</time>
      </trkpt>
      <trkpt lat="43.70073" lon="3.72078">
        <ele>142</ele>
        <time>2012-02-04T15:13:11.000Z</time>
      </trkpt>
      <trkpt lat="43.70068" lon="3.72092">
        <ele>143.60000610352</ele>
        <time>2012-02-04T15:13:17.000Z</time>
      </trkpt>
      <trkpt lat="43.70062" lon="3.72103">
        <ele>144.80000305176</ele>
        <time>2012-02-04T15:13:22.000Z</time>
      </trkpt>
      <trkpt lat="43.70056" lon="3.72122">
        <ele>147</ele>
        <time>2012-02-04T15:13:29.000Z</time>
      </trkpt>
      <trkpt lat="43.70048" lon="3.72135">
        <ele>148.39999389648</ele>
        <time>2012-02-04T15:13:35.000Z</time>
      </trkpt>
      <trkpt lat="43.70039" lon="3.72149">
        <ele>149.39999389648</ele>
        <time>2012-02-04T15:13:41.000Z</time>
      </trkpt>
      <trkpt lat="43.70033" lon="3.72161">
        <ele>150.19999694824</ele>
        <time>2012-02-04T15:13:46.000Z</time>
      </trkpt>
      <trkpt lat="43.70024" lon="3.72173">
        <ele>150.39999389648</ele>
        <time>2012-02-04T15:13:52.000Z</time>
      </trkpt>
      <trkpt lat="43.70018" lon="3.72185">
        <ele>150.60000610352</ele>
        <time>2012-02-04T15:13:58.000Z</time>
      </trkpt>
      <trkpt lat="43.70008" lon="3.72197">
        <ele>150.60000610352</ele>
        <time>2012-02-04T15:14:04.000Z</time>
      </trkpt>
      <trkpt lat="43.70002" lon="3.72207">
        <ele>150.60000610352</ele>
        <time>2012-02-04T15:14:09.000Z</time>
      </trkpt>
      <trkpt lat="43.69996" lon="3.72224">
        <ele>151.80000305176</ele>
        <time>2012-02-04T15:14:16.000Z</time>
      </trkpt>
      <trkpt lat="43.69989" lon="3.72237">
        <ele>152.60000610352</ele>
        <time>2012-02-04T15:14:22.000Z</time>
      </trkpt>
      <trkpt lat="43.6998" lon="3.7225">
        <ele>153.60000610352</ele>
        <time>2012-02-04T15:14:28.000Z</time>
      </trkpt>
      <trkpt lat="43.69971" lon="3.72258">
        <ele>152.80000305176</ele>
        <time>2012-02-04T15:14:33.000Z</time>
      </trkpt>
      <trkpt lat="43.69961" lon="3.72267">
        <ele>152.39999389648</ele>
        <time>2012-02-04T15:14:38.000Z</time>
      </trkpt>
      <trkpt lat="43.69954" lon="3.72271">
        <ele>152</ele>
        <time>2012-02-04T15:14:42.000Z</time>
      </trkpt>
      <trkpt lat="43.69948" lon="3.72282">
        <ele>151.80000305176</ele>
        <time>2012-02-04T15:14:49.000Z</time>
      </trkpt>
      <trkpt lat="43.69944" lon="3.72288">
        <ele>151.60000610352</ele>
        <time>2012-02-04T15:14:54.000Z</time>
      </trkpt>
      <trkpt lat="43.6994" lon="3.72298">
        <ele>151.39999389648</ele>
        <time>2012-02-04T15:15:01.000Z</time>
      </trkpt>
      <trkpt lat="43.69937" lon="3.72306">
        <ele>151.39999389648</ele>
        <time>2012-02-04T15:15:07.000Z</time>
      </trkpt>
      <trkpt lat="43.69931" lon="3.72312">
        <ele>151.39999389648</ele>
        <time>2012-02-04T15:15:13.000Z</time>
      </trkpt>
      <trkpt lat="43.69922" lon="3.72319">
        <ele>151.80000305176</ele>
        <time>2012-02-04T15:15:21.000Z</time>
      </trkpt>
      <trkpt lat="43.69922" lon="3.72319">
        <ele>151.80000305176</ele>
        <time>2012-02-04T15:15:22.000Z</time>
      </trkpt>
      <trkpt lat="43.6992" lon="3.72322">
        <ele>151.80000305176</ele>
        <time>2012-02-04T15:15:31.000Z</time>
      </trkpt>
      <trkpt lat="43.69915" lon="3.72323">
        <ele>152.19999694824</ele>
        <time>2012-02-04T15:15:48.000Z</time>
      </trkpt>
      <trkpt lat="43.69912" lon="3.72324">
        <ele>153</ele>
        <time>2012-02-04T15:15:51.000Z</time>
      </trkpt>
      <trkpt lat="43.69907" lon="3.72325">
        <ele>154</ele>
        <time>2012-02-04T15:15:56.000Z</time>
      </trkpt>
      <trkpt lat="43.699" lon="3.72327">
        <ele>155.80000305176</ele>
        <time>2012-02-04T15:16:01.000Z</time>
      </trkpt>
      <trkpt lat="43.6989" lon="3.72333">
        <ele>157.80000305176</ele>
        <time>2012-02-04T15:16:06.000Z</time>
      </trkpt>
      <trkpt lat="43.69882" lon="3.72339">
        <ele>159</ele>
        <time>2012-02-04T15:16:10.000Z</time>
      </trkpt>
      <trkpt lat="43.6987" lon="3.72348">
        <ele>160.60000610352</ele>
        <time>2012-02-04T15:16:16.000Z</time>
      </trkpt>
      <trkpt lat="43.69861" lon="3.72355">
        <ele>161.39999389648</ele>
        <time>2012-02-04T15:16:20.000Z</time>
      </trkpt>
      <trkpt lat="43.69853" lon="3.72362">
        <ele>162</ele>
        <time>2012-02-04T15:16:24.000Z</time>
      </trkpt>
      <trkpt lat="43.69844" lon="3.72368">
        <ele>162.80000305176</ele>
        <time>2012-02-04T15:16:29.000Z</time>
      </trkpt>
      <trkpt lat="43.69833" lon="3.72375">
        <ele>163.60000610352</ele>
        <time>2012-02-04T15:16:35.000Z</time>
      </trkpt>
      <trkpt lat="43.69824" lon="3.72381">
        <ele>162.80000305176</ele>
        <time>2012-02-04T15:16:41.000Z</time>
      </trkpt>
      <trkpt lat="43.69818" lon="3.72386">
        <ele>162.39999389648</ele>
        <time>2012-02-04T15:16:44.000Z</time>
      </trkpt>
      <trkpt lat="43.6981" lon="3.72393">
        <ele>161.80000305176</ele>
        <time>2012-02-04T15:16:49.000Z</time>
      </trkpt>
      <trkpt lat="43.698" lon="3.72402">
        <ele>161.19999694824</ele>
        <time>2012-02-04T15:16:55.000Z</time>
      </trkpt>
      <trkpt lat="43.69789" lon="3.72398">
        <ele>162.19999694824</ele>
        <time>2012-02-04T15:17:02.000Z</time>
      </trkpt>
      <trkpt lat="43.69781" lon="3.72394">
        <ele>163</ele>
        <time>2012-02-04T15:17:07.000Z</time>
      </trkpt>
      <trkpt lat="43.69776" lon="3.72392">
        <ele>163.60000610352</ele>
        <time>2012-02-04T15:17:10.000Z</time>
      </trkpt>
      <trkpt lat="43.69773" lon="3.72389">
        <ele>164</ele>
        <time>2012-02-04T15:17:17.000Z</time>
      </trkpt>
      <trkpt lat="43.69772" lon="3.72389">
        <ele>164</ele>
        <time>2012-02-04T15:17:33.000Z</time>
      </trkpt>
      <trkpt lat="43.69772" lon="3.72389">
        <ele>164</ele>
        <time>2012-02-04T15:17:46.000Z</time>
      </trkpt>
      <trkpt lat="43.6977" lon="3.72393">
        <ele>163.80000305176</ele>
        <time>2012-02-04T15:17:50.000Z</time>
      </trkpt>
      <trkpt lat="43.69765" lon="3.72404">
        <ele>163</ele>
        <time>2012-02-04T15:17:57.000Z</time>
      </trkpt>
      <trkpt lat="43.69754" lon="3.72411">
        <ele>163.19999694824</ele>
        <time>2012-02-04T15:18:06.000Z</time>
      </trkpt>
      <trkpt lat="43.6975" lon="3.72414">
        <ele>163.19999694824</ele>
        <time>2012-02-04T15:18:09.000Z</time>
      </trkpt>
      <trkpt lat="43.69745" lon="3.72413">
        <ele>162.19999694824</ele>
        <time>2012-02-04T15:18:13.000Z</time>
      </trkpt>
      <trkpt lat="43.69743" lon="3.72418">
        <ele>161.39999389648</ele>
        <time>2012-02-04T15:18:16.000Z</time>
      </trkpt>
      <trkpt lat="43.69739" lon="3.72434">
        <ele>159.60000610352</ele>
        <time>2012-02-04T15:18:22.000Z</time>
      </trkpt>
      <trkpt lat="43.69734" lon="3.72447">
        <ele>158</ele>
        <time>2012-02-04T15:18:27.000Z</time>
      </trkpt>
      <trkpt lat="43.69729" lon="3.72458">
        <ele>156.39999389648</ele>
        <time>2012-02-04T15:18:32.000Z</time>
      </trkpt>
      <trkpt lat="43.69726" lon="3.72467">
        <ele>155.60000610352</ele>
        <time>2012-02-04T15:18:36.000Z</time>
      </trkpt>
      <trkpt lat="43.69723" lon="3.72478">
        <ele>154.39999389648</ele>
        <time>2012-02-04T15:18:41.000Z</time>
      </trkpt>
      <trkpt lat="43.69721" lon="3.72483">
        <ele>154</ele>
        <time>2012-02-04T15:18:43.000Z</time>
      </trkpt>
      <trkpt lat="43.69717" lon="3.72496">
        <ele>152.80000305176</ele>
        <time>2012-02-04T15:18:49.000Z</time>
      </trkpt>
      <trkpt lat="43.69715" lon="3.72505">
        <ele>151.80000305176</ele>
        <time>2012-02-04T15:18:54.000Z</time>
      </trkpt>
      <trkpt lat="43.69718" lon="3.72515">
        <ele>151.39999389648</ele>
        <time>2012-02-04T15:18:59.000Z</time>
      </trkpt>
      <trkpt lat="43.69714" lon="3.7252">
        <ele>150.60000610352</ele>
        <time>2012-02-04T15:19:02.000Z</time>
      </trkpt>
      <trkpt lat="43.69711" lon="3.72529">
        <ele>149.39999389648</ele>
        <time>2012-02-04T15:19:07.000Z</time>
      </trkpt>
      <trkpt lat="43.69708" lon="3.72538">
        <ele>148.19999694824</ele>
        <time>2012-02-04T15:19:11.000Z</time>
      </trkpt>
      <trkpt lat="43.69703" lon="3.72551">
        <ele>146.80000305176</ele>
        <time>2012-02-04T15:19:16.000Z</time>
      </trkpt>
      <trkpt lat="43.69698" lon="3.72559">
        <ele>145.80000305176</ele>
        <time>2012-02-04T15:19:20.000Z</time>
      </trkpt>
      <trkpt lat="43.69692" lon="3.72564">
        <ele>145</ele>
        <time>2012-02-04T15:19:24.000Z</time>
      </trkpt>
      <trkpt lat="43.69683" lon="3.7257">
        <ele>143.80000305176</ele>
        <time>2012-02-04T15:19:31.000Z</time>
      </trkpt>
      <trkpt lat="43.69681" lon="3.72573">
        <ele>143.60000610352</ele>
        <time>2012-02-04T15:19:33.000Z</time>
      </trkpt>
      <trkpt lat="43.69676" lon="3.72575">
        <ele>143</ele>
        <time>2012-02-04T15:19:37.000Z</time>
      </trkpt>
      <trkpt lat="43.69669" lon="3.72579">
        <ele>142.39999389648</ele>
        <time>2012-02-04T15:19:42.000Z</time>
      </trkpt>
      <trkpt lat="43.69665" lon="3.7258">
        <ele>142.19999694824</ele>
        <time>2012-02-04T15:19:44.000Z</time>
      </trkpt>
      <trkpt lat="43.69661" lon="3.72582">
        <ele>142.19999694824</ele>
        <time>2012-02-04T15:19:46.000Z</time>
      </trkpt>
      <trkpt lat="43.69652" lon="3.7259">
        <ele>142.39999389648</ele>
        <time>2012-02-04T15:19:51.000Z</time>
      </trkpt>
      <trkpt lat="43.69643" lon="3.72595">
        <ele>142.60000610352</ele>
        <time>2012-02-04T15:19:56.000Z</time>
      </trkpt>
      <trkpt lat="43.69637" lon="3.72597">
        <ele>142.60000610352</ele>
        <time>2012-02-04T15:20:00.000Z</time>
      </trkpt>
      <trkpt lat="43.69632" lon="3.72602">
        <ele>142.80000305176</ele>
        <time>2012-02-04T15:20:05.000Z</time>
      </trkpt>
      <trkpt lat="43.69624" lon="3.72609">
        <ele>142.80000305176</ele>
        <time>2012-02-04T15:20:12.000Z</time>
      </trkpt>
      <trkpt lat="43.69615" lon="3.72614">
        <ele>142.80000305176</ele>
        <time>2012-02-04T15:20:17.000Z</time>
      </trkpt>
      <trkpt lat="43.6961" lon="3.72617">
        <ele>142.80000305176</ele>
        <time>2012-02-04T15:20:20.000Z</time>
      </trkpt>
      <trkpt lat="43.69601" lon="3.72622">
        <ele>142.80000305176</ele>
        <time>2012-02-04T15:20:25.000Z</time>
      </trkpt>
      <trkpt lat="43.69595" lon="3.72623">
        <ele>142.60000610352</ele>
        <time>2012-02-04T15:20:29.000Z</time>
      </trkpt>
      <trkpt lat="43.6959" lon="3.72638">
        <ele>142.39999389648</ele>
        <time>2012-02-04T15:20:36.000Z</time>
      </trkpt>
      <trkpt lat="43.69593" lon="3.72645">
        <ele>142.39999389648</ele>
        <time>2012-02-04T15:20:39.000Z</time>
      </trkpt>
      <trkpt lat="43.69592" lon="3.72654">
        <ele>142.39999389648</ele>
        <time>2012-02-04T15:20:44.000Z</time>
      </trkpt>
      <trkpt lat="43.69584" lon="3.72659">
        <ele>142</ele>
        <time>2012-02-04T15:20:49.000Z</time>
      </trkpt>
      <trkpt lat="43.69576" lon="3.7266">
        <ele>143.80000305176</ele>
        <time>2012-02-04T15:20:54.000Z</time>
      </trkpt>
      <trkpt lat="43.69569" lon="3.72665">
        <ele>145.19999694824</ele>
        <time>2012-02-04T15:20:59.000Z</time>
      </trkpt>
      <trkpt lat="43.69564" lon="3.72669">
        <ele>146.39999389648</ele>
        <time>2012-02-04T15:21:02.000Z</time>
      </trkpt>
      <trkpt lat="43.69558" lon="3.72677">
        <ele>148.39999389648</ele>
        <time>2012-02-04T15:21:07.000Z</time>
      </trkpt>
      <trkpt lat="43.69558" lon="3.72678">
        <ele>148.60000610352</ele>
        <time>2012-02-04T15:21:08.000Z</time>
      </trkpt>
      <trkpt lat="43.69552" lon="3.72688">
        <ele>150.39999389648</ele>
        <time>2012-02-04T15:21:16.000Z</time>
      </trkpt>
      <trkpt lat="43.69546" lon="3.72693">
        <ele>152</ele>
        <time>2012-02-04T15:21:22.000Z</time>
      </trkpt>
      <trkpt lat="43.6954" lon="3.72696">
        <ele>153.19999694824</ele>
        <time>2012-02-04T15:21:28.000Z</time>
      </trkpt>
      <trkpt lat="43.69536" lon="3.72699">
        <ele>154</ele>
        <time>2012-02-04T15:21:32.000Z</time>
      </trkpt>
      <trkpt lat="43.6953" lon="3.72705">
        <ele>155.19999694824</ele>
        <time>2012-02-04T15:21:38.000Z</time>
      </trkpt>
      <trkpt lat="43.69527" lon="3.72705">
        <ele>155.60000610352</ele>
        <time>2012-02-04T15:21:40.000Z</time>
      </trkpt>
      <trkpt lat="43.69524" lon="3.72705">
        <ele>156.19999694824</ele>
        <time>2012-02-04T15:21:42.000Z</time>
      </trkpt>
      <trkpt lat="43.69517" lon="3.7271">
        <ele>157.19999694824</ele>
        <time>2012-02-04T15:21:48.000Z</time>
      </trkpt>
      <trkpt lat="43.69512" lon="3.72715">
        <ele>158</ele>
        <time>2012-02-04T15:21:53.000Z</time>
      </trkpt>
      <trkpt lat="43.69503" lon="3.72723">
        <ele>159</ele>
        <time>2012-02-04T15:22:02.000Z</time>
      </trkpt>
      <trkpt lat="43.695" lon="3.72727">
        <ele>159.39999389648</ele>
        <time>2012-02-04T15:22:05.000Z</time>
      </trkpt>
      <trkpt lat="43.69492" lon="3.72733">
        <ele>160.39999389648</ele>
        <time>2012-02-04T15:22:12.000Z</time>
      </trkpt>
      <trkpt lat="43.69488" lon="3.72735">
        <ele>161</ele>
        <time>2012-02-04T15:22:15.000Z</time>
      </trkpt>
      <trkpt lat="43.69486" lon="3.72737">
        <ele>161.19999694824</ele>
        <time>2012-02-04T15:22:17.000Z</time>
      </trkpt>
      <trkpt lat="43.69485" lon="3.72737">
        <ele>161.39999389648</ele>
        <time>2012-02-04T15:22:19.000Z</time>
      </trkpt>
      <trkpt lat="43.69478" lon="3.72739">
        <ele>162.39999389648</ele>
        <time>2012-02-04T15:22:25.000Z</time>
      </trkpt>
      <trkpt lat="43.69477" lon="3.72739">
        <ele>162.39999389648</ele>
        <time>2012-02-04T15:22:26.000Z</time>
      </trkpt>
      <trkpt lat="43.69471" lon="3.72745">
        <ele>163</ele>
        <time>2012-02-04T15:22:32.000Z</time>
      </trkpt>
      <trkpt lat="43.69466" lon="3.7275">
        <ele>163.60000610352</ele>
        <time>2012-02-04T15:22:38.000Z</time>
      </trkpt>
      <trkpt lat="43.6946" lon="3.72758">
        <ele>165</ele>
        <time>2012-02-04T15:22:46.000Z</time>
      </trkpt>
      <trkpt lat="43.69453" lon="3.72769">
        <ele>167</ele>
        <time>2012-02-04T15:22:55.000Z</time>
      </trkpt>
      <trkpt lat="43.69451" lon="3.72772">
        <ele>167.39999389648</ele>
        <time>2012-02-04T15:22:58.000Z</time>
      </trkpt>
      <trkpt lat="43.69445" lon="3.72778">
        <ele>168.60000610352</ele>
        <time>2012-02-04T15:23:06.000Z</time>
      </trkpt>
      <trkpt lat="43.69441" lon="3.72782">
        <ele>169.19999694824</ele>
        <time>2012-02-04T15:23:11.000Z</time>
      </trkpt>
      <trkpt lat="43.69436" lon="3.72787">
        <ele>170</ele>
        <time>2012-02-04T15:23:17.000Z</time>
      </trkpt>
      <trkpt lat="43.69431" lon="3.72793">
        <ele>170.80000305176</ele>
        <time>2012-02-04T15:23:24.000Z</time>
      </trkpt>
      <trkpt lat="43.69427" lon="3.728">
        <ele>171.60000610352</ele>
        <time>2012-02-04T15:23:30.000Z</time>
      </trkpt>
      <trkpt lat="43.69419" lon="3.72807">
        <ele>172.60000610352</ele>
        <time>2012-02-04T15:23:38.000Z</time>
      </trkpt>
      <trkpt lat="43.69411" lon="3.72816">
        <ele>173.39999389648</ele>
        <time>2012-02-04T15:23:46.000Z</time>
      </trkpt>
      <trkpt lat="43.69406" lon="3.72819">
        <ele>173.60000610352</ele>
        <time>2012-02-04T15:23:50.000Z</time>
      </trkpt>
      <trkpt lat="43.69395" lon="3.72823">
        <ele>174.19999694824</ele>
        <time>2012-02-04T15:23:59.000Z</time>
      </trkpt>
      <trkpt lat="43.69385" lon="3.72828">
        <ele>174.60000610352</ele>
        <time>2012-02-04T15:24:07.000Z</time>
      </trkpt>
      <trkpt lat="43.69377" lon="3.72837">
        <ele>175.19999694824</ele>
        <time>2012-02-04T15:24:14.000Z</time>
      </trkpt>
      <trkpt lat="43.69369" lon="3.72849">
        <ele>176</ele>
        <time>2012-02-04T15:24:22.000Z</time>
      </trkpt>
      <trkpt lat="43.69363" lon="3.72857">
        <ele>176.39999389648</ele>
        <time>2012-02-04T15:24:28.000Z</time>
      </trkpt>
      <trkpt lat="43.69356" lon="3.72868">
        <ele>177</ele>
        <time>2012-02-04T15:24:33.000Z</time>
      </trkpt>
      <trkpt lat="43.69351" lon="3.72873">
        <ele>177.19999694824</ele>
        <time>2012-02-04T15:24:36.000Z</time>
      </trkpt>
      <trkpt lat="43.6934" lon="3.72874">
        <ele>177</ele>
        <time>2012-02-04T15:24:41.000Z</time>
      </trkpt>
      <trkpt lat="43.69331" lon="3.72869">
        <ele>176.80000305176</ele>
        <time>2012-02-04T15:24:46.000Z</time>
      </trkpt>
      <trkpt lat="43.69323" lon="3.72873">
        <ele>177</ele>
        <time>2012-02-04T15:24:51.000Z</time>
      </trkpt>
      <trkpt lat="43.6932" lon="3.72873">
        <ele>177</ele>
        <time>2012-02-04T15:24:53.000Z</time>
      </trkpt>
      <trkpt lat="43.69315" lon="3.72874">
        <ele>177</ele>
        <time>2012-02-04T15:24:56.000Z</time>
      </trkpt>
      <trkpt lat="43.69311" lon="3.72869">
        <ele>177</ele>
        <time>2012-02-04T15:25:00.000Z</time>
      </trkpt>
      <trkpt lat="43.69305" lon="3.72863">
        <ele>176.80000305176</ele>
        <time>2012-02-04T15:25:04.000Z</time>
      </trkpt>
      <trkpt lat="43.693" lon="3.72859">
        <ele>176.80000305176</ele>
        <time>2012-02-04T15:25:07.000Z</time>
      </trkpt>
      <trkpt lat="43.6929" lon="3.72853">
        <ele>176.60000610352</ele>
        <time>2012-02-04T15:25:14.000Z</time>
      </trkpt>
      <trkpt lat="43.69285" lon="3.7285">
        <ele>176.60000610352</ele>
        <time>2012-02-04T15:25:19.000Z</time>
      </trkpt>
      <trkpt lat="43.69281" lon="3.72852">
        <ele>176.60000610352</ele>
        <time>2012-02-04T15:25:24.000Z</time>
      </trkpt>
      <trkpt lat="43.69274" lon="3.72854">
        <ele>176.60000610352</ele>
        <time>2012-02-04T15:25:28.000Z</time>
      </trkpt>
      <trkpt lat="43.69268" lon="3.7285">
        <ele>176.60000610352</ele>
        <time>2012-02-04T15:25:32.000Z</time>
      </trkpt>
      <trkpt lat="43.69261" lon="3.72848">
        <ele>176.39999389648</ele>
        <time>2012-02-04T15:25:36.000Z</time>
      </trkpt>
      <trkpt lat="43.69253" lon="3.72841">
        <ele>176.19999694824</ele>
        <time>2012-02-04T15:25:41.000Z</time>
      </trkpt>
      <trkpt lat="43.69251" lon="3.7284">
        <ele>176.19999694824</ele>
        <time>2012-02-04T15:25:42.000Z</time>
      </trkpt>
      <trkpt lat="43.69243" lon="3.72829">
        <ele>176.60000610352</ele>
        <time>2012-02-04T15:25:47.000Z</time>
      </trkpt>
      <trkpt lat="43.6924" lon="3.72826">
        <ele>176.80000305176</ele>
        <time>2012-02-04T15:25:56.000Z</time>
      </trkpt>
      <trkpt lat="43.69239" lon="3.72824">
        <ele>176.80000305176</ele>
        <time>2012-02-04T15:26:02.000Z</time>
      </trkpt>
      <trkpt lat="43.69233" lon="3.72812">
        <ele>176.80000305176</ele>
        <time>2012-02-04T15:26:07.000Z</time>
      </trkpt>
      <trkpt lat="43.69227" lon="3.72807">
        <ele>177.19999694824</ele>
        <time>2012-02-04T15:26:11.000Z</time>
      </trkpt>
      <trkpt lat="43.69221" lon="3.7281">
        <ele>178.19999694824</ele>
        <time>2012-02-04T15:26:17.000Z</time>
      </trkpt>
      <trkpt lat="43.69218" lon="3.72813">
        <ele>178.60000610352</ele>
        <time>2012-02-04T15:26:19.000Z</time>
      </trkpt>
      <trkpt lat="43.69211" lon="3.72818">
        <ele>179.60000610352</ele>
        <time>2012-02-04T15:26:25.000Z</time>
      </trkpt>
      <trkpt lat="43.69206" lon="3.72823">
        <ele>180.39999389648</ele>
        <time>2012-02-04T15:26:30.000Z</time>
      </trkpt>
      <trkpt lat="43.69202" lon="3.72825">
        <ele>180.80000305176</ele>
        <time>2012-02-04T15:26:34.000Z</time>
      </trkpt>
      <trkpt lat="43.69191" lon="3.72826">
        <ele>182.19999694824</ele>
        <time>2012-02-04T15:26:43.000Z</time>
      </trkpt>
      <trkpt lat="43.69189" lon="3.72824">
        <ele>182.19999694824</ele>
        <time>2012-02-04T15:26:45.000Z</time>
      </trkpt>
      <trkpt lat="43.69181" lon="3.72827">
        <ele>183.19999694824</ele>
        <time>2012-02-04T15:26:52.000Z</time>
      </trkpt>
      <trkpt lat="43.6917" lon="3.72823">
        <ele>184.39999389648</ele>
        <time>2012-02-04T15:27:01.000Z</time>
      </trkpt>
      <trkpt lat="43.69165" lon="3.7282">
        <ele>184.60000610352</ele>
        <time>2012-02-04T15:27:05.000Z</time>
      </trkpt>
      <trkpt lat="43.69157" lon="3.72818">
        <ele>184.60000610352</ele>
        <time>2012-02-04T15:27:11.000Z</time>
      </trkpt>
      <trkpt lat="43.69148" lon="3.72815">
        <ele>184.39999389648</ele>
        <time>2012-02-04T15:27:16.000Z</time>
      </trkpt>
      <trkpt lat="43.69141" lon="3.7281">
        <ele>184.39999389648</ele>
        <time>2012-02-04T15:27:21.000Z</time>
      </trkpt>
      <trkpt lat="43.69132" lon="3.72809">
        <ele>184.39999389648</ele>
        <time>2012-02-04T15:27:26.000Z</time>
      </trkpt>
      <trkpt lat="43.69123" lon="3.72805">
        <ele>184.39999389648</ele>
        <time>2012-02-04T15:27:32.000Z</time>
      </trkpt>
      <trkpt lat="43.69121" lon="3.72804">
        <ele>184.39999389648</ele>
        <time>2012-02-04T15:27:34.000Z</time>
      </trkpt>
      <trkpt lat="43.69115" lon="3.72808">
        <ele>184.39999389648</ele>
        <time>2012-02-04T15:27:42.000Z</time>
      </trkpt>
      <trkpt lat="43.6911" lon="3.72815">
        <ele>184.60000610352</ele>
        <time>2012-02-04T15:27:48.000Z</time>
      </trkpt>
      <trkpt lat="43.69105" lon="3.72819">
        <ele>184.80000305176</ele>
        <time>2012-02-04T15:27:53.000Z</time>
      </trkpt>
      <trkpt lat="43.69105" lon="3.72829">
        <ele>185</ele>
        <time>2012-02-04T15:27:58.000Z</time>
      </trkpt>
      <trkpt lat="43.69107" lon="3.7284">
        <ele>184.80000305176</ele>
        <time>2012-02-04T15:28:02.000Z</time>
      </trkpt>
      <trkpt lat="43.69109" lon="3.72845">
        <ele>184.60000610352</ele>
        <time>2012-02-04T15:28:04.000Z</time>
      </trkpt>
      <trkpt lat="43.69112" lon="3.72853">
        <ele>184.39999389648</ele>
        <time>2012-02-04T15:28:07.000Z</time>
      </trkpt>
      <trkpt lat="43.69119" lon="3.72866">
        <ele>184.19999694824</ele>
        <time>2012-02-04T15:28:13.000Z</time>
      </trkpt>
      <trkpt lat="43.69122" lon="3.72872">
        <ele>184.19999694824</ele>
        <time>2012-02-04T15:28:16.000Z</time>
      </trkpt>
      <trkpt lat="43.69123" lon="3.72874">
        <ele>184.19999694824</ele>
        <time>2012-02-04T15:28:18.000Z</time>
      </trkpt>
      <trkpt lat="43.6912" lon="3.72886">
        <ele>183.80000305176</ele>
        <time>2012-02-04T15:28:24.000Z</time>
      </trkpt>
      <trkpt lat="43.6912" lon="3.72896">
        <ele>183.60000610352</ele>
        <time>2012-02-04T15:28:29.000Z</time>
      </trkpt>
      <trkpt lat="43.69119" lon="3.72907">
        <ele>183.39999389648</ele>
        <time>2012-02-04T15:28:35.000Z</time>
      </trkpt>
      <trkpt lat="43.69119" lon="3.72918">
        <ele>183</ele>
        <time>2012-02-04T15:28:40.000Z</time>
      </trkpt>
      <trkpt lat="43.69122" lon="3.7293">
        <ele>182.80000305176</ele>
        <time>2012-02-04T15:28:45.000Z</time>
      </trkpt>
      <trkpt lat="43.69124" lon="3.72942">
        <ele>182.60000610352</ele>
        <time>2012-02-04T15:28:49.000Z</time>
      </trkpt>
      <trkpt lat="43.69125" lon="3.7295">
        <ele>182.60000610352</ele>
        <time>2012-02-04T15:28:52.000Z</time>
      </trkpt>
      <trkpt lat="43.69124" lon="3.72961">
        <ele>182.19999694824</ele>
        <time>2012-02-04T15:28:57.000Z</time>
      </trkpt>
      <trkpt lat="43.69125" lon="3.72963">
        <ele>182</ele>
        <time>2012-02-04T15:28:58.000Z</time>
      </trkpt>
      <trkpt lat="43.69127" lon="3.72978">
        <ele>182</ele>
        <time>2012-02-04T15:29:04.000Z</time>
      </trkpt>
      <trkpt lat="43.6913" lon="3.72992">
        <ele>182</ele>
        <time>2012-02-04T15:29:09.000Z</time>
      </trkpt>
      <trkpt lat="43.69134" lon="3.72996">
        <ele>182.39999389648</ele>
        <time>2012-02-04T15:29:13.000Z</time>
      </trkpt>
      <trkpt lat="43.69147" lon="3.72988">
        <ele>184.19999694824</ele>
        <time>2012-02-04T15:29:21.000Z</time>
      </trkpt>
      <trkpt lat="43.69152" lon="3.72985">
        <ele>185</ele>
        <time>2012-02-04T15:29:24.000Z</time>
      </trkpt>
      <trkpt lat="43.69156" lon="3.72991">
        <ele>185.39999389648</ele>
        <time>2012-02-04T15:29:29.000Z</time>
      </trkpt>
      <trkpt lat="43.69161" lon="3.72996">
        <ele>186.19999694824</ele>
        <time>2012-02-04T15:29:34.000Z</time>
      </trkpt>
      <trkpt lat="43.69172" lon="3.7299">
        <ele>186.60000610352</ele>
        <time>2012-02-04T15:29:41.000Z</time>
      </trkpt>
      <trkpt lat="43.69179" lon="3.72986">
        <ele>186.19999694824</ele>
        <time>2012-02-04T15:29:46.000Z</time>
      </trkpt>
      <trkpt lat="43.69181" lon="3.72995">
        <ele>186.39999389648</ele>
        <time>2012-02-04T15:29:50.000Z</time>
      </trkpt>
      <trkpt lat="43.69186" lon="3.73009">
        <ele>186.39999389648</ele>
        <time>2012-02-04T15:29:55.000Z</time>
      </trkpt>
      <trkpt lat="43.69187" lon="3.73015">
        <ele>186.19999694824</ele>
        <time>2012-02-04T15:29:57.000Z</time>
      </trkpt>
      <trkpt lat="43.69192" lon="3.73039">
        <ele>186.19999694824</ele>
        <time>2012-02-04T15:30:05.000Z</time>
      </trkpt>
      <trkpt lat="43.69193" lon="3.73055">
        <ele>186.19999694824</ele>
        <time>2012-02-04T15:30:10.000Z</time>
      </trkpt>
      <trkpt lat="43.69197" lon="3.73069">
        <ele>186.19999694824</ele>
        <time>2012-02-04T15:30:15.000Z</time>
      </trkpt>
      <trkpt lat="43.69201" lon="3.73083">
        <ele>186.39999389648</ele>
        <time>2012-02-04T15:30:20.000Z</time>
      </trkpt>
      <trkpt lat="43.69203" lon="3.73096">
        <ele>186.19999694824</ele>
        <time>2012-02-04T15:30:25.000Z</time>
      </trkpt>
      <trkpt lat="43.69205" lon="3.73108">
        <ele>186.19999694824</ele>
        <time>2012-02-04T15:30:29.000Z</time>
      </trkpt>
      <trkpt lat="43.69212" lon="3.73127">
        <ele>186</ele>
        <time>2012-02-04T15:30:36.000Z</time>
      </trkpt>
      <trkpt lat="43.69221" lon="3.73146">
        <ele>186.39999389648</ele>
        <time>2012-02-04T15:30:43.000Z</time>
      </trkpt>
      <trkpt lat="43.69222" lon="3.73149">
        <ele>186.39999389648</ele>
        <time>2012-02-04T15:30:44.000Z</time>
      </trkpt>
      <trkpt lat="43.69224" lon="3.73163">
        <ele>186.39999389648</ele>
        <time>2012-02-04T15:30:49.000Z</time>
      </trkpt>
      <trkpt lat="43.69225" lon="3.7317">
        <ele>186.60000610352</ele>
        <time>2012-02-04T15:30:51.000Z</time>
      </trkpt>
      <trkpt lat="43.69232" lon="3.73189">
        <ele>187</ele>
        <time>2012-02-04T15:30:57.000Z</time>
      </trkpt>
      <trkpt lat="43.69238" lon="3.73204">
        <ele>187.39999389648</ele>
        <time>2012-02-04T15:31:02.000Z</time>
      </trkpt>
      <trkpt lat="43.6924" lon="3.7322">
        <ele>187.80000305176</ele>
        <time>2012-02-04T15:31:07.000Z</time>
      </trkpt>
      <trkpt lat="43.69237" lon="3.73235">
        <ele>187.60000610352</ele>
        <time>2012-02-04T15:31:12.000Z</time>
      </trkpt>
      <trkpt lat="43.69236" lon="3.73241">
        <ele>187.39999389648</ele>
        <time>2012-02-04T15:31:15.000Z</time>
      </trkpt>
      <trkpt lat="43.69233" lon="3.73252">
        <ele>187.19999694824</ele>
        <time>2012-02-04T15:31:20.000Z</time>
      </trkpt>
      <trkpt lat="43.69228" lon="3.73268">
        <ele>187</ele>
        <time>2012-02-04T15:31:25.000Z</time>
      </trkpt>
      <trkpt lat="43.69224" lon="3.73284">
        <ele>186.80000305176</ele>
        <time>2012-02-04T15:31:30.000Z</time>
      </trkpt>
      <trkpt lat="43.69219" lon="3.73299">
        <ele>186.60000610352</ele>
        <time>2012-02-04T15:31:35.000Z</time>
      </trkpt>
      <trkpt lat="43.69216" lon="3.73315">
        <ele>186.39999389648</ele>
        <time>2012-02-04T15:31:40.000Z</time>
      </trkpt>
      <trkpt lat="43.69216" lon="3.7333">
        <ele>186.60000610352</ele>
        <time>2012-02-04T15:31:44.000Z</time>
      </trkpt>
      <trkpt lat="43.69215" lon="3.73342">
        <ele>186.39999389648</ele>
        <time>2012-02-04T15:31:48.000Z</time>
      </trkpt>
      <trkpt lat="43.69215" lon="3.73359">
        <ele>186.60000610352</ele>
        <time>2012-02-04T15:31:54.000Z</time>
      </trkpt>
      <trkpt lat="43.69214" lon="3.73373">
        <ele>186.39999389648</ele>
        <time>2012-02-04T15:31:58.000Z</time>
      </trkpt>
      <trkpt lat="43.69221" lon="3.73393">
        <ele>187.39999389648</ele>
        <time>2012-02-04T15:32:06.000Z</time>
      </trkpt>
      <trkpt lat="43.69228" lon="3.73406">
        <ele>188.60000610352</ele>
        <time>2012-02-04T15:32:12.000Z</time>
      </trkpt>
      <trkpt lat="43.69233" lon="3.73415">
        <ele>189.19999694824</ele>
        <time>2012-02-04T15:32:16.000Z</time>
      </trkpt>
      <trkpt lat="43.69237" lon="3.73426">
        <ele>190</ele>
        <time>2012-02-04T15:32:21.000Z</time>
      </trkpt>
      <trkpt lat="43.69241" lon="3.73439">
        <ele>190.60000610352</ele>
        <time>2012-02-04T15:32:26.000Z</time>
      </trkpt>
      <trkpt lat="43.69243" lon="3.73456">
        <ele>191</ele>
        <time>2012-02-04T15:32:32.000Z</time>
      </trkpt>
      <trkpt lat="43.69246" lon="3.73473">
        <ele>191.39999389648</ele>
        <time>2012-02-04T15:32:38.000Z</time>
      </trkpt>
      <trkpt lat="43.69248" lon="3.7349">
        <ele>191.80000305176</ele>
        <time>2012-02-04T15:32:44.000Z</time>
      </trkpt>
      <trkpt lat="43.69251" lon="3.73505">
        <ele>192</ele>
        <time>2012-02-04T15:32:49.000Z</time>
      </trkpt>
      <trkpt lat="43.69252" lon="3.7352">
        <ele>192.19999694824</ele>
        <time>2012-02-04T15:32:54.000Z</time>
      </trkpt>
      <trkpt lat="43.69257" lon="3.7354">
        <ele>192.60000610352</ele>
        <time>2012-02-04T15:33:01.000Z</time>
      </trkpt>
      <trkpt lat="43.69264" lon="3.73555">
        <ele>193</ele>
        <time>2012-02-04T15:33:07.000Z</time>
      </trkpt>
      <trkpt lat="43.69272" lon="3.73563">
        <ele>193.80000305176</ele>
        <time>2012-02-04T15:33:12.000Z</time>
      </trkpt>
      <trkpt lat="43.6928" lon="3.73573">
        <ele>194.19999694824</ele>
        <time>2012-02-04T15:33:17.000Z</time>
      </trkpt>
      <trkpt lat="43.69288" lon="3.73582">
        <ele>194.80000305176</ele>
        <time>2012-02-04T15:33:22.000Z</time>
      </trkpt>
      <trkpt lat="43.69299" lon="3.73592">
        <ele>194.80000305176</ele>
        <time>2012-02-04T15:33:29.000Z</time>
      </trkpt>
      <trkpt lat="43.69305" lon="3.73598">
        <ele>194.60000610352</ele>
        <time>2012-02-04T15:33:34.000Z</time>
      </trkpt>
      <trkpt lat="43.69306" lon="3.73599">
        <ele>194.60000610352</ele>
        <time>2012-02-04T15:33:38.000Z</time>
      </trkpt>
      <trkpt lat="43.69308" lon="3.73598">
        <ele>194.60000610352</ele>
        <time>2012-02-04T15:33:50.000Z</time>
      </trkpt>
      <trkpt lat="43.69315" lon="3.73601">
        <ele>194.80000305176</ele>
        <time>2012-02-04T15:33:56.000Z</time>
      </trkpt>
      <trkpt lat="43.69322" lon="3.73604">
        <ele>195</ele>
        <time>2012-02-04T15:34:01.000Z</time>
      </trkpt>
      <trkpt lat="43.69331" lon="3.73605">
        <ele>195.39999389648</ele>
        <time>2012-02-04T15:34:08.000Z</time>
      </trkpt>
      <trkpt lat="43.69342" lon="3.7361">
        <ele>195.80000305176</ele>
        <time>2012-02-04T15:34:17.000Z</time>
      </trkpt>
      <trkpt lat="43.69354" lon="3.73615">
        <ele>196.39999389648</ele>
        <time>2012-02-04T15:34:24.000Z</time>
      </trkpt>
      <trkpt lat="43.69365" lon="3.73618">
        <ele>197</ele>
        <time>2012-02-04T15:34:29.000Z</time>
      </trkpt>
      <trkpt lat="43.69375" lon="3.73623">
        <ele>197.19999694824</ele>
        <time>2012-02-04T15:34:34.000Z</time>
      </trkpt>
      <trkpt lat="43.69386" lon="3.73627">
        <ele>197.60000610352</ele>
        <time>2012-02-04T15:34:40.000Z</time>
      </trkpt>
      <trkpt lat="43.69399" lon="3.73631">
        <ele>198.39999389648</ele>
        <time>2012-02-04T15:34:47.000Z</time>
      </trkpt>
      <trkpt lat="43.69402" lon="3.73632">
        <ele>198.39999389648</ele>
        <time>2012-02-04T15:34:48.000Z</time>
      </trkpt>
      <trkpt lat="43.69415" lon="3.73645">
        <ele>198.19999694824</ele>
        <time>2012-02-04T15:34:56.000Z</time>
      </trkpt>
      <trkpt lat="43.69429" lon="3.73652">
        <ele>199</ele>
        <time>2012-02-04T15:35:02.000Z</time>
      </trkpt>
      <trkpt lat="43.69443" lon="3.73656">
        <ele>200.39999389648</ele>
        <time>2012-02-04T15:35:08.000Z</time>
      </trkpt>
      <trkpt lat="43.69455" lon="3.73659">
        <ele>201.39999389648</ele>
        <time>2012-02-04T15:35:13.000Z</time>
      </trkpt>
      <trkpt lat="43.69463" lon="3.7366">
        <ele>202.19999694824</ele>
        <time>2012-02-04T15:35:17.000Z</time>
      </trkpt>
      <trkpt lat="43.69474" lon="3.73662">
        <ele>203.39999389648</ele>
        <time>2012-02-04T15:35:22.000Z</time>
      </trkpt>
      <trkpt lat="43.69486" lon="3.73663">
        <ele>204.60000610352</ele>
        <time>2012-02-04T15:35:27.000Z</time>
      </trkpt>
      <trkpt lat="43.69491" lon="3.73665">
        <ele>205</ele>
        <time>2012-02-04T15:35:30.000Z</time>
      </trkpt>
      <trkpt lat="43.69504" lon="3.7367">
        <ele>206.39999389648</ele>
        <time>2012-02-04T15:35:36.000Z</time>
      </trkpt>
      <trkpt lat="43.69514" lon="3.73672">
        <ele>207.39999389648</ele>
        <time>2012-02-04T15:35:41.000Z</time>
      </trkpt>
      <trkpt lat="43.69524" lon="3.73678">
        <ele>208.19999694824</ele>
        <time>2012-02-04T15:35:46.000Z</time>
      </trkpt>
      <trkpt lat="43.69526" lon="3.7369">
        <ele>208.60000610352</ele>
        <time>2012-02-04T15:35:52.000Z</time>
      </trkpt>
      <trkpt lat="43.69525" lon="3.73698">
        <ele>208.39999389648</ele>
        <time>2012-02-04T15:35:56.000Z</time>
      </trkpt>
      <trkpt lat="43.69521" lon="3.7371">
        <ele>208</ele>
        <time>2012-02-04T15:36:02.000Z</time>
      </trkpt>
      <trkpt lat="43.69516" lon="3.73726">
        <ele>207.39999389648</ele>
        <time>2012-02-04T15:36:09.000Z</time>
      </trkpt>
      <trkpt lat="43.69514" lon="3.7373">
        <ele>207.19999694824</ele>
        <time>2012-02-04T15:36:11.000Z</time>
      </trkpt>
      <trkpt lat="43.6951" lon="3.73741">
        <ele>206.60000610352</ele>
        <time>2012-02-04T15:36:17.000Z</time>
      </trkpt>
      <trkpt lat="43.6951" lon="3.73743">
        <ele>206.60000610352</ele>
        <time>2012-02-04T15:36:18.000Z</time>
      </trkpt>
      <trkpt lat="43.69511" lon="3.73754">
        <ele>206.60000610352</ele>
        <time>2012-02-04T15:36:23.000Z</time>
      </trkpt>
      <trkpt lat="43.69514" lon="3.73766">
        <ele>207</ele>
        <time>2012-02-04T15:36:28.000Z</time>
      </trkpt>
      <trkpt lat="43.69516" lon="3.73775">
        <ele>207.39999389648</ele>
        <time>2012-02-04T15:36:32.000Z</time>
      </trkpt>
      <trkpt lat="43.69517" lon="3.73785">
        <ele>207.60000610352</ele>
        <time>2012-02-04T15:36:36.000Z</time>
      </trkpt>
      <trkpt lat="43.69522" lon="3.73791">
        <ele>208.39999389648</ele>
        <time>2012-02-04T15:36:40.000Z</time>
      </trkpt>
      <trkpt lat="43.69524" lon="3.73808">
        <ele>209.19999694824</ele>
        <time>2012-02-04T15:36:46.000Z</time>
      </trkpt>
      <trkpt lat="43.69528" lon="3.73818">
        <ele>209.80000305176</ele>
        <time>2012-02-04T15:36:52.000Z</time>
      </trkpt>
      <trkpt lat="43.69527" lon="3.73822">
        <ele>209.60000610352</ele>
        <time>2012-02-04T15:37:01.000Z</time>
      </trkpt>
      <trkpt lat="43.69521" lon="3.73828">
        <ele>208.60000610352</ele>
        <time>2012-02-04T15:37:16.000Z</time>
      </trkpt>
      <trkpt lat="43.6952" lon="3.73827">
        <ele>208.60000610352</ele>
        <time>2012-02-04T15:37:26.000Z</time>
      </trkpt>
      <trkpt lat="43.69524" lon="3.73833">
        <ele>209.39999389648</ele>
        <time>2012-02-04T15:37:31.000Z</time>
      </trkpt>
      <trkpt lat="43.69531" lon="3.73839">
        <ele>210.39999389648</ele>
        <time>2012-02-04T15:37:36.000Z</time>
      </trkpt>
      <trkpt lat="43.69544" lon="3.73852">
        <ele>212</ele>
        <time>2012-02-04T15:37:47.000Z</time>
      </trkpt>
      <trkpt lat="43.69545" lon="3.73853">
        <ele>212.19999694824</ele>
        <time>2012-02-04T15:37:48.000Z</time>
      </trkpt>
      <trkpt lat="43.69555" lon="3.73858">
        <ele>213.60000610352</ele>
        <time>2012-02-04T15:37:55.000Z</time>
      </trkpt>
      <trkpt lat="43.6956" lon="3.73863">
        <ele>214.19999694824</ele>
        <time>2012-02-04T15:38:01.000Z</time>
      </trkpt>
      <trkpt lat="43.69561" lon="3.73867">
        <ele>214.19999694824</ele>
        <time>2012-02-04T15:38:04.000Z</time>
      </trkpt>
      <trkpt lat="43.69567" lon="3.73878">
        <ele>214.60000610352</ele>
        <time>2012-02-04T15:38:11.000Z</time>
      </trkpt>
      <trkpt lat="43.69574" lon="3.73885">
        <ele>215.39999389648</ele>
        <time>2012-02-04T15:38:16.000Z</time>
      </trkpt>
      <trkpt lat="43.69586" lon="3.73892">
        <ele>216.60000610352</ele>
        <time>2012-02-04T15:38:22.000Z</time>
      </trkpt>
      <trkpt lat="43.69594" lon="3.73899">
        <ele>217</ele>
        <time>2012-02-04T15:38:28.000Z</time>
      </trkpt>
      <trkpt lat="43.69593" lon="3.73899">
        <ele>217</ele>
        <time>2012-02-04T15:38:29.000Z</time>
      </trkpt>
      <trkpt lat="43.69583" lon="3.73891">
        <ele>216.39999389648</ele>
        <time>2012-02-04T15:38:36.000Z</time>
      </trkpt>
      <trkpt lat="43.69572" lon="3.73884">
        <ele>215.19999694824</ele>
        <time>2012-02-04T15:38:41.000Z</time>
      </trkpt>
      <trkpt lat="43.69566" lon="3.73873">
        <ele>214.60000610352</ele>
        <time>2012-02-04T15:38:46.000Z</time>
      </trkpt>
      <trkpt lat="43.69564" lon="3.7386">
        <ele>215</ele>
        <time>2012-02-04T15:38:54.000Z</time>
      </trkpt>
      <trkpt lat="43.69565" lon="3.73858">
        <ele>215.39999389648</ele>
        <time>2012-02-04T15:38:56.000Z</time>
      </trkpt>
      <trkpt lat="43.69566" lon="3.73865">
        <ele>215</ele>
        <time>2012-02-04T15:39:01.000Z</time>
      </trkpt>
      <trkpt lat="43.6957" lon="3.73879">
        <ele>215</ele>
        <time>2012-02-04T15:39:06.000Z</time>
      </trkpt>
      <trkpt lat="43.69576" lon="3.73887">
        <ele>215.60000610352</ele>
        <time>2012-02-04T15:39:10.000Z</time>
      </trkpt>
      <trkpt lat="43.69582" lon="3.73893">
        <ele>216.19999694824</ele>
        <time>2012-02-04T15:39:13.000Z</time>
      </trkpt>
      <trkpt lat="43.6959" lon="3.73899">
        <ele>216.60000610352</ele>
        <time>2012-02-04T15:39:17.000Z</time>
      </trkpt>
      <trkpt lat="43.69606" lon="3.73906">
        <ele>217.80000305176</ele>
        <time>2012-02-04T15:39:23.000Z</time>
      </trkpt>
      <trkpt lat="43.69618" lon="3.73914">
        <ele>218.39999389648</ele>
        <time>2012-02-04T15:39:29.000Z</time>
      </trkpt>
      <trkpt lat="43.69621" lon="3.73919">
        <ele>218.19999694824</ele>
        <time>2012-02-04T15:39:31.000Z</time>
      </trkpt>
      <trkpt lat="43.69633" lon="3.73932">
        <ele>218</ele>
        <time>2012-02-04T15:39:38.000Z</time>
      </trkpt>
      <trkpt lat="43.69643" lon="3.73939">
        <ele>218</ele>
        <time>2012-02-04T15:39:43.000Z</time>
      </trkpt>
      <trkpt lat="43.69649" lon="3.73945">
        <ele>217.80000305176</ele>
        <time>2012-02-04T15:39:47.000Z</time>
      </trkpt>
      <trkpt lat="43.6966" lon="3.73953">
        <ele>217.60000610352</ele>
        <time>2012-02-04T15:39:53.000Z</time>
      </trkpt>
      <trkpt lat="43.6967" lon="3.7396">
        <ele>217.60000610352</ele>
        <time>2012-02-04T15:39:58.000Z</time>
      </trkpt>
      <trkpt lat="43.6968" lon="3.73965">
        <ele>217.60000610352</ele>
        <time>2012-02-04T15:40:03.000Z</time>
      </trkpt>
      <trkpt lat="43.69691" lon="3.73969">
        <ele>218</ele>
        <time>2012-02-04T15:40:08.000Z</time>
      </trkpt>
      <trkpt lat="43.69706" lon="3.73972">
        <ele>218.39999389648</ele>
        <time>2012-02-04T15:40:14.000Z</time>
      </trkpt>
      <trkpt lat="43.69721" lon="3.73974">
        <ele>219.19999694824</ele>
        <time>2012-02-04T15:40:20.000Z</time>
      </trkpt>
      <trkpt lat="43.69733" lon="3.73977">
        <ele>219.60000610352</ele>
        <time>2012-02-04T15:40:25.000Z</time>
      </trkpt>
      <trkpt lat="43.69744" lon="3.73981">
        <ele>219.80000305176</ele>
        <time>2012-02-04T15:40:30.000Z</time>
      </trkpt>
      <trkpt lat="43.69757" lon="3.73984">
        <ele>219.80000305176</ele>
        <time>2012-02-04T15:40:36.000Z</time>
      </trkpt>
      <trkpt lat="43.69773" lon="3.73988">
        <ele>219.39999389648</ele>
        <time>2012-02-04T15:40:43.000Z</time>
      </trkpt>
      <trkpt lat="43.69786" lon="3.73989">
        <ele>219.60000610352</ele>
        <time>2012-02-04T15:40:48.000Z</time>
      </trkpt>
      <trkpt lat="43.698" lon="3.73987">
        <ele>220</ele>
        <time>2012-02-04T15:40:54.000Z</time>
      </trkpt>
      <trkpt lat="43.69814" lon="3.73986">
        <ele>220.39999389648</ele>
        <time>2012-02-04T15:41:00.000Z</time>
      </trkpt>
      <trkpt lat="43.69829" lon="3.73988">
        <ele>220.39999389648</ele>
        <time>2012-02-04T15:41:06.000Z</time>
      </trkpt>
      <trkpt lat="43.69834" lon="3.73998">
        <ele>219.19999694824</ele>
        <time>2012-02-04T15:41:10.000Z</time>
      </trkpt>
      <trkpt lat="43.69833" lon="3.7402">
        <ele>217.39999389648</ele>
        <time>2012-02-04T15:41:16.000Z</time>
      </trkpt>
      <trkpt lat="43.69831" lon="3.7404">
        <ele>215.60000610352</ele>
        <time>2012-02-04T15:41:22.000Z</time>
      </trkpt>
      <trkpt lat="43.6983" lon="3.74061">
        <ele>213.80000305176</ele>
        <time>2012-02-04T15:41:28.000Z</time>
      </trkpt>
      <trkpt lat="43.69829" lon="3.74082">
        <ele>211.80000305176</ele>
        <time>2012-02-04T15:41:34.000Z</time>
      </trkpt>
      <trkpt lat="43.69828" lon="3.74094">
        <ele>211.60000610352</ele>
        <time>2012-02-04T15:41:39.000Z</time>
      </trkpt>
      <trkpt lat="43.69828" lon="3.74095">
        <ele>211.60000610352</ele>
        <time>2012-02-04T15:41:44.000Z</time>
      </trkpt>
      <trkpt lat="43.69826" lon="3.74104">
        <ele>211.60000610352</ele>
        <time>2012-02-04T15:41:52.000Z</time>
      </trkpt>
      <trkpt lat="43.69827" lon="3.74118">
        <ele>211.60000610352</ele>
        <time>2012-02-04T15:41:57.000Z</time>
      </trkpt>
      <trkpt lat="43.69826" lon="3.74136">
        <ele>211.60000610352</ele>
        <time>2012-02-04T15:42:02.000Z</time>
      </trkpt>
      <trkpt lat="43.69824" lon="3.74154">
        <ele>211.60000610352</ele>
        <time>2012-02-04T15:42:07.000Z</time>
      </trkpt>
      <trkpt lat="43.69824" lon="3.74159">
        <ele>211.60000610352</ele>
        <time>2012-02-04T15:42:08.000Z</time>
      </trkpt>
      <trkpt lat="43.69831" lon="3.74167">
        <ele>212</ele>
        <time>2012-02-04T15:42:13.000Z</time>
      </trkpt>
      <trkpt lat="43.69847" lon="3.74172">
        <ele>211.60000610352</ele>
        <time>2012-02-04T15:42:20.000Z</time>
      </trkpt>
      <trkpt lat="43.69865" lon="3.74175">
        <ele>211.19999694824</ele>
        <time>2012-02-04T15:42:27.000Z</time>
      </trkpt>
      <trkpt lat="43.69887" lon="3.74178">
        <ele>210.39999389648</ele>
        <time>2012-02-04T15:42:35.000Z</time>
      </trkpt>
      <trkpt lat="43.69903" lon="3.74178">
        <ele>210</ele>
        <time>2012-02-04T15:42:41.000Z</time>
      </trkpt>
      <trkpt lat="43.6992" lon="3.74177">
        <ele>209.39999389648</ele>
        <time>2012-02-04T15:42:48.000Z</time>
      </trkpt>
      <trkpt lat="43.69934" lon="3.74177">
        <ele>209.39999389648</ele>
        <time>2012-02-04T15:42:54.000Z</time>
      </trkpt>
      <trkpt lat="43.69949" lon="3.74176">
        <ele>209.39999389648</ele>
        <time>2012-02-04T15:43:00.000Z</time>
      </trkpt>
      <trkpt lat="43.69964" lon="3.74178">
        <ele>209.39999389648</ele>
        <time>2012-02-04T15:43:06.000Z</time>
      </trkpt>
      <trkpt lat="43.69968" lon="3.74179">
        <ele>209.39999389648</ele>
        <time>2012-02-04T15:43:08.000Z</time>
      </trkpt>
      <trkpt lat="43.69971" lon="3.74192">
        <ele>210</ele>
        <time>2012-02-04T15:43:13.000Z</time>
      </trkpt>
      <trkpt lat="43.69967" lon="3.74207">
        <ele>210.39999389648</ele>
        <time>2012-02-04T15:43:19.000Z</time>
      </trkpt>
      <trkpt lat="43.69965" lon="3.74215">
        <ele>210.80000305176</ele>
        <time>2012-02-04T15:43:22.000Z</time>
      </trkpt>
      <trkpt lat="43.69958" lon="3.74233">
        <ele>211.39999389648</ele>
        <time>2012-02-04T15:43:29.000Z</time>
      </trkpt>
      <trkpt lat="43.69954" lon="3.74243">
        <ele>211.80000305176</ele>
        <time>2012-02-04T15:43:33.000Z</time>
      </trkpt>
      <trkpt lat="43.69947" lon="3.74257">
        <ele>212.19999694824</ele>
        <time>2012-02-04T15:43:38.000Z</time>
      </trkpt>
      <trkpt lat="43.69943" lon="3.74272">
        <ele>212.39999389648</ele>
        <time>2012-02-04T15:43:43.000Z</time>
      </trkpt>
      <trkpt lat="43.69941" lon="3.74279">
        <ele>212.60000610352</ele>
        <time>2012-02-04T15:43:45.000Z</time>
      </trkpt>
      <trkpt lat="43.6994" lon="3.74289">
        <ele>212.80000305176</ele>
        <time>2012-02-04T15:43:49.000Z</time>
      </trkpt>
      <trkpt lat="43.69936" lon="3.74304">
        <ele>213</ele>
        <time>2012-02-04T15:43:54.000Z</time>
      </trkpt>
      <trkpt lat="43.69932" lon="3.74322">
        <ele>213.19999694824</ele>
        <time>2012-02-04T15:44:00.000Z</time>
      </trkpt>
      <trkpt lat="43.69932" lon="3.74325">
        <ele>213.19999694824</ele>
        <time>2012-02-04T15:44:01.000Z</time>
      </trkpt>
      <trkpt lat="43.6993" lon="3.74337">
        <ele>213.60000610352</ele>
        <time>2012-02-04T15:44:06.000Z</time>
      </trkpt>
      <trkpt lat="43.6993" lon="3.7434">
        <ele>213.60000610352</ele>
        <time>2012-02-04T15:44:07.000Z</time>
      </trkpt>
      <trkpt lat="43.69927" lon="3.74355">
        <ele>214.19999694824</ele>
        <time>2012-02-04T15:44:12.000Z</time>
      </trkpt>
      <trkpt lat="43.69928" lon="3.74377">
        <ele>215.19999694824</ele>
        <time>2012-02-04T15:44:18.000Z</time>
      </trkpt>
      <trkpt lat="43.69928" lon="3.7438">
        <ele>215.39999389648</ele>
        <time>2012-02-04T15:44:19.000Z</time>
      </trkpt>
      <trkpt lat="43.69932" lon="3.74395">
        <ele>216</ele>
        <time>2012-02-04T15:44:24.000Z</time>
      </trkpt>
      <trkpt lat="43.69935" lon="3.74416">
        <ele>217</ele>
        <time>2012-02-04T15:44:31.000Z</time>
      </trkpt>
      <trkpt lat="43.69937" lon="3.74431">
        <ele>217.39999389648</ele>
        <time>2012-02-04T15:44:36.000Z</time>
      </trkpt>
      <trkpt lat="43.69939" lon="3.74446">
        <ele>217.80000305176</ele>
        <time>2012-02-04T15:44:41.000Z</time>
      </trkpt>
      <trkpt lat="43.6994" lon="3.74463">
        <ele>218.19999694824</ele>
        <time>2012-02-04T15:44:47.000Z</time>
      </trkpt>
      <trkpt lat="43.69941" lon="3.74472">
        <ele>218.39999389648</ele>
        <time>2012-02-04T15:44:50.000Z</time>
      </trkpt>
      <trkpt lat="43.69939" lon="3.74489">
        <ele>218.80000305176</ele>
        <time>2012-02-04T15:44:56.000Z</time>
      </trkpt>
      <trkpt lat="43.69939" lon="3.74506">
        <ele>219.19999694824</ele>
        <time>2012-02-04T15:45:02.000Z</time>
      </trkpt>
      <trkpt lat="43.6994" lon="3.74514">
        <ele>219.19999694824</ele>
        <time>2012-02-04T15:45:05.000Z</time>
      </trkpt>
      <trkpt lat="43.69941" lon="3.74529">
        <ele>219.19999694824</ele>
        <time>2012-02-04T15:45:10.000Z</time>
      </trkpt>
      <trkpt lat="43.69943" lon="3.74541">
        <ele>219</ele>
        <time>2012-02-04T15:45:14.000Z</time>
      </trkpt>
      <trkpt lat="43.6995" lon="3.7456">
        <ele>218.80000305176</ele>
        <time>2012-02-04T15:45:21.000Z</time>
      </trkpt>
      <trkpt lat="43.69958" lon="3.74575">
        <ele>218.60000610352</ele>
        <time>2012-02-04T15:45:27.000Z</time>
      </trkpt>
      <trkpt lat="43.69959" lon="3.7458">
        <ele>218.39999389648</ele>
        <time>2012-02-04T15:45:29.000Z</time>
      </trkpt>
      <trkpt lat="43.69968" lon="3.74594">
        <ele>218.19999694824</ele>
        <time>2012-02-04T15:45:36.000Z</time>
      </trkpt>
      <trkpt lat="43.69973" lon="3.74607">
        <ele>217.80000305176</ele>
        <time>2012-02-04T15:45:41.000Z</time>
      </trkpt>
      <trkpt lat="43.69974" lon="3.7461">
        <ele>217.80000305176</ele>
        <time>2012-02-04T15:45:42.000Z</time>
      </trkpt>
      <trkpt lat="43.69975" lon="3.74627">
        <ele>217.80000305176</ele>
        <time>2012-02-04T15:45:48.000Z</time>
      </trkpt>
      <trkpt lat="43.69973" lon="3.74642">
        <ele>217.80000305176</ele>
        <time>2012-02-04T15:45:53.000Z</time>
      </trkpt>
      <trkpt lat="43.69971" lon="3.74653">
        <ele>217.80000305176</ele>
        <time>2012-02-04T15:45:57.000Z</time>
      </trkpt>
      <trkpt lat="43.69965" lon="3.74667">
        <ele>217.80000305176</ele>
        <time>2012-02-04T15:46:02.000Z</time>
      </trkpt>
      <trkpt lat="43.69959" lon="3.74678">
        <ele>218</ele>
        <time>2012-02-04T15:46:07.000Z</time>
      </trkpt>
      <trkpt lat="43.69952" lon="3.74687">
        <ele>218</ele>
        <time>2012-02-04T15:46:12.000Z</time>
      </trkpt>
      <trkpt lat="43.69944" lon="3.74697">
        <ele>218</ele>
        <time>2012-02-04T15:46:18.000Z</time>
      </trkpt>
      <trkpt lat="43.69934" lon="3.74706">
        <ele>218</ele>
        <time>2012-02-04T15:46:24.000Z</time>
      </trkpt>
      <trkpt lat="43.69924" lon="3.74715">
        <ele>217.80000305176</ele>
        <time>2012-02-04T15:46:29.000Z</time>
      </trkpt>
      <trkpt lat="43.69914" lon="3.74724">
        <ele>217.80000305176</ele>
        <time>2012-02-04T15:46:35.000Z</time>
      </trkpt>
      <trkpt lat="43.6991" lon="3.74728">
        <ele>217.80000305176</ele>
        <time>2012-02-04T15:46:38.000Z</time>
      </trkpt>
      <trkpt lat="43.699" lon="3.74738">
        <ele>218</ele>
        <time>2012-02-04T15:46:44.000Z</time>
      </trkpt>
      <trkpt lat="43.69891" lon="3.74746">
        <ele>218</ele>
        <time>2012-02-04T15:46:49.000Z</time>
      </trkpt>
      <trkpt lat="43.69881" lon="3.74756">
        <ele>218.39999389648</ele>
        <time>2012-02-04T15:46:54.000Z</time>
      </trkpt>
      <trkpt lat="43.69872" lon="3.74764">
        <ele>218.60000610352</ele>
        <time>2012-02-04T15:46:59.000Z</time>
      </trkpt>
      <trkpt lat="43.69864" lon="3.74775">
        <ele>219</ele>
        <time>2012-02-04T15:47:04.000Z</time>
      </trkpt>
      <trkpt lat="43.69857" lon="3.74786">
        <ele>219</ele>
        <time>2012-02-04T15:47:09.000Z</time>
      </trkpt>
      <trkpt lat="43.69849" lon="3.74798">
        <ele>219.19999694824</ele>
        <time>2012-02-04T15:47:14.000Z</time>
      </trkpt>
      <trkpt lat="43.69841" lon="3.74809">
        <ele>219.19999694824</ele>
        <time>2012-02-04T15:47:19.000Z</time>
      </trkpt>
      <trkpt lat="43.69836" lon="3.74816">
        <ele>219.19999694824</ele>
        <time>2012-02-04T15:47:23.000Z</time>
      </trkpt>
      <trkpt lat="43.69831" lon="3.74824">
        <ele>219.19999694824</ele>
        <time>2012-02-04T15:47:27.000Z</time>
      </trkpt>
      <trkpt lat="43.69822" lon="3.74835">
        <ele>219.39999389648</ele>
        <time>2012-02-04T15:47:33.000Z</time>
      </trkpt>
      <trkpt lat="43.6982" lon="3.74837">
        <ele>219.60000610352</ele>
        <time>2012-02-04T15:47:34.000Z</time>
      </trkpt>
      <trkpt lat="43.69804" lon="3.74847">
        <ele>220</ele>
        <time>2012-02-04T15:47:42.000Z</time>
      </trkpt>
      <trkpt lat="43.69792" lon="3.74856">
        <ele>220.19999694824</ele>
        <time>2012-02-04T15:47:48.000Z</time>
      </trkpt>
      <trkpt lat="43.69782" lon="3.74867">
        <ele>220.19999694824</ele>
        <time>2012-02-04T15:47:54.000Z</time>
      </trkpt>
      <trkpt lat="43.69775" lon="3.74877">
        <ele>220.19999694824</ele>
        <time>2012-02-04T15:47:59.000Z</time>
      </trkpt>
      <trkpt lat="43.6977" lon="3.74892">
        <ele>219.80000305176</ele>
        <time>2012-02-04T15:48:05.000Z</time>
      </trkpt>
      <trkpt lat="43.69765" lon="3.74902">
        <ele>219.60000610352</ele>
        <time>2012-02-04T15:48:10.000Z</time>
      </trkpt>
      <trkpt lat="43.69761" lon="3.74907">
        <ele>219.39999389648</ele>
        <time>2012-02-04T15:48:13.000Z</time>
      </trkpt>
      <trkpt lat="43.69754" lon="3.74917">
        <ele>219</ele>
        <time>2012-02-04T15:48:19.000Z</time>
      </trkpt>
      <trkpt lat="43.69749" lon="3.74922">
        <ele>219</ele>
        <time>2012-02-04T15:48:23.000Z</time>
      </trkpt>
      <trkpt lat="43.69747" lon="3.74925">
        <ele>219.19999694824</ele>
        <time>2012-02-04T15:48:25.000Z</time>
      </trkpt>
      <trkpt lat="43.69741" lon="3.7494">
        <ele>219.39999389648</ele>
        <time>2012-02-04T15:48:29.000Z</time>
      </trkpt>
      <trkpt lat="43.69731" lon="3.7495">
        <ele>219.80000305176</ele>
        <time>2012-02-04T15:48:35.000Z</time>
      </trkpt>
      <trkpt lat="43.69723" lon="3.74963">
        <ele>220</ele>
        <time>2012-02-04T15:48:40.000Z</time>
      </trkpt>
      <trkpt lat="43.69714" lon="3.74971">
        <ele>220.19999694824</ele>
        <time>2012-02-04T15:48:46.000Z</time>
      </trkpt>
      <trkpt lat="43.69708" lon="3.74978">
        <ele>220.19999694824</ele>
        <time>2012-02-04T15:48:49.000Z</time>
      </trkpt>
      <trkpt lat="43.69699" lon="3.74989">
        <ele>220.39999389648</ele>
        <time>2012-02-04T15:48:55.000Z</time>
      </trkpt>
      <trkpt lat="43.69696" lon="3.75003">
        <ele>220.19999694824</ele>
        <time>2012-02-04T15:49:00.000Z</time>
      </trkpt>
      <trkpt lat="43.69687" lon="3.75022">
        <ele>220.39999389648</ele>
        <time>2012-02-04T15:49:07.000Z</time>
      </trkpt>
      <trkpt lat="43.69683" lon="3.75031">
        <ele>220.39999389648</ele>
        <time>2012-02-04T15:49:11.000Z</time>
      </trkpt>
      <trkpt lat="43.6968" lon="3.75045">
        <ele>220.39999389648</ele>
        <time>2012-02-04T15:49:17.000Z</time>
      </trkpt>
      <trkpt lat="43.69677" lon="3.75057">
        <ele>220.39999389648</ele>
        <time>2012-02-04T15:49:21.000Z</time>
      </trkpt>
      <trkpt lat="43.69675" lon="3.75065">
        <ele>220.19999694824</ele>
        <time>2012-02-04T15:49:23.000Z</time>
      </trkpt>
      <trkpt lat="43.69669" lon="3.75087">
        <ele>220.19999694824</ele>
        <time>2012-02-04T15:49:31.000Z</time>
      </trkpt>
      <trkpt lat="43.69666" lon="3.75095">
        <ele>220.39999389648</ele>
        <time>2012-02-04T15:49:35.000Z</time>
      </trkpt>
      <trkpt lat="43.69661" lon="3.75104">
        <ele>221</ele>
        <time>2012-02-04T15:49:40.000Z</time>
      </trkpt>
      <trkpt lat="43.69657" lon="3.75109">
        <ele>221.19999694824</ele>
        <time>2012-02-04T15:49:43.000Z</time>
      </trkpt>
      <trkpt lat="43.69652" lon="3.75118">
        <ele>221.60000610352</ele>
        <time>2012-02-04T15:49:48.000Z</time>
      </trkpt>
      <trkpt lat="43.69643" lon="3.75127">
        <ele>222.19999694824</ele>
        <time>2012-02-04T15:49:54.000Z</time>
      </trkpt>
      <trkpt lat="43.69635" lon="3.75133">
        <ele>222.39999389648</ele>
        <time>2012-02-04T15:49:59.000Z</time>
      </trkpt>
      <trkpt lat="43.69627" lon="3.75141">
        <ele>222.80000305176</ele>
        <time>2012-02-04T15:50:04.000Z</time>
      </trkpt>
      <trkpt lat="43.69624" lon="3.75143">
        <ele>223</ele>
        <time>2012-02-04T15:50:06.000Z</time>
      </trkpt>
      <trkpt lat="43.69619" lon="3.75149">
        <ele>223.19999694824</ele>
        <time>2012-02-04T15:50:10.000Z</time>
      </trkpt>
      <trkpt lat="43.6961" lon="3.75155">
        <ele>223.39999389648</ele>
        <time>2012-02-04T15:50:17.000Z</time>
      </trkpt>
      <trkpt lat="43.69607" lon="3.75159">
        <ele>223.60000610352</ele>
        <time>2012-02-04T15:50:20.000Z</time>
      </trkpt>
      <trkpt lat="43.69597" lon="3.7517">
        <ele>224</ele>
        <time>2012-02-04T15:50:26.000Z</time>
      </trkpt>
      <trkpt lat="43.69591" lon="3.75177">
        <ele>224</ele>
        <time>2012-02-04T15:50:31.000Z</time>
      </trkpt>
      <trkpt lat="43.69582" lon="3.75187">
        <ele>224.19999694824</ele>
        <time>2012-02-04T15:50:37.000Z</time>
      </trkpt>
      <trkpt lat="43.69573" lon="3.75198">
        <ele>224.60000610352</ele>
        <time>2012-02-04T15:50:44.000Z</time>
      </trkpt>
      <trkpt lat="43.69566" lon="3.75203">
        <ele>224.80000305176</ele>
        <time>2012-02-04T15:50:49.000Z</time>
      </trkpt>
      <trkpt lat="43.69559" lon="3.7521">
        <ele>225.19999694824</ele>
        <time>2012-02-04T15:50:54.000Z</time>
      </trkpt>
      <trkpt lat="43.69551" lon="3.75219">
        <ele>225.39999389648</ele>
        <time>2012-02-04T15:51:00.000Z</time>
      </trkpt>
      <trkpt lat="43.6955" lon="3.7522">
        <ele>225.39999389648</ele>
        <time>2012-02-04T15:51:01.000Z</time>
      </trkpt>
      <trkpt lat="43.69546" lon="3.75226">
        <ele>225.60000610352</ele>
        <time>2012-02-04T15:51:05.000Z</time>
      </trkpt>
      <trkpt lat="43.69538" lon="3.75237">
        <ele>226</ele>
        <time>2012-02-04T15:51:10.000Z</time>
      </trkpt>
      <trkpt lat="43.69528" lon="3.75248">
        <ele>226.39999389648</ele>
        <time>2012-02-04T15:51:16.000Z</time>
      </trkpt>
      <trkpt lat="43.69527" lon="3.75249">
        <ele>226.39999389648</ele>
        <time>2012-02-04T15:51:17.000Z</time>
      </trkpt>
      <trkpt lat="43.69522" lon="3.75252">
        <ele>226.60000610352</ele>
        <time>2012-02-04T15:51:21.000Z</time>
      </trkpt>
      <trkpt lat="43.69509" lon="3.75261">
        <ele>227.19999694824</ele>
        <time>2012-02-04T15:51:28.000Z</time>
      </trkpt>
      <trkpt lat="43.69497" lon="3.75266">
        <ele>227.60000610352</ele>
        <time>2012-02-04T15:51:34.000Z</time>
      </trkpt>
      <trkpt lat="43.69489" lon="3.7527">
        <ele>227.80000305176</ele>
        <time>2012-02-04T15:51:39.000Z</time>
      </trkpt>
      <trkpt lat="43.6948" lon="3.75273">
        <ele>228</ele>
        <time>2012-02-04T15:51:45.000Z</time>
      </trkpt>
      <trkpt lat="43.6947" lon="3.75277">
        <ele>228</ele>
        <time>2012-02-04T15:51:52.000Z</time>
      </trkpt>
      <trkpt lat="43.69462" lon="3.75275">
        <ele>228</ele>
        <time>2012-02-04T15:51:56.000Z</time>
      </trkpt>
      <trkpt lat="43.6946" lon="3.75274">
        <ele>228</ele>
        <time>2012-02-04T15:51:57.000Z</time>
      </trkpt>
      <trkpt lat="43.69443" lon="3.75277">
        <ele>228.19999694824</ele>
        <time>2012-02-04T15:52:04.000Z</time>
      </trkpt>
      <trkpt lat="43.69436" lon="3.75279">
        <ele>228.19999694824</ele>
        <time>2012-02-04T15:52:08.000Z</time>
      </trkpt>
      <trkpt lat="43.69426" lon="3.75281">
        <ele>228.39999389648</ele>
        <time>2012-02-04T15:52:13.000Z</time>
      </trkpt>
      <trkpt lat="43.69415" lon="3.75283">
        <ele>228.39999389648</ele>
        <time>2012-02-04T15:52:18.000Z</time>
      </trkpt>
      <trkpt lat="43.69411" lon="3.75282">
        <ele>228.19999694824</ele>
        <time>2012-02-04T15:52:20.000Z</time>
      </trkpt>
      <trkpt lat="43.69398" lon="3.75285">
        <ele>228</ele>
        <time>2012-02-04T15:52:26.000Z</time>
      </trkpt>
      <trkpt lat="43.69393" lon="3.75286">
        <ele>228</ele>
        <time>2012-02-04T15:52:29.000Z</time>
      </trkpt>
      <trkpt lat="43.69386" lon="3.75286">
        <ele>227.80000305176</ele>
        <time>2012-02-04T15:52:33.000Z</time>
      </trkpt>
      <trkpt lat="43.69379" lon="3.75285">
        <ele>227.80000305176</ele>
        <time>2012-02-04T15:52:38.000Z</time>
      </trkpt>
      <trkpt lat="43.69368" lon="3.75286">
        <ele>227.60000610352</ele>
        <time>2012-02-04T15:52:43.000Z</time>
      </trkpt>
      <trkpt lat="43.69366" lon="3.75286">
        <ele>227.39999389648</ele>
        <time>2012-02-04T15:52:44.000Z</time>
      </trkpt>
      <trkpt lat="43.69359" lon="3.75287">
        <ele>227.39999389648</ele>
        <time>2012-02-04T15:52:47.000Z</time>
      </trkpt>
      <trkpt lat="43.69351" lon="3.75282">
        <ele>227</ele>
        <time>2012-02-04T15:52:54.000Z</time>
      </trkpt>
      <trkpt lat="43.69345" lon="3.75277">
        <ele>226.80000305176</ele>
        <time>2012-02-04T15:52:59.000Z</time>
      </trkpt>
      <trkpt lat="43.69344" lon="3.75275">
        <ele>226.80000305176</ele>
        <time>2012-02-04T15:53:07.000Z</time>
      </trkpt>
      <trkpt lat="43.69341" lon="3.75272">
        <ele>226.60000610352</ele>
        <time>2012-02-04T15:53:27.000Z</time>
      </trkpt>
      <trkpt lat="43.69341" lon="3.75265">
        <ele>226.60000610352</ele>
        <time>2012-02-04T15:53:34.000Z</time>
      </trkpt>
      <trkpt lat="43.69338" lon="3.75262">
        <ele>226.39999389648</ele>
        <time>2012-02-04T15:53:57.000Z</time>
      </trkpt>
      <trkpt lat="43.69337" lon="3.75259">
        <ele>226.19999694824</ele>
        <time>2012-02-04T15:54:03.000Z</time>
      </trkpt>
      <trkpt lat="43.69335" lon="3.75256">
        <ele>226.19999694824</ele>
        <time>2012-02-04T15:54:45.000Z</time>
      </trkpt>
      <trkpt lat="43.69333" lon="3.75249">
        <ele>226</ele>
        <time>2012-02-04T15:55:16.000Z</time>
      </trkpt>
      <trkpt lat="43.69331" lon="3.75241">
        <ele>225.60000610352</ele>
        <time>2012-02-04T15:55:21.000Z</time>
      </trkpt>
      <trkpt lat="43.69328" lon="3.7523">
        <ele>225</ele>
        <time>2012-02-04T15:55:28.000Z</time>
      </trkpt>
      <trkpt lat="43.69327" lon="3.75228">
        <ele>224.80000305176</ele>
        <time>2012-02-04T15:55:29.000Z</time>
      </trkpt>
      <trkpt lat="43.69322" lon="3.75213">
        <ele>224</ele>
        <time>2012-02-04T15:55:39.000Z</time>
      </trkpt>
      <trkpt lat="43.69316" lon="3.75199">
        <ele>222.80000305176</ele>
        <time>2012-02-04T15:55:49.000Z</time>
      </trkpt>
      <trkpt lat="43.69311" lon="3.75184">
        <ele>221.80000305176</ele>
        <time>2012-02-04T15:55:58.000Z</time>
      </trkpt>
      <trkpt lat="43.6931" lon="3.75182">
        <ele>221.60000610352</ele>
        <time>2012-02-04T15:56:00.000Z</time>
      </trkpt>
      <trkpt lat="43.69307" lon="3.75182">
        <ele>221.39999389648</ele>
        <time>2012-02-04T15:56:04.000Z</time>
      </trkpt>
      <trkpt lat="43.69305" lon="3.75182">
        <ele>221.39999389648</ele>
        <time>2012-02-04T15:56:11.000Z</time>
      </trkpt>
      <trkpt lat="43.69306" lon="3.75184">
        <ele>221.39999389648</ele>
        <time>2012-02-04T15:56:32.000Z</time>
      </trkpt>
      <trkpt lat="43.69304" lon="3.75185">
        <ele>221.39999389648</ele>
        <time>2012-02-04T15:56:41.000Z</time>
      </trkpt>
      <trkpt lat="43.69306" lon="3.75182">
        <ele>221.39999389648</ele>
        <time>2012-02-04T15:56:45.000Z</time>
      </trkpt>
      <trkpt lat="43.69306" lon="3.75171">
        <ele>220.60000610352</ele>
        <time>2012-02-04T15:56:52.000Z</time>
      </trkpt>
      <trkpt lat="43.69301" lon="3.75161">
        <ele>219.80000305176</ele>
        <time>2012-02-04T15:57:00.000Z</time>
      </trkpt>
      <trkpt lat="43.69299" lon="3.75158">
        <ele>219.39999389648</ele>
        <time>2012-02-04T15:57:06.000Z</time>
      </trkpt>
      <trkpt lat="43.69294" lon="3.75155">
        <ele>219</ele>
        <time>2012-02-04T15:57:24.000Z</time>
      </trkpt>
      <trkpt lat="43.69288" lon="3.75146">
        <ele>218</ele>
        <time>2012-02-04T15:57:31.000Z</time>
      </trkpt>
      <trkpt lat="43.6928" lon="3.75134">
        <ele>216.39999389648</ele>
        <time>2012-02-04T15:57:39.000Z</time>
      </trkpt>
      <trkpt lat="43.69272" lon="3.75121">
        <ele>214.60000610352</ele>
        <time>2012-02-04T15:57:47.000Z</time>
      </trkpt>
      <trkpt lat="43.6927" lon="3.75119">
        <ele>214.19999694824</ele>
        <time>2012-02-04T15:57:49.000Z</time>
      </trkpt>
      <trkpt lat="43.69264" lon="3.7511">
        <ele>212.60000610352</ele>
        <time>2012-02-04T15:57:55.000Z</time>
      </trkpt>
      <trkpt lat="43.69263" lon="3.75109">
        <ele>212.39999389648</ele>
        <time>2012-02-04T15:57:56.000Z</time>
      </trkpt>
      <trkpt lat="43.69257" lon="3.75097">
        <ele>210.39999389648</ele>
        <time>2012-02-04T15:58:03.000Z</time>
      </trkpt>
      <trkpt lat="43.69255" lon="3.75079">
        <ele>208.80000305176</ele>
        <time>2012-02-04T15:58:12.000Z</time>
      </trkpt>
      <trkpt lat="43.69255" lon="3.75062">
        <ele>209.19999694824</ele>
        <time>2012-02-04T15:58:21.000Z</time>
      </trkpt>
      <trkpt lat="43.69254" lon="3.75047">
        <ele>209</ele>
        <time>2012-02-04T15:58:29.000Z</time>
      </trkpt>
      <trkpt lat="43.6925" lon="3.7503">
        <ele>208.80000305176</ele>
        <time>2012-02-04T15:58:38.000Z</time>
      </trkpt>
      <trkpt lat="43.69242" lon="3.75012">
        <ele>207.39999389648</ele>
        <time>2012-02-04T15:58:48.000Z</time>
      </trkpt>
      <trkpt lat="43.69232" lon="3.75001">
        <ele>205.39999389648</ele>
        <time>2012-02-04T15:58:57.000Z</time>
      </trkpt>
      <trkpt lat="43.69224" lon="3.74993">
        <ele>204.19999694824</ele>
        <time>2012-02-04T15:59:04.000Z</time>
      </trkpt>
      <trkpt lat="43.69212" lon="3.74977">
        <ele>202.39999389648</ele>
        <time>2012-02-04T15:59:16.000Z</time>
      </trkpt>
      <trkpt lat="43.69203" lon="3.74961">
        <ele>201.39999389648</ele>
        <time>2012-02-04T15:59:26.000Z</time>
      </trkpt>
      <trkpt lat="43.69195" lon="3.74947">
        <ele>200</ele>
        <time>2012-02-04T15:59:35.000Z</time>
      </trkpt>
      <trkpt lat="43.69185" lon="3.74927">
        <ele>198.39999389648</ele>
        <time>2012-02-04T15:59:47.000Z</time>
      </trkpt>
      <trkpt lat="43.69183" lon="3.74912">
        <ele>198.60000610352</ele>
        <time>2012-02-04T15:59:55.000Z</time>
      </trkpt>
      <trkpt lat="43.69186" lon="3.74897">
        <ele>200.39999389648</ele>
        <time>2012-02-04T16:00:04.000Z</time>
      </trkpt>
      <trkpt lat="43.69187" lon="3.74882">
        <ele>201.80000305176</ele>
        <time>2012-02-04T16:00:12.000Z</time>
      </trkpt>
      <trkpt lat="43.69186" lon="3.74868">
        <ele>202.39999389648</ele>
        <time>2012-02-04T16:00:19.000Z</time>
      </trkpt>
      <trkpt lat="43.69183" lon="3.74849">
        <ele>203.19999694824</ele>
        <time>2012-02-04T16:00:28.000Z</time>
      </trkpt>
      <trkpt lat="43.69179" lon="3.74836">
        <ele>203.19999694824</ele>
        <time>2012-02-04T16:00:35.000Z</time>
      </trkpt>
      <trkpt lat="43.69173" lon="3.74824">
        <ele>202.80000305176</ele>
        <time>2012-02-04T16:00:43.000Z</time>
      </trkpt>
      <trkpt lat="43.69164" lon="3.74813">
        <ele>201.80000305176</ele>
        <time>2012-02-04T16:00:52.000Z</time>
      </trkpt>
      <trkpt lat="43.69156" lon="3.74806">
        <ele>200.80000305176</ele>
        <time>2012-02-04T16:00:59.000Z</time>
      </trkpt>
      <trkpt lat="43.69149" lon="3.748">
        <ele>200</ele>
        <time>2012-02-04T16:01:05.000Z</time>
      </trkpt>
      <trkpt lat="43.69142" lon="3.74793">
        <ele>199</ele>
        <time>2012-02-04T16:01:11.000Z</time>
      </trkpt>
      <trkpt lat="43.69139" lon="3.74788">
        <ele>198.80000305176</ele>
        <time>2012-02-04T16:01:14.000Z</time>
      </trkpt>
      <trkpt lat="43.69133" lon="3.7478">
        <ele>198.39999389648</ele>
        <time>2012-02-04T16:01:20.000Z</time>
      </trkpt>
      <trkpt lat="43.69132" lon="3.74779">
        <ele>198.19999694824</ele>
        <time>2012-02-04T16:01:21.000Z</time>
      </trkpt>
      <trkpt lat="43.69128" lon="3.74774">
        <ele>197.60000610352</ele>
        <time>2012-02-04T16:01:25.000Z</time>
      </trkpt>
      <trkpt lat="43.69122" lon="3.74767">
        <ele>197</ele>
        <time>2012-02-04T16:01:31.000Z</time>
      </trkpt>
      <trkpt lat="43.69113" lon="3.74757">
        <ele>195.80000305176</ele>
        <time>2012-02-04T16:01:39.000Z</time>
      </trkpt>
      <trkpt lat="43.69108" lon="3.74745">
        <ele>195.39999389648</ele>
        <time>2012-02-04T16:01:47.000Z</time>
      </trkpt>
      <trkpt lat="43.69102" lon="3.74731">
        <ele>194.60000610352</ele>
        <time>2012-02-04T16:01:56.000Z</time>
      </trkpt>
      <trkpt lat="43.69097" lon="3.74721">
        <ele>193.80000305176</ele>
        <time>2012-02-04T16:02:03.000Z</time>
      </trkpt>
      <trkpt lat="43.69092" lon="3.74709">
        <ele>193.19999694824</ele>
        <time>2012-02-04T16:02:11.000Z</time>
      </trkpt>
      <trkpt lat="43.6909" lon="3.74702">
        <ele>193</ele>
        <time>2012-02-04T16:02:16.000Z</time>
      </trkpt>
      <trkpt lat="43.69088" lon="3.74697">
        <ele>192.80000305176</ele>
        <time>2012-02-04T16:02:22.000Z</time>
      </trkpt>
      <trkpt lat="43.69085" lon="3.7469">
        <ele>192.19999694824</ele>
        <time>2012-02-04T16:02:27.000Z</time>
      </trkpt>
      <trkpt lat="43.6908" lon="3.74677">
        <ele>192</ele>
        <time>2012-02-04T16:02:37.000Z</time>
      </trkpt>
      <trkpt lat="43.69078" lon="3.74667">
        <ele>192</ele>
        <time>2012-02-04T16:02:46.000Z</time>
      </trkpt>
      <trkpt lat="43.69078" lon="3.74666">
        <ele>192.19999694824</ele>
        <time>2012-02-04T16:02:51.000Z</time>
      </trkpt>
      <trkpt lat="43.69076" lon="3.7466">
        <ele>192</ele>
        <time>2012-02-04T16:02:58.000Z</time>
      </trkpt>
      <trkpt lat="43.69074" lon="3.74652">
        <ele>191.60000610352</ele>
        <time>2012-02-04T16:03:04.000Z</time>
      </trkpt>
      <trkpt lat="43.69071" lon="3.7464">
        <ele>191.39999389648</ele>
        <time>2012-02-04T16:03:13.000Z</time>
      </trkpt>
      <trkpt lat="43.69069" lon="3.74634">
        <ele>191.19999694824</ele>
        <time>2012-02-04T16:03:17.000Z</time>
      </trkpt>
      <trkpt lat="43.69067" lon="3.7463">
        <ele>191</ele>
        <time>2012-02-04T16:03:28.000Z</time>
      </trkpt>
      <trkpt lat="43.69069" lon="3.74618">
        <ele>191.39999389648</ele>
        <time>2012-02-04T16:03:36.000Z</time>
      </trkpt>
      <trkpt lat="43.69069" lon="3.74615">
        <ele>191.60000610352</ele>
        <time>2012-02-04T16:03:38.000Z</time>
      </trkpt>
      <trkpt lat="43.69068" lon="3.74611">
        <ele>191.39999389648</ele>
        <time>2012-02-04T16:03:45.000Z</time>
      </trkpt>
      <trkpt lat="43.69069" lon="3.746">
        <ele>191.80000305176</ele>
        <time>2012-02-04T16:03:53.000Z</time>
      </trkpt>
      <trkpt lat="43.69066" lon="3.7459">
        <ele>191.60000610352</ele>
        <time>2012-02-04T16:04:02.000Z</time>
      </trkpt>
      <trkpt lat="43.69065" lon="3.74585">
        <ele>191.60000610352</ele>
        <time>2012-02-04T16:04:08.000Z</time>
      </trkpt>
      <trkpt lat="43.69064" lon="3.74584">
        <ele>191.60000610352</ele>
        <time>2012-02-04T16:04:17.000Z</time>
      </trkpt>
      <trkpt lat="43.69053" lon="3.7458">
        <ele>191</ele>
        <time>2012-02-04T16:04:26.000Z</time>
      </trkpt>
      <trkpt lat="43.69046" lon="3.74584">
        <ele>190.39999389648</ele>
        <time>2012-02-04T16:04:32.000Z</time>
      </trkpt>
      <trkpt lat="43.69035" lon="3.74592">
        <ele>189.19999694824</ele>
        <time>2012-02-04T16:04:42.000Z</time>
      </trkpt>
      <trkpt lat="43.69028" lon="3.74592">
        <ele>188.60000610352</ele>
        <time>2012-02-04T16:04:49.000Z</time>
      </trkpt>
      <trkpt lat="43.6902" lon="3.74591">
        <ele>188</ele>
        <time>2012-02-04T16:04:56.000Z</time>
      </trkpt>
      <trkpt lat="43.69016" lon="3.74588">
        <ele>187.80000305176</ele>
        <time>2012-02-04T16:05:03.000Z</time>
      </trkpt>
      <trkpt lat="43.69012" lon="3.74588">
        <ele>187.39999389648</ele>
        <time>2012-02-04T16:05:10.000Z</time>
      </trkpt>
      <trkpt lat="43.69003" lon="3.7459">
        <ele>186.60000610352</ele>
        <time>2012-02-04T16:05:19.000Z</time>
      </trkpt>
      <trkpt lat="43.69" lon="3.74596">
        <ele>186</ele>
        <time>2012-02-04T16:05:27.000Z</time>
      </trkpt>
      <trkpt lat="43.68999" lon="3.74596">
        <ele>186</ele>
        <time>2012-02-04T16:05:33.000Z</time>
      </trkpt>
      <trkpt lat="43.68999" lon="3.74596">
        <ele>186</ele>
        <time>2012-02-04T16:05:41.000Z</time>
      </trkpt>
      <trkpt lat="43.68999" lon="3.74597">
        <ele>186</ele>
        <time>2012-02-04T16:05:48.000Z</time>
      </trkpt>
      <trkpt lat="43.68998" lon="3.74596">
        <ele>186</ele>
        <time>2012-02-04T16:05:53.000Z</time>
      </trkpt>
      <trkpt lat="43.68998" lon="3.74597">
        <ele>186</ele>
        <time>2012-02-04T16:05:59.000Z</time>
      </trkpt>
    </trkseg>
  </trk>
</gpx>